<?xml version="1.0" encoding="UTF-8" standalone="no" ?>
<gpx xmlns="http://www.topografix.com/GPX/1/1" creator="BaseCamp 2.0.9" version="1.1" xmlns:xsi="http://www.w3.org/2001/XMLSchema-instance" xsi:schemaLocation="http://www.topografix.com/GPX/1/1 http://www.topografix.com/GPX/1/1/gpx.xsd">

  <metadata>
    <link href="http://www.garmin.com">
      <text>Garmin International</text>
    </link>
    <time>2012-10-13T08:14:11Z</time>
    <bounds maxlat="51.5818897" maxlon="6.9248629" minlat="51.4496440" minlon="6.7844318"/>
  </metadata>

  <trk>
    <name>Rund um Oberhausen_2</name>
    <extensions>
      <gpxx:TrackExtension xmlns:gpxx="http://www.garmin.com/xmlschemas/GpxExtensions/v3">
        <gpxx:DisplayColor>Red</gpxx:DisplayColor>
      </gpxx:TrackExtension>
    </extensions>
    <trkseg>
      <trkpt lat="51.5138870" lon="6.8971500">
        <ele>55.0000000</ele>
        <time>2009-03-10T10:36:53Z</time>
      </trkpt>
      <trkpt lat="51.5136594" lon="6.8976539">
        <ele>54.0000000</ele>
        <time>2009-03-10T10:36:53Z</time>
      </trkpt>
      <trkpt lat="51.5133661" lon="6.8982259">
        <ele>22.0000000</ele>
        <time>2009-03-10T10:36:53Z</time>
      </trkpt>
      <trkpt lat="51.5132442" lon="6.8984748">
        <ele>22.0000000</ele>
        <time>2009-03-10T10:36:53Z</time>
      </trkpt>
      <trkpt lat="51.5131228" lon="6.8986019">
        <ele>22.0000000</ele>
        <time>2009-03-10T10:36:53Z</time>
      </trkpt>
      <trkpt lat="51.5130985" lon="6.8986571">
        <ele>22.0000000</ele>
        <time>2009-03-10T10:36:53Z</time>
      </trkpt>
      <trkpt lat="51.5129388" lon="6.8989978">
        <ele>21.0000000</ele>
        <time>2009-03-10T10:36:53Z</time>
      </trkpt>
      <trkpt lat="51.5127580" lon="6.8994160">
        <ele>21.0000000</ele>
        <time>2009-03-10T10:36:53Z</time>
      </trkpt>
      <trkpt lat="51.5126191" lon="6.8996611">
        <ele>21.0000000</ele>
        <time>2009-03-10T10:36:53Z</time>
      </trkpt>
      <trkpt lat="51.5123538" lon="6.9000696">
        <ele>21.0000000</ele>
        <time>2009-03-10T10:36:53Z</time>
      </trkpt>
      <trkpt lat="51.5119478" lon="6.8993722">
        <ele>21.0000000</ele>
        <time>2009-03-10T10:36:53Z</time>
      </trkpt>
      <trkpt lat="51.5110048" lon="6.8977176">
        <ele>27.0000000</ele>
        <time>2009-03-10T10:36:53Z</time>
      </trkpt>
      <trkpt lat="51.5106915" lon="6.8971736">
        <ele>51.0000000</ele>
        <time>2009-03-10T10:36:53Z</time>
      </trkpt>
      <trkpt lat="51.5115335" lon="6.8955449">
        <ele>24.0000000</ele>
        <time>2009-03-10T10:36:53Z</time>
      </trkpt>
      <trkpt lat="51.5112850" lon="6.8951780">
        <ele>51.0000000</ele>
        <time>2009-03-10T10:36:53Z</time>
      </trkpt>
      <trkpt lat="51.5111550" lon="6.8949120">
        <ele>51.0000000</ele>
        <time>2009-03-10T10:36:53Z</time>
      </trkpt>
      <trkpt lat="51.5109300" lon="6.8946390">
        <ele>52.0000000</ele>
        <time>2009-03-10T10:36:53Z</time>
      </trkpt>
      <trkpt lat="51.5103700" lon="6.8941280">
        <ele>51.0000000</ele>
        <time>2009-03-10T10:36:53Z</time>
      </trkpt>
      <trkpt lat="51.5097500" lon="6.8936940">
        <ele>50.0000000</ele>
        <time>2009-03-10T10:36:53Z</time>
      </trkpt>
      <trkpt lat="51.5091180" lon="6.8932970">
        <ele>49.0000000</ele>
        <time>2009-03-10T10:36:53Z</time>
      </trkpt>
      <trkpt lat="51.5089390" lon="6.8931590">
        <ele>49.0000000</ele>
        <time>2009-03-10T10:36:53Z</time>
      </trkpt>
      <trkpt lat="51.5086760" lon="6.8941360">
        <ele>50.0000000</ele>
        <time>2009-03-10T10:36:53Z</time>
      </trkpt>
      <trkpt lat="51.5085370" lon="6.8945750">
        <ele>50.0000000</ele>
        <time>2009-03-10T10:36:53Z</time>
      </trkpt>
      <trkpt lat="51.5083900" lon="6.8951220">
        <ele>51.0000000</ele>
        <time>2009-03-10T10:36:53Z</time>
      </trkpt>
      <trkpt lat="51.5082490" lon="6.8954170">
        <ele>51.0000000</ele>
        <time>2009-03-10T10:36:53Z</time>
      </trkpt>
      <trkpt lat="51.5081820" lon="6.8954560">
        <ele>51.0000000</ele>
        <time>2009-03-10T10:36:53Z</time>
      </trkpt>
      <trkpt lat="51.5079870" lon="6.8952490">
        <ele>50.0000000</ele>
        <time>2009-03-10T10:36:53Z</time>
      </trkpt>
      <trkpt lat="51.5078100" lon="6.8951340">
        <ele>50.0000000</ele>
        <time>2009-03-10T10:36:53Z</time>
      </trkpt>
      <trkpt lat="51.5074630" lon="6.8949740">
        <ele>49.0000000</ele>
        <time>2009-03-10T10:36:53Z</time>
      </trkpt>
      <trkpt lat="51.5071290" lon="6.8948330">
        <ele>49.0000000</ele>
        <time>2009-03-10T10:36:53Z</time>
      </trkpt>
      <trkpt lat="51.5069440" lon="6.8947380">
        <ele>49.0000000</ele>
        <time>2009-03-10T10:36:53Z</time>
      </trkpt>
      <trkpt lat="51.5068510" lon="6.8945900">
        <ele>48.0000000</ele>
        <time>2009-03-10T10:36:53Z</time>
      </trkpt>
      <trkpt lat="51.5067750" lon="6.8943950">
        <ele>47.0000000</ele>
        <time>2009-03-10T10:36:53Z</time>
      </trkpt>
      <trkpt lat="51.5066220" lon="6.8937080">
        <ele>46.0000000</ele>
        <time>2009-03-10T10:36:53Z</time>
      </trkpt>
      <trkpt lat="51.5064800" lon="6.8934760">
        <ele>47.0000000</ele>
        <time>2009-03-10T10:36:53Z</time>
      </trkpt>
      <trkpt lat="51.5061710" lon="6.8930360">
        <ele>46.0000000</ele>
        <time>2009-03-10T10:36:53Z</time>
      </trkpt>
      <trkpt lat="51.5056850" lon="6.8925000">
        <ele>44.0000000</ele>
        <time>2009-03-10T10:36:53Z</time>
      </trkpt>
      <trkpt lat="51.5043910" lon="6.8912530">
        <ele>42.0000000</ele>
        <time>2009-03-10T10:36:53Z</time>
      </trkpt>
      <trkpt lat="51.5048880" lon="6.8898170">
        <ele>44.0000000</ele>
        <time>2009-03-10T10:36:53Z</time>
      </trkpt>
      <trkpt lat="51.5053630" lon="6.8883810">
        <ele>49.0000000</ele>
        <time>2009-03-10T10:36:53Z</time>
      </trkpt>
      <trkpt lat="51.5051570" lon="6.8878620">
        <ele>49.0000000</ele>
        <time>2009-03-10T10:36:53Z</time>
      </trkpt>
      <trkpt lat="51.5048390" lon="6.8870490">
        <ele>48.0000000</ele>
        <time>2009-03-10T10:36:53Z</time>
      </trkpt>
      <trkpt lat="51.5042120" lon="6.8869210">
        <ele>46.0000000</ele>
        <time>2009-03-10T10:36:53Z</time>
      </trkpt>
      <trkpt lat="51.5040140" lon="6.8868400">
        <ele>45.0000000</ele>
        <time>2009-03-10T10:36:53Z</time>
      </trkpt>
      <trkpt lat="51.5031960" lon="6.8866800">
        <ele>42.0000000</ele>
        <time>2009-03-10T10:36:53Z</time>
      </trkpt>
      <trkpt lat="51.5028570" lon="6.8865780">
        <ele>41.0000000</ele>
        <time>2009-03-10T10:36:53Z</time>
      </trkpt>
      <trkpt lat="51.5024450" lon="6.8861650">
        <ele>40.0000000</ele>
        <time>2009-03-10T10:36:53Z</time>
      </trkpt>
      <trkpt lat="51.5023700" lon="6.8860780">
        <ele>40.0000000</ele>
        <time>2009-03-10T10:36:53Z</time>
      </trkpt>
      <trkpt lat="51.5020830" lon="6.8860560">
        <ele>39.0000000</ele>
        <time>2009-03-10T10:36:53Z</time>
      </trkpt>
      <trkpt lat="51.5015020" lon="6.8859380">
        <ele>39.0000000</ele>
        <time>2009-03-10T10:36:53Z</time>
      </trkpt>
    </trkseg>
  </trk>

  <trk>
    <name>Track</name>
    <extensions>
      <gpxx:TrackExtension xmlns:gpxx="http://www.garmin.com/xmlschemas/GpxExtensions/v3">
        <gpxx:DisplayColor>Red</gpxx:DisplayColor>
      </gpxx:TrackExtension>
    </extensions>
    <trkseg>
      <trkpt lat="51.4740040" lon="6.8544090">
        <ele>36.0000000</ele>
        <time>2009-03-10T10:36:53Z</time>
      </trkpt>
      <trkpt lat="51.4741110" lon="6.8545620">
        <ele>36.0000000</ele>
        <time>2009-03-10T10:36:53Z</time>
      </trkpt>
      <trkpt lat="51.4745540" lon="6.8553010">
        <ele>36.0000000</ele>
        <time>2009-03-10T10:36:53Z</time>
      </trkpt>
      <trkpt lat="51.4746720" lon="6.8555090">
        <ele>36.0000000</ele>
        <time>2009-03-10T10:36:53Z</time>
      </trkpt>
      <trkpt lat="51.4747570" lon="6.8557790">
        <ele>35.0000000</ele>
        <time>2009-03-10T10:36:53Z</time>
      </trkpt>
      <trkpt lat="51.4748240" lon="6.8561670">
        <ele>35.0000000</ele>
        <time>2009-03-10T10:36:53Z</time>
      </trkpt>
      <trkpt lat="51.4748630" lon="6.8566350">
        <ele>34.0000000</ele>
        <time>2009-03-10T10:36:53Z</time>
      </trkpt>
      <trkpt lat="51.4748593" lon="6.8569784">
        <ele>34.0000000</ele>
        <time>2009-03-10T10:36:53Z</time>
      </trkpt>
      <trkpt lat="51.4748839" lon="6.8570943">
        <ele>31.0000000</ele>
        <time>2009-03-10T10:36:53Z</time>
      </trkpt>
      <trkpt lat="51.4750139" lon="6.8572907">
        <ele>31.0000000</ele>
        <time>2009-03-10T10:36:53Z</time>
      </trkpt>
      <trkpt lat="51.4751477" lon="6.8573834">
        <ele>31.0000000</ele>
        <time>2009-03-10T10:36:53Z</time>
      </trkpt>
      <trkpt lat="51.4752978" lon="6.8574439">
        <ele>31.0000000</ele>
        <time>2009-03-10T10:36:53Z</time>
      </trkpt>
      <trkpt lat="51.4753247" lon="6.8581492">
        <ele>31.0000000</ele>
        <time>2009-03-10T10:36:53Z</time>
      </trkpt>
      <trkpt lat="51.4751468" lon="6.8585626">
        <ele>34.0000000</ele>
        <time>2009-03-10T10:36:53Z</time>
      </trkpt>
      <trkpt lat="51.4747340" lon="6.8585190">
        <ele>35.0000000</ele>
        <time>2009-03-10T10:36:53Z</time>
      </trkpt>
      <trkpt lat="51.4746185" lon="6.8587178">
        <ele>31.0000000</ele>
        <time>2009-03-10T10:36:53Z</time>
      </trkpt>
      <trkpt lat="51.4738917" lon="6.8586304">
        <ele>36.0000000</ele>
        <time>2009-03-10T10:36:53Z</time>
      </trkpt>
      <trkpt lat="51.4734695" lon="6.8585917">
        <ele>30.0000000</ele>
        <time>2009-03-10T10:36:53Z</time>
      </trkpt>
      <trkpt lat="51.4733993" lon="6.8585949">
        <ele>37.0000000</ele>
        <time>2009-03-10T10:36:53Z</time>
      </trkpt>
      <trkpt lat="51.4733980" lon="6.8583480">
        <ele>38.0000000</ele>
        <time>2009-03-10T10:36:53Z</time>
      </trkpt>
      <trkpt lat="51.4726290" lon="6.8582040">
        <ele>38.0000000</ele>
        <time>2009-03-10T10:36:53Z</time>
      </trkpt>
      <trkpt lat="51.4724880" lon="6.8580950">
        <ele>38.0000000</ele>
        <time>2009-03-10T10:36:53Z</time>
      </trkpt>
      <trkpt lat="51.4722690" lon="6.8580410">
        <ele>37.0000000</ele>
        <time>2009-03-10T10:36:53Z</time>
      </trkpt>
      <trkpt lat="51.4720560" lon="6.8580590">
        <ele>37.0000000</ele>
        <time>2009-03-10T10:36:53Z</time>
      </trkpt>
      <trkpt lat="51.4717980" lon="6.8580950">
        <ele>37.0000000</ele>
        <time>2009-03-10T10:36:53Z</time>
      </trkpt>
      <trkpt lat="51.4716860" lon="6.8580320">
        <ele>37.0000000</ele>
        <time>2009-03-10T10:36:53Z</time>
      </trkpt>
      <trkpt lat="51.4716860" lon="6.8579330">
        <ele>37.0000000</ele>
        <time>2009-03-10T10:36:53Z</time>
      </trkpt>
      <trkpt lat="51.4717250" lon="6.8575730">
        <ele>37.0000000</ele>
        <time>2009-03-10T10:36:53Z</time>
      </trkpt>
      <trkpt lat="51.4717590" lon="6.8571310">
        <ele>36.0000000</ele>
        <time>2009-03-10T10:36:53Z</time>
      </trkpt>
      <trkpt lat="51.4718310" lon="6.8566440">
        <ele>36.0000000</ele>
        <time>2009-03-10T10:36:53Z</time>
      </trkpt>
      <trkpt lat="51.4719330" lon="6.8560490">
        <ele>36.0000000</ele>
        <time>2009-03-10T10:36:53Z</time>
      </trkpt>
      <trkpt lat="51.4719770" lon="6.8558240">
        <ele>36.0000000</ele>
        <time>2009-03-10T10:36:53Z</time>
      </trkpt>
      <trkpt lat="51.4720950" lon="6.8556080">
        <ele>37.0000000</ele>
        <time>2009-03-10T10:36:53Z</time>
      </trkpt>
      <trkpt lat="51.4722860" lon="6.8554000">
        <ele>37.0000000</ele>
        <time>2009-03-10T10:36:53Z</time>
      </trkpt>
      <trkpt lat="51.4724830" lon="6.8551930">
        <ele>37.0000000</ele>
        <time>2009-03-10T10:36:53Z</time>
      </trkpt>
      <trkpt lat="51.4725585" lon="6.8548813">
        <ele>37.0000000</ele>
        <time>2009-03-10T10:36:53Z</time>
      </trkpt>
      <trkpt lat="51.4725712" lon="6.8548041">
        <ele>37.0000000</ele>
        <time>2009-03-10T10:36:53Z</time>
      </trkpt>
      <trkpt lat="51.4726643" lon="6.8543633">
        <ele>29.0000000</ele>
        <time>2009-03-10T10:36:53Z</time>
      </trkpt>
      <trkpt lat="51.4719253" lon="6.8540605">
        <ele>29.0000000</ele>
        <time>2009-03-10T10:36:53Z</time>
      </trkpt>
      <trkpt lat="51.4716379" lon="6.8538670">
        <ele>37.0000000</ele>
        <time>2009-03-10T10:36:53Z</time>
      </trkpt>
      <trkpt lat="51.4715060" lon="6.8537690">
        <ele>37.0000000</ele>
        <time>2009-03-10T10:36:53Z</time>
      </trkpt>
      <trkpt lat="51.4715840" lon="6.8534810">
        <ele>36.0000000</ele>
        <time>2009-03-10T10:36:53Z</time>
      </trkpt>
      <trkpt lat="51.4717140" lon="6.8528770">
        <ele>36.0000000</ele>
        <time>2009-03-10T10:36:53Z</time>
      </trkpt>
      <trkpt lat="51.4717360" lon="6.8525610">
        <ele>36.0000000</ele>
        <time>2009-03-10T10:36:53Z</time>
      </trkpt>
      <trkpt lat="51.4717300" lon="6.8523630">
        <ele>36.0000000</ele>
        <time>2009-03-10T10:36:53Z</time>
      </trkpt>
      <trkpt lat="51.4717212" lon="6.8521260">
        <ele>27.0000000</ele>
        <time>2009-03-10T10:36:53Z</time>
      </trkpt>
      <trkpt lat="51.4711970" lon="6.8520472">
        <ele>28.0000000</ele>
        <time>2009-03-10T10:36:53Z</time>
      </trkpt>
      <trkpt lat="51.4706985" lon="6.8519896">
        <ele>28.0000000</ele>
        <time>2009-03-10T10:36:53Z</time>
      </trkpt>
      <trkpt lat="51.4703293" lon="6.8519304">
        <ele>32.0000000</ele>
        <time>2009-03-10T10:36:53Z</time>
      </trkpt>
      <trkpt lat="51.4702194" lon="6.8519131">
        <ele>32.0000000</ele>
        <time>2009-03-10T10:36:53Z</time>
      </trkpt>
      <trkpt lat="51.4702430" lon="6.8517230">
        <ele>36.0000000</ele>
        <time>2009-03-10T10:36:53Z</time>
      </trkpt>
      <trkpt lat="51.4702150" lon="6.8516060">
        <ele>36.0000000</ele>
        <time>2009-03-10T10:36:53Z</time>
      </trkpt>
      <trkpt lat="51.4691200" lon="6.8513800">
        <ele>36.0000000</ele>
        <time>2009-03-10T10:36:53Z</time>
      </trkpt>
      <trkpt lat="51.4691200" lon="6.8513260">
        <ele>36.0000000</ele>
        <time>2009-03-10T10:36:53Z</time>
      </trkpt>
      <trkpt lat="51.4691480" lon="6.8504430">
        <ele>35.0000000</ele>
        <time>2009-03-10T10:36:53Z</time>
      </trkpt>
      <trkpt lat="51.4689388" lon="6.8504343">
        <ele>34.0000000</ele>
        <time>2009-03-10T10:36:53Z</time>
      </trkpt>
      <trkpt lat="51.4689494" lon="6.8502493">
        <ele>34.0000000</ele>
        <time>2009-03-10T10:36:53Z</time>
      </trkpt>
      <trkpt lat="51.4686194" lon="6.8501794">
        <ele>34.0000000</ele>
        <time>2009-03-10T10:36:53Z</time>
      </trkpt>
      <trkpt lat="51.4686520" lon="6.8495074">
        <ele>36.0000000</ele>
        <time>2009-03-10T10:36:53Z</time>
      </trkpt>
      <trkpt lat="51.4685020" lon="6.8494790">
        <ele>36.0000000</ele>
        <time>2009-03-10T10:36:53Z</time>
      </trkpt>
      <trkpt lat="51.4673290" lon="6.8492710">
        <ele>35.0000000</ele>
        <time>2009-03-10T10:36:53Z</time>
      </trkpt>
      <trkpt lat="51.4673220" lon="6.8491650">
        <ele>31.0000000</ele>
        <time>2009-03-10T10:36:53Z</time>
      </trkpt>
      <trkpt lat="51.4672674" lon="6.8490956">
        <ele>36.0000000</ele>
        <time>2009-03-10T10:36:53Z</time>
      </trkpt>
      <trkpt lat="51.4672387" lon="6.8489124">
        <ele>35.0000000</ele>
        <time>2009-03-10T10:36:53Z</time>
      </trkpt>
      <trkpt lat="51.4671114" lon="6.8488644">
        <ele>27.0000000</ele>
        <time>2009-03-10T10:36:53Z</time>
      </trkpt>
      <trkpt lat="51.4664431" lon="6.8487429">
        <ele>26.0000000</ele>
        <time>2009-03-10T10:36:53Z</time>
      </trkpt>
      <trkpt lat="51.4652694" lon="6.8485011">
        <ele>35.0000000</ele>
        <time>2009-03-10T10:36:53Z</time>
      </trkpt>
      <trkpt lat="51.4651482" lon="6.8484798">
        <ele>35.0000000</ele>
        <time>2009-03-10T10:36:53Z</time>
      </trkpt>
      <trkpt lat="51.4647850" lon="6.8484060">
        <ele>34.0000000</ele>
        <time>2009-03-10T10:36:53Z</time>
      </trkpt>
      <trkpt lat="51.4637120" lon="6.8484420">
        <ele>34.0000000</ele>
        <time>2009-03-10T10:36:53Z</time>
      </trkpt>
      <trkpt lat="51.4634880" lon="6.8484150">
        <ele>34.0000000</ele>
        <time>2009-03-10T10:36:53Z</time>
      </trkpt>
      <trkpt lat="51.4631790" lon="6.8484150">
        <ele>33.0000000</ele>
        <time>2009-03-10T10:36:53Z</time>
      </trkpt>
      <trkpt lat="51.4629150" lon="6.8483880">
        <ele>33.0000000</ele>
        <time>2009-03-10T10:36:53Z</time>
      </trkpt>
      <trkpt lat="51.4625950" lon="6.8483700">
        <ele>33.0000000</ele>
        <time>2009-03-10T10:36:53Z</time>
      </trkpt>
      <trkpt lat="51.4625050" lon="6.8483970">
        <ele>33.0000000</ele>
        <time>2009-03-10T10:36:53Z</time>
      </trkpt>
      <trkpt lat="51.4622860" lon="6.8483340">
        <ele>33.0000000</ele>
        <time>2009-03-10T10:36:53Z</time>
      </trkpt>
      <trkpt lat="51.4617080" lon="6.8483250">
        <ele>33.0000000</ele>
        <time>2009-03-10T10:36:53Z</time>
      </trkpt>
      <trkpt lat="51.4605620" lon="6.8483160">
        <ele>34.0000000</ele>
        <time>2009-03-10T10:36:53Z</time>
      </trkpt>
      <trkpt lat="51.4604160" lon="6.8482800">
        <ele>34.0000000</ele>
        <time>2009-03-10T10:36:53Z</time>
      </trkpt>
      <trkpt lat="51.4591300" lon="6.8482710">
        <ele>35.0000000</ele>
        <time>2009-03-10T10:36:53Z</time>
      </trkpt>
      <trkpt lat="51.4591580" lon="6.8484330">
        <ele>35.0000000</ele>
        <time>2009-03-10T10:36:53Z</time>
      </trkpt>
      <trkpt lat="51.4592250" lon="6.8486310">
        <ele>35.0000000</ele>
        <time>2009-03-10T10:36:53Z</time>
      </trkpt>
      <trkpt lat="51.4592760" lon="6.8488570">
        <ele>35.0000000</ele>
        <time>2009-03-10T10:36:53Z</time>
      </trkpt>
      <trkpt lat="51.4592760" lon="6.8489920">
        <ele>35.0000000</ele>
        <time>2009-03-10T10:36:53Z</time>
      </trkpt>
      <trkpt lat="51.4588380" lon="6.8490010">
        <ele>35.0000000</ele>
        <time>2009-03-10T10:36:53Z</time>
      </trkpt>
      <trkpt lat="51.4585121" lon="6.8482836">
        <ele>35.0000000</ele>
        <time>2009-03-10T10:36:53Z</time>
      </trkpt>
      <trkpt lat="51.4585090" lon="6.8481173">
        <ele>25.0000000</ele>
        <time>2009-03-10T10:36:53Z</time>
      </trkpt>
      <trkpt lat="51.4584730" lon="6.8481540">
        <ele>35.0000000</ele>
        <time>2009-03-10T10:36:53Z</time>
      </trkpt>
      <trkpt lat="51.4584220" lon="6.8481000">
        <ele>34.0000000</ele>
        <time>2009-03-10T10:36:53Z</time>
      </trkpt>
      <trkpt lat="51.4583890" lon="6.8480000">
        <ele>34.0000000</ele>
        <time>2009-03-10T10:36:53Z</time>
      </trkpt>
      <trkpt lat="51.4583830" lon="6.8477570">
        <ele>34.0000000</ele>
        <time>2009-03-10T10:36:53Z</time>
      </trkpt>
      <trkpt lat="51.4583830" lon="6.8475050">
        <ele>34.0000000</ele>
        <time>2009-03-10T10:36:53Z</time>
      </trkpt>
      <trkpt lat="51.4583720" lon="6.8472610">
        <ele>34.0000000</ele>
        <time>2009-03-10T10:36:53Z</time>
      </trkpt>
      <trkpt lat="51.4583600" lon="6.8469730">
        <ele>34.0000000</ele>
        <time>2009-03-10T10:36:53Z</time>
      </trkpt>
      <trkpt lat="51.4583940" lon="6.8466660">
        <ele>34.0000000</ele>
        <time>2009-03-10T10:36:53Z</time>
      </trkpt>
      <trkpt lat="51.4584390" lon="6.8463510">
        <ele>34.0000000</ele>
        <time>2009-03-10T10:36:53Z</time>
      </trkpt>
      <trkpt lat="51.4585400" lon="6.8458010">
        <ele>33.0000000</ele>
        <time>2009-03-10T10:36:53Z</time>
      </trkpt>
      <trkpt lat="51.4587650" lon="6.8446380">
        <ele>33.0000000</ele>
        <time>2009-03-10T10:36:53Z</time>
      </trkpt>
      <trkpt lat="51.4567660" lon="6.8436200">
        <ele>32.0000000</ele>
        <time>2009-03-10T10:36:53Z</time>
      </trkpt>
      <trkpt lat="51.4566052" lon="6.8436139">
        <ele>24.0000000</ele>
        <time>2009-03-10T10:36:53Z</time>
      </trkpt>
      <trkpt lat="51.4566020" lon="6.8432540">
        <ele>32.0000000</ele>
        <time>2009-03-10T10:36:53Z</time>
      </trkpt>
      <trkpt lat="51.4566660" lon="6.8418830">
        <ele>31.0000000</ele>
        <time>2009-03-10T10:36:53Z</time>
      </trkpt>
      <trkpt lat="51.4558990" lon="6.8418928">
        <ele>31.0000000</ele>
        <time>2009-03-10T10:36:53Z</time>
      </trkpt>
      <trkpt lat="51.4557868" lon="6.8419071">
        <ele>28.0000000</ele>
        <time>2009-03-10T10:36:53Z</time>
      </trkpt>
      <trkpt lat="51.4552930" lon="6.8418040">
        <ele>31.0000000</ele>
        <time>2009-03-10T10:36:53Z</time>
      </trkpt>
      <trkpt lat="51.4551092" lon="6.8417367">
        <ele>26.0000000</ele>
        <time>2009-03-10T10:36:53Z</time>
      </trkpt>
      <trkpt lat="51.4548056" lon="6.8415800">
        <ele>26.0000000</ele>
        <time>2009-03-10T10:36:53Z</time>
      </trkpt>
      <trkpt lat="51.4548220" lon="6.8413940">
        <ele>30.0000000</ele>
        <time>2009-03-10T10:36:53Z</time>
      </trkpt>
      <trkpt lat="51.4549008" lon="6.8404915">
        <ele>26.0000000</ele>
        <time>2009-03-10T10:36:53Z</time>
      </trkpt>
      <trkpt lat="51.4549630" lon="6.8401230">
        <ele>30.0000000</ele>
        <time>2009-03-10T10:36:53Z</time>
      </trkpt>
      <trkpt lat="51.4549460" lon="6.8397260">
        <ele>29.0000000</ele>
        <time>2009-03-10T10:36:53Z</time>
      </trkpt>
      <trkpt lat="51.4549630" lon="6.8394830">
        <ele>29.0000000</ele>
        <time>2009-03-10T10:36:53Z</time>
      </trkpt>
      <trkpt lat="51.4550402" lon="6.8389059">
        <ele>29.0000000</ele>
        <time>2009-03-10T10:36:53Z</time>
      </trkpt>
      <trkpt lat="51.4550920" lon="6.8384190">
        <ele>29.0000000</ele>
        <time>2009-03-10T10:36:53Z</time>
      </trkpt>
      <trkpt lat="51.4553038" lon="6.8375035">
        <ele>26.0000000</ele>
        <time>2009-03-10T10:36:53Z</time>
      </trkpt>
      <trkpt lat="51.4553523" lon="6.8370873">
        <ele>26.0000000</ele>
        <time>2009-03-10T10:36:53Z</time>
      </trkpt>
      <trkpt lat="51.4553967" lon="6.8367524">
        <ele>28.0000000</ele>
        <time>2009-03-10T10:36:53Z</time>
      </trkpt>
      <trkpt lat="51.4553972" lon="6.8364734">
        <ele>26.0000000</ele>
        <time>2009-03-10T10:36:53Z</time>
      </trkpt>
      <trkpt lat="51.4553858" lon="6.8357093">
        <ele>26.0000000</ele>
        <time>2009-03-10T10:36:53Z</time>
      </trkpt>
      <trkpt lat="51.4553156" lon="6.8352537">
        <ele>26.0000000</ele>
        <time>2009-03-10T10:36:53Z</time>
      </trkpt>
      <trkpt lat="51.4553235" lon="6.8352218">
        <ele>26.0000000</ele>
        <time>2009-03-10T10:36:53Z</time>
      </trkpt>
      <trkpt lat="51.4553944" lon="6.8348002">
        <ele>31.0000000</ele>
        <time>2009-03-10T10:36:53Z</time>
      </trkpt>
      <trkpt lat="51.4555968" lon="6.8345027">
        <ele>26.0000000</ele>
        <time>2009-03-10T10:36:53Z</time>
      </trkpt>
      <trkpt lat="51.4555811" lon="6.8341076">
        <ele>26.0000000</ele>
        <time>2009-03-10T10:36:53Z</time>
      </trkpt>
      <trkpt lat="51.4552644" lon="6.8338481">
        <ele>26.0000000</ele>
        <time>2009-03-10T10:36:53Z</time>
      </trkpt>
      <trkpt lat="51.4551903" lon="6.8337931">
        <ele>26.0000000</ele>
        <time>2009-03-10T10:36:53Z</time>
      </trkpt>
      <trkpt lat="51.4550718" lon="6.8337672">
        <ele>26.0000000</ele>
        <time>2009-03-10T10:36:53Z</time>
      </trkpt>
      <trkpt lat="51.4548014" lon="6.8337351">
        <ele>26.0000000</ele>
        <time>2009-03-10T10:36:53Z</time>
      </trkpt>
      <trkpt lat="51.4545486" lon="6.8335896">
        <ele>26.0000000</ele>
        <time>2009-03-10T10:36:53Z</time>
      </trkpt>
      <trkpt lat="51.4537352" lon="6.8335292">
        <ele>28.0000000</ele>
        <time>2009-03-10T10:36:53Z</time>
      </trkpt>
      <trkpt lat="51.4535493" lon="6.8335065">
        <ele>28.0000000</ele>
        <time>2009-03-10T10:36:53Z</time>
      </trkpt>
      <trkpt lat="51.4534520" lon="6.8334710">
        <ele>28.0000000</ele>
        <time>2009-03-10T10:36:53Z</time>
      </trkpt>
      <trkpt lat="51.4532943" lon="6.8333971">
        <ele>29.0000000</ele>
        <time>2009-03-10T10:36:53Z</time>
      </trkpt>
      <trkpt lat="51.4535374" lon="6.8325579">
        <ele>27.0000000</ele>
        <time>2009-03-10T10:36:53Z</time>
      </trkpt>
      <trkpt lat="51.4537109" lon="6.8319110">
        <ele>27.0000000</ele>
        <time>2009-03-10T10:36:53Z</time>
      </trkpt>
      <trkpt lat="51.4535640" lon="6.8318120">
        <ele>27.0000000</ele>
        <time>2009-03-10T10:36:53Z</time>
      </trkpt>
      <trkpt lat="51.4532050" lon="6.8315960">
        <ele>27.0000000</ele>
        <time>2009-03-10T10:36:53Z</time>
      </trkpt>
      <trkpt lat="51.4531540" lon="6.8317040">
        <ele>27.0000000</ele>
        <time>2009-03-10T10:36:53Z</time>
      </trkpt>
      <trkpt lat="51.4529970" lon="6.8316050">
        <ele>27.0000000</ele>
        <time>2009-03-10T10:36:53Z</time>
      </trkpt>
      <trkpt lat="51.4527270" lon="6.8314160">
        <ele>28.0000000</ele>
        <time>2009-03-10T10:36:53Z</time>
      </trkpt>
      <trkpt lat="51.4523400" lon="6.8310550">
        <ele>29.0000000</ele>
        <time>2009-03-10T10:36:53Z</time>
      </trkpt>
      <trkpt lat="51.4519410" lon="6.8308750">
        <ele>28.0000000</ele>
        <time>2009-03-10T10:36:53Z</time>
      </trkpt>
      <trkpt lat="51.4517330" lon="6.8309200">
        <ele>28.0000000</ele>
        <time>2009-03-10T10:36:53Z</time>
      </trkpt>
      <trkpt lat="51.4516210" lon="6.8308930">
        <ele>28.0000000</ele>
        <time>2009-03-10T10:36:53Z</time>
      </trkpt>
      <trkpt lat="51.4515310" lon="6.8309020">
        <ele>28.0000000</ele>
        <time>2009-03-10T10:36:53Z</time>
      </trkpt>
      <trkpt lat="51.4513120" lon="6.8309470">
        <ele>28.0000000</ele>
        <time>2009-03-10T10:36:53Z</time>
      </trkpt>
      <trkpt lat="51.4510650" lon="6.8309830">
        <ele>28.0000000</ele>
        <time>2009-03-10T10:36:53Z</time>
      </trkpt>
      <trkpt lat="51.4507160" lon="6.8312090">
        <ele>29.0000000</ele>
        <time>2009-03-10T10:36:53Z</time>
      </trkpt>
      <trkpt lat="51.4505310" lon="6.8312360">
        <ele>30.0000000</ele>
        <time>2009-03-10T10:36:53Z</time>
      </trkpt>
      <trkpt lat="51.4503680" lon="6.8312810">
        <ele>31.0000000</ele>
        <time>2009-03-10T10:36:53Z</time>
      </trkpt>
      <trkpt lat="51.4502450" lon="6.8312630">
        <ele>29.0000000</ele>
        <time>2009-03-10T10:36:53Z</time>
      </trkpt>
      <trkpt lat="51.4500760" lon="6.8311090">
        <ele>28.0000000</ele>
        <time>2009-03-10T10:36:53Z</time>
      </trkpt>
      <trkpt lat="51.4499970" lon="6.8309740">
        <ele>28.0000000</ele>
        <time>2009-03-10T10:36:53Z</time>
      </trkpt>
      <trkpt lat="51.4498510" lon="6.8307040">
        <ele>29.0000000</ele>
        <time>2009-03-10T10:36:53Z</time>
      </trkpt>
      <trkpt lat="51.4497280" lon="6.8303790">
        <ele>29.0000000</ele>
        <time>2009-03-10T10:36:53Z</time>
      </trkpt>
      <trkpt lat="51.4496490" lon="6.8299740">
        <ele>28.0000000</ele>
        <time>2009-03-10T10:36:53Z</time>
      </trkpt>
      <trkpt lat="51.4496440" lon="6.8296040">
        <ele>28.0000000</ele>
        <time>2009-03-10T10:36:53Z</time>
      </trkpt>
      <trkpt lat="51.4496880" lon="6.8293340">
        <ele>28.0000000</ele>
        <time>2009-03-10T10:36:53Z</time>
      </trkpt>
      <trkpt lat="51.4497560" lon="6.8290990">
        <ele>28.0000000</ele>
        <time>2009-03-10T10:36:53Z</time>
      </trkpt>
      <trkpt lat="51.4498910" lon="6.8289550">
        <ele>28.0000000</ele>
        <time>2009-03-10T10:36:53Z</time>
      </trkpt>
      <trkpt lat="51.4500200" lon="6.8288290">
        <ele>28.0000000</ele>
        <time>2009-03-10T10:36:53Z</time>
      </trkpt>
      <trkpt lat="51.4499970" lon="6.8286670">
        <ele>28.0000000</ele>
        <time>2009-03-10T10:36:53Z</time>
      </trkpt>
      <trkpt lat="51.4498570" lon="6.8281620">
        <ele>33.0000000</ele>
        <time>2009-03-10T10:36:53Z</time>
      </trkpt>
      <trkpt lat="51.4503060" lon="6.8278560">
        <ele>32.0000000</ele>
        <time>2009-03-10T10:36:53Z</time>
      </trkpt>
      <trkpt lat="51.4508570" lon="6.8274770">
        <ele>32.0000000</ele>
        <time>2009-03-10T10:36:53Z</time>
      </trkpt>
      <trkpt lat="51.4511940" lon="6.8272340">
        <ele>28.0000000</ele>
        <time>2009-03-10T10:36:53Z</time>
      </trkpt>
      <trkpt lat="51.4514630" lon="6.8270530">
        <ele>31.0000000</ele>
        <time>2009-03-10T10:36:53Z</time>
      </trkpt>
      <trkpt lat="51.4517050" lon="6.8268640">
        <ele>31.0000000</ele>
        <time>2009-03-10T10:36:53Z</time>
      </trkpt>
      <trkpt lat="51.4519070" lon="6.8268370">
        <ele>30.0000000</ele>
        <time>2009-03-10T10:36:53Z</time>
      </trkpt>
      <trkpt lat="51.4521880" lon="6.8266390">
        <ele>30.0000000</ele>
        <time>2009-03-10T10:36:53Z</time>
      </trkpt>
      <trkpt lat="51.4525190" lon="6.8264040">
        <ele>30.0000000</ele>
        <time>2009-03-10T10:36:53Z</time>
      </trkpt>
      <trkpt lat="51.4529580" lon="6.8262600">
        <ele>30.0000000</ele>
        <time>2009-03-10T10:36:53Z</time>
      </trkpt>
      <trkpt lat="51.4532780" lon="6.8263050">
        <ele>29.0000000</ele>
        <time>2009-03-10T10:36:53Z</time>
      </trkpt>
      <trkpt lat="51.4534800" lon="6.8263500">
        <ele>30.0000000</ele>
        <time>2009-03-10T10:36:53Z</time>
      </trkpt>
      <trkpt lat="51.4537160" lon="6.8264130">
        <ele>31.0000000</ele>
        <time>2009-03-10T10:36:53Z</time>
      </trkpt>
      <trkpt lat="51.4538110" lon="6.8260530">
        <ele>34.0000000</ele>
        <time>2009-03-10T10:36:53Z</time>
      </trkpt>
      <trkpt lat="51.4538836" lon="6.8257582">
        <ele>28.0000000</ele>
        <time>2009-03-10T10:36:53Z</time>
      </trkpt>
      <trkpt lat="51.4539107" lon="6.8254015">
        <ele>28.0000000</ele>
        <time>2009-03-10T10:36:53Z</time>
      </trkpt>
      <trkpt lat="51.4538950" lon="6.8252150">
        <ele>30.0000000</ele>
        <time>2009-03-10T10:36:53Z</time>
      </trkpt>
      <trkpt lat="51.4539850" lon="6.8249440">
        <ele>30.0000000</ele>
        <time>2009-03-10T10:36:53Z</time>
      </trkpt>
      <trkpt lat="51.4541627" lon="6.8247418">
        <ele>29.0000000</ele>
        <time>2009-03-10T10:36:53Z</time>
      </trkpt>
      <trkpt lat="51.4545490" lon="6.8242061">
        <ele>27.0000000</ele>
        <time>2009-03-10T10:36:53Z</time>
      </trkpt>
      <trkpt lat="51.4547484" lon="6.8238997">
        <ele>26.0000000</ele>
        <time>2009-03-10T10:36:53Z</time>
      </trkpt>
      <trkpt lat="51.4551567" lon="6.8233360">
        <ele>26.0000000</ele>
        <time>2009-03-10T10:36:53Z</time>
      </trkpt>
      <trkpt lat="51.4556563" lon="6.8225430">
        <ele>26.0000000</ele>
        <time>2009-03-10T10:36:53Z</time>
      </trkpt>
      <trkpt lat="51.4559184" lon="6.8221301">
        <ele>27.0000000</ele>
        <time>2009-03-10T10:36:53Z</time>
      </trkpt>
      <trkpt lat="51.4561084" lon="6.8217657">
        <ele>26.0000000</ele>
        <time>2009-03-10T10:36:53Z</time>
      </trkpt>
      <trkpt lat="51.4562948" lon="6.8212125">
        <ele>27.0000000</ele>
        <time>2009-03-10T10:36:53Z</time>
      </trkpt>
      <trkpt lat="51.4563396" lon="6.8210529">
        <ele>27.0000000</ele>
        <time>2009-03-10T10:36:53Z</time>
      </trkpt>
      <trkpt lat="51.4564720" lon="6.8206148">
        <ele>28.0000000</ele>
        <time>2009-03-10T10:36:53Z</time>
      </trkpt>
      <trkpt lat="51.4566952" lon="6.8197719">
        <ele>30.0000000</ele>
        <time>2009-03-10T10:36:53Z</time>
      </trkpt>
      <trkpt lat="51.4567572" lon="6.8194765">
        <ele>26.0000000</ele>
        <time>2009-03-10T10:36:53Z</time>
      </trkpt>
      <trkpt lat="51.4568932" lon="6.8189347">
        <ele>28.0000000</ele>
        <time>2009-03-10T10:36:53Z</time>
      </trkpt>
      <trkpt lat="51.4569514" lon="6.8187385">
        <ele>28.0000000</ele>
        <time>2009-03-10T10:36:53Z</time>
      </trkpt>
      <trkpt lat="51.4570030" lon="6.8186461">
        <ele>29.0000000</ele>
        <time>2009-03-10T10:36:53Z</time>
      </trkpt>
      <trkpt lat="51.4570462" lon="6.8185496">
        <ele>28.0000000</ele>
        <time>2009-03-10T10:36:53Z</time>
      </trkpt>
      <trkpt lat="51.4571140" lon="6.8183730">
        <ele>29.0000000</ele>
        <time>2009-03-10T10:36:53Z</time>
      </trkpt>
      <trkpt lat="51.4571920" lon="6.8182470">
        <ele>31.0000000</ele>
        <time>2009-03-10T10:36:53Z</time>
      </trkpt>
      <trkpt lat="51.4573050" lon="6.8178780">
        <ele>31.0000000</ele>
        <time>2009-03-10T10:36:53Z</time>
      </trkpt>
      <trkpt lat="51.4574340" lon="6.8172020">
        <ele>27.0000000</ele>
        <time>2009-03-10T10:36:53Z</time>
      </trkpt>
      <trkpt lat="51.4575350" lon="6.8166070">
        <ele>28.0000000</ele>
        <time>2009-03-10T10:36:53Z</time>
      </trkpt>
      <trkpt lat="51.4576470" lon="6.8159220">
        <ele>28.0000000</ele>
        <time>2009-03-10T10:36:53Z</time>
      </trkpt>
      <trkpt lat="51.4577090" lon="6.8153990">
        <ele>30.0000000</ele>
        <time>2009-03-10T10:36:53Z</time>
      </trkpt>
      <trkpt lat="51.4577540" lon="6.8146690">
        <ele>28.0000000</ele>
        <time>2009-03-10T10:36:53Z</time>
      </trkpt>
      <trkpt lat="51.4577600" lon="6.8141460">
        <ele>29.0000000</ele>
        <time>2009-03-10T10:36:53Z</time>
      </trkpt>
      <trkpt lat="51.4577540" lon="6.8133530">
        <ele>29.0000000</ele>
        <time>2009-03-10T10:36:53Z</time>
      </trkpt>
      <trkpt lat="51.4577370" lon="6.8129110">
        <ele>28.0000000</ele>
        <time>2009-03-10T10:36:53Z</time>
      </trkpt>
      <trkpt lat="51.4577370" lon="6.8129110">
        <ele>28.0000000</ele>
        <time>2009-03-10T10:36:53Z</time>
      </trkpt>
      <trkpt lat="51.4577150" lon="6.8126680">
        <ele>30.0000000</ele>
        <time>2009-03-10T10:36:53Z</time>
      </trkpt>
      <trkpt lat="51.4577650" lon="6.8124880">
        <ele>31.0000000</ele>
        <time>2009-03-10T10:36:53Z</time>
      </trkpt>
      <trkpt lat="51.4578720" lon="6.8123980">
        <ele>30.0000000</ele>
        <time>2009-03-10T10:36:53Z</time>
      </trkpt>
      <trkpt lat="51.4579950" lon="6.8123440">
        <ele>31.0000000</ele>
        <time>2009-03-10T10:36:53Z</time>
      </trkpt>
      <trkpt lat="51.4582140" lon="6.8123350">
        <ele>31.0000000</ele>
        <time>2009-03-10T10:36:53Z</time>
      </trkpt>
      <trkpt lat="51.4583770" lon="6.8123710">
        <ele>31.0000000</ele>
        <time>2009-03-10T10:36:53Z</time>
      </trkpt>
      <trkpt lat="51.4587760" lon="6.8125960">
        <ele>31.0000000</ele>
        <time>2009-03-10T10:36:53Z</time>
      </trkpt>
      <trkpt lat="51.4589670" lon="6.8127220">
        <ele>31.0000000</ele>
        <time>2009-03-10T10:36:53Z</time>
      </trkpt>
      <trkpt lat="51.4591190" lon="6.8128660">
        <ele>31.0000000</ele>
        <time>2009-03-10T10:36:53Z</time>
      </trkpt>
      <trkpt lat="51.4593490" lon="6.8131460">
        <ele>32.0000000</ele>
        <time>2009-03-10T10:36:53Z</time>
      </trkpt>
      <trkpt lat="51.4595450" lon="6.8133800">
        <ele>32.0000000</ele>
        <time>2009-03-10T10:36:53Z</time>
      </trkpt>
      <trkpt lat="51.4597250" lon="6.8135240">
        <ele>31.0000000</ele>
        <time>2009-03-10T10:36:53Z</time>
      </trkpt>
      <trkpt lat="51.4599070" lon="6.8135544">
        <ele>31.0000000</ele>
        <time>2009-03-10T10:36:53Z</time>
      </trkpt>
      <trkpt lat="51.4600460" lon="6.8137772">
        <ele>31.0000000</ele>
        <time>2009-03-10T10:36:53Z</time>
      </trkpt>
      <trkpt lat="51.4600845" lon="6.8134334">
        <ele>29.0000000</ele>
        <time>2009-03-10T10:36:53Z</time>
      </trkpt>
      <trkpt lat="51.4601070" lon="6.8130380">
        <ele>32.0000000</ele>
        <time>2009-03-10T10:36:53Z</time>
      </trkpt>
      <trkpt lat="51.4600790" lon="6.8126590">
        <ele>32.0000000</ele>
        <time>2009-03-10T10:36:53Z</time>
      </trkpt>
      <trkpt lat="51.4600060" lon="6.8121810">
        <ele>33.0000000</ele>
        <time>2009-03-10T10:36:53Z</time>
      </trkpt>
      <trkpt lat="51.4599330" lon="6.8116950">
        <ele>32.0000000</ele>
        <time>2009-03-10T10:36:53Z</time>
      </trkpt>
      <trkpt lat="51.4599220" lon="6.8113160">
        <ele>32.0000000</ele>
        <time>2009-03-10T10:36:53Z</time>
      </trkpt>
      <trkpt lat="51.4599550" lon="6.8109460">
        <ele>31.0000000</ele>
        <time>2009-03-10T10:36:53Z</time>
      </trkpt>
      <trkpt lat="51.4599950" lon="6.8107570">
        <ele>31.0000000</ele>
        <time>2009-03-10T10:36:53Z</time>
      </trkpt>
      <trkpt lat="51.4600960" lon="6.8102160">
        <ele>32.0000000</ele>
        <time>2009-03-10T10:36:53Z</time>
      </trkpt>
      <trkpt lat="51.4603990" lon="6.8095220">
        <ele>30.0000000</ele>
        <time>2009-03-10T10:36:53Z</time>
      </trkpt>
      <trkpt lat="51.4605000" lon="6.8092160">
        <ele>29.0000000</ele>
        <time>2009-03-10T10:36:53Z</time>
      </trkpt>
      <trkpt lat="51.4606460" lon="6.8086750">
        <ele>29.0000000</ele>
        <time>2009-03-10T10:36:53Z</time>
      </trkpt>
      <trkpt lat="51.4607870" lon="6.8082330">
        <ele>31.0000000</ele>
        <time>2009-03-10T10:36:53Z</time>
      </trkpt>
      <trkpt lat="51.4610950" lon="6.8079180">
        <ele>31.0000000</ele>
        <time>2009-03-10T10:36:53Z</time>
      </trkpt>
      <trkpt lat="51.4614100" lon="6.8074130">
        <ele>31.0000000</ele>
        <time>2009-03-10T10:36:53Z</time>
      </trkpt>
      <trkpt lat="51.4616137" lon="6.8075835">
        <ele>29.0000000</ele>
        <time>2009-03-10T10:36:53Z</time>
      </trkpt>
      <trkpt lat="51.4616273" lon="6.8075559">
        <ele>30.0000000</ele>
        <time>2009-03-10T10:36:53Z</time>
      </trkpt>
      <trkpt lat="51.4617237" lon="6.8072993">
        <ele>29.0000000</ele>
        <time>2009-03-10T10:36:53Z</time>
      </trkpt>
      <trkpt lat="51.4621236" lon="6.8062993">
        <ele>29.0000000</ele>
        <time>2009-03-10T10:36:53Z</time>
      </trkpt>
      <trkpt lat="51.4619880" lon="6.8057100">
        <ele>30.0000000</ele>
        <time>2009-03-10T10:36:53Z</time>
      </trkpt>
      <trkpt lat="51.4618140" lon="6.8049440">
        <ele>30.0000000</ele>
        <time>2009-03-10T10:36:53Z</time>
      </trkpt>
      <trkpt lat="51.4621340" lon="6.8051420">
        <ele>29.0000000</ele>
        <time>2009-03-10T10:36:53Z</time>
      </trkpt>
      <trkpt lat="51.4625500" lon="6.8054030">
        <ele>29.0000000</ele>
        <time>2009-03-10T10:36:53Z</time>
      </trkpt>
      <trkpt lat="51.4629150" lon="6.8056020">
        <ele>28.0000000</ele>
        <time>2009-03-10T10:36:53Z</time>
      </trkpt>
      <trkpt lat="51.4632350" lon="6.8057460">
        <ele>27.0000000</ele>
        <time>2009-03-10T10:36:53Z</time>
      </trkpt>
      <trkpt lat="51.4638516" lon="6.8062704">
        <ele>27.0000000</ele>
        <time>2009-03-10T10:36:53Z</time>
      </trkpt>
      <trkpt lat="51.4640134" lon="6.8065101">
        <ele>29.0000000</ele>
        <time>2009-03-10T10:36:53Z</time>
      </trkpt>
      <trkpt lat="51.4641267" lon="6.8071571">
        <ele>27.0000000</ele>
        <time>2009-03-10T10:36:53Z</time>
      </trkpt>
      <trkpt lat="51.4641865" lon="6.8073522">
        <ele>28.0000000</ele>
        <time>2009-03-10T10:36:53Z</time>
      </trkpt>
      <trkpt lat="51.4644467" lon="6.8080371">
        <ele>29.0000000</ele>
        <time>2009-03-10T10:36:53Z</time>
      </trkpt>
      <trkpt lat="51.4653311" lon="6.8066404">
        <ele>29.0000000</ele>
        <time>2009-03-10T10:36:53Z</time>
      </trkpt>
      <trkpt lat="51.4658446" lon="6.8058464">
        <ele>22.0000000</ele>
        <time>2009-03-10T10:36:53Z</time>
      </trkpt>
      <trkpt lat="51.4662431" lon="6.8052153">
        <ele>30.0000000</ele>
        <time>2009-03-10T10:36:53Z</time>
      </trkpt>
      <trkpt lat="51.4662841" lon="6.8051503">
        <ele>22.0000000</ele>
        <time>2009-03-10T10:36:53Z</time>
      </trkpt>
      <trkpt lat="51.4669124" lon="6.8040358">
        <ele>30.0000000</ele>
        <time>2009-03-10T10:36:53Z</time>
      </trkpt>
      <trkpt lat="51.4671362" lon="6.8036786">
        <ele>22.0000000</ele>
        <time>2009-03-10T10:36:53Z</time>
      </trkpt>
      <trkpt lat="51.4671725" lon="6.8035193">
        <ele>31.0000000</ele>
        <time>2009-03-10T10:36:53Z</time>
      </trkpt>
      <trkpt lat="51.4673066" lon="6.8030270">
        <ele>30.0000000</ele>
        <time>2009-03-10T10:36:53Z</time>
      </trkpt>
      <trkpt lat="51.4674740" lon="6.8023575">
        <ele>30.0000000</ele>
        <time>2009-03-10T10:36:53Z</time>
      </trkpt>
      <trkpt lat="51.4678501" lon="6.8026318">
        <ele>22.0000000</ele>
        <time>2009-03-10T10:36:53Z</time>
      </trkpt>
      <trkpt lat="51.4680420" lon="6.8025730">
        <ele>30.0000000</ele>
        <time>2009-03-10T10:36:53Z</time>
      </trkpt>
      <trkpt lat="51.4687830" lon="6.8027260">
        <ele>27.0000000</ele>
        <time>2009-03-10T10:36:53Z</time>
      </trkpt>
      <trkpt lat="51.4693110" lon="6.8029430">
        <ele>26.0000000</ele>
        <time>2009-03-10T10:36:53Z</time>
      </trkpt>
      <trkpt lat="51.4697320" lon="6.8032310">
        <ele>29.0000000</ele>
        <time>2009-03-10T10:36:53Z</time>
      </trkpt>
      <trkpt lat="51.4703100" lon="6.8036010">
        <ele>24.0000000</ele>
        <time>2009-03-10T10:36:53Z</time>
      </trkpt>
      <trkpt lat="51.4707760" lon="6.8040690">
        <ele>25.0000000</ele>
        <time>2009-03-10T10:36:53Z</time>
      </trkpt>
      <trkpt lat="51.4709720" lon="6.8042680">
        <ele>25.0000000</ele>
        <time>2009-03-10T10:36:53Z</time>
      </trkpt>
      <trkpt lat="51.4712140" lon="6.8045470">
        <ele>25.0000000</ele>
        <time>2009-03-10T10:36:53Z</time>
      </trkpt>
      <trkpt lat="51.4715730" lon="6.8049980">
        <ele>25.0000000</ele>
        <time>2009-03-10T10:36:53Z</time>
      </trkpt>
      <trkpt lat="51.4718930" lon="6.8054300">
        <ele>25.0000000</ele>
        <time>2009-03-10T10:36:53Z</time>
      </trkpt>
      <trkpt lat="51.4722360" lon="6.8058630">
        <ele>24.0000000</ele>
        <time>2009-03-10T10:36:53Z</time>
      </trkpt>
      <trkpt lat="51.4727470" lon="6.8065030">
        <ele>24.0000000</ele>
        <time>2009-03-10T10:36:53Z</time>
      </trkpt>
      <trkpt lat="51.4730050" lon="6.8068540">
        <ele>25.0000000</ele>
        <time>2009-03-10T10:36:53Z</time>
      </trkpt>
      <trkpt lat="51.4733810" lon="6.8073770">
        <ele>25.0000000</ele>
        <time>2009-03-10T10:36:53Z</time>
      </trkpt>
      <trkpt lat="51.4737960" lon="6.8079450">
        <ele>27.0000000</ele>
        <time>2009-03-10T10:36:53Z</time>
      </trkpt>
      <trkpt lat="51.4742340" lon="6.8085310">
        <ele>25.0000000</ele>
        <time>2009-03-10T10:36:53Z</time>
      </trkpt>
      <trkpt lat="51.4744480" lon="6.8088100">
        <ele>25.0000000</ele>
        <time>2009-03-10T10:36:53Z</time>
      </trkpt>
      <trkpt lat="51.4746610" lon="6.8090810">
        <ele>26.0000000</ele>
        <time>2009-03-10T10:36:53Z</time>
      </trkpt>
      <trkpt lat="51.4749590" lon="6.8095310">
        <ele>25.0000000</ele>
        <time>2009-03-10T10:36:53Z</time>
      </trkpt>
      <trkpt lat="51.4755420" lon="6.8104060">
        <ele>31.0000000</ele>
        <time>2009-03-10T10:36:53Z</time>
      </trkpt>
      <trkpt lat="51.4757890" lon="6.8107930">
        <ele>25.0000000</ele>
        <time>2009-03-10T10:36:53Z</time>
      </trkpt>
      <trkpt lat="51.4761880" lon="6.8114420">
        <ele>25.0000000</ele>
        <time>2009-03-10T10:36:53Z</time>
      </trkpt>
      <trkpt lat="51.4763170" lon="6.8116500">
        <ele>25.0000000</ele>
        <time>2009-03-10T10:36:53Z</time>
      </trkpt>
      <trkpt lat="51.4769740" lon="6.8127850">
        <ele>25.0000000</ele>
        <time>2009-03-10T10:36:53Z</time>
      </trkpt>
      <trkpt lat="51.4774010" lon="6.8135330">
        <ele>25.0000000</ele>
        <time>2009-03-10T10:36:53Z</time>
      </trkpt>
      <trkpt lat="51.4775070" lon="6.8137140">
        <ele>25.0000000</ele>
        <time>2009-03-10T10:36:53Z</time>
      </trkpt>
      <trkpt lat="51.4778100" lon="6.8142450">
        <ele>33.0000000</ele>
        <time>2009-03-10T10:36:53Z</time>
      </trkpt>
      <trkpt lat="51.4780130" lon="6.8145970">
        <ele>25.0000000</ele>
        <time>2009-03-10T10:36:53Z</time>
      </trkpt>
      <trkpt lat="51.4781300" lon="6.8148220">
        <ele>25.0000000</ele>
        <time>2009-03-10T10:36:53Z</time>
      </trkpt>
      <trkpt lat="51.4781360" lon="6.8149030">
        <ele>25.0000000</ele>
        <time>2009-03-10T10:36:53Z</time>
      </trkpt>
      <trkpt lat="51.4781200" lon="6.8149966">
        <ele>25.0000000</ele>
        <time>2009-03-10T10:36:53Z</time>
      </trkpt>
      <trkpt lat="51.4780910" lon="6.8151830">
        <ele>25.0000000</ele>
        <time>2009-03-10T10:36:53Z</time>
      </trkpt>
      <trkpt lat="51.4781590" lon="6.8153810">
        <ele>25.0000000</ele>
        <time>2009-03-10T10:36:53Z</time>
      </trkpt>
      <trkpt lat="51.4784560" lon="6.8161470">
        <ele>25.0000000</ele>
        <time>2009-03-10T10:36:53Z</time>
      </trkpt>
      <trkpt lat="51.4786020" lon="6.8164900">
        <ele>25.0000000</ele>
        <time>2009-03-10T10:36:53Z</time>
      </trkpt>
      <trkpt lat="51.4788040" lon="6.8169760">
        <ele>25.0000000</ele>
        <time>2009-03-10T10:36:53Z</time>
      </trkpt>
      <trkpt lat="51.4791130" lon="6.8175440">
        <ele>25.0000000</ele>
        <time>2009-03-10T10:36:53Z</time>
      </trkpt>
      <trkpt lat="51.4792920" lon="6.8178780">
        <ele>25.0000000</ele>
        <time>2009-03-10T10:36:53Z</time>
      </trkpt>
      <trkpt lat="51.4798820" lon="6.8189590">
        <ele>29.0000000</ele>
        <time>2009-03-10T10:36:53Z</time>
      </trkpt>
      <trkpt lat="51.4799940" lon="6.8191760">
        <ele>29.0000000</ele>
        <time>2009-03-10T10:36:53Z</time>
      </trkpt>
      <trkpt lat="51.4803030" lon="6.8197620">
        <ele>29.0000000</ele>
        <time>2009-03-10T10:36:53Z</time>
      </trkpt>
      <trkpt lat="51.4806280" lon="6.8203740">
        <ele>29.0000000</ele>
        <time>2009-03-10T10:36:53Z</time>
      </trkpt>
      <trkpt lat="51.4814140" lon="6.8192930">
        <ele>25.0000000</ele>
        <time>2009-03-10T10:36:53Z</time>
      </trkpt>
      <trkpt lat="51.4817060" lon="6.8188420">
        <ele>31.0000000</ele>
        <time>2009-03-10T10:36:53Z</time>
      </trkpt>
      <trkpt lat="51.4817740" lon="6.8189860">
        <ele>31.0000000</ele>
        <time>2009-03-10T10:36:53Z</time>
      </trkpt>
      <trkpt lat="51.4823910" lon="6.8201040">
        <ele>32.0000000</ele>
        <time>2009-03-10T10:36:53Z</time>
      </trkpt>
      <trkpt lat="51.4825140" lon="6.8203470">
        <ele>31.0000000</ele>
        <time>2009-03-10T10:36:53Z</time>
      </trkpt>
      <trkpt lat="51.4830030" lon="6.8213030">
        <ele>31.0000000</ele>
        <time>2009-03-10T10:36:53Z</time>
      </trkpt>
      <trkpt lat="51.4833850" lon="6.8220240">
        <ele>31.0000000</ele>
        <time>2009-03-10T10:36:53Z</time>
      </trkpt>
      <trkpt lat="51.4835590" lon="6.8223750">
        <ele>31.0000000</ele>
        <time>2009-03-10T10:36:53Z</time>
      </trkpt>
      <trkpt lat="51.4837210" lon="6.8226910">
        <ele>31.0000000</ele>
        <time>2009-03-10T10:36:53Z</time>
      </trkpt>
      <trkpt lat="51.4837210" lon="6.8226910">
        <ele>31.0000000</ele>
        <time>2009-03-10T10:36:53Z</time>
      </trkpt>
      <trkpt lat="51.4839290" lon="6.8230970">
        <ele>31.0000000</ele>
        <time>2009-03-10T10:36:53Z</time>
      </trkpt>
      <trkpt lat="51.4840360" lon="6.8233040">
        <ele>31.0000000</ele>
        <time>2009-03-10T10:36:53Z</time>
      </trkpt>
      <trkpt lat="51.4840970" lon="6.8235020">
        <ele>31.0000000</ele>
        <time>2009-03-10T10:36:53Z</time>
      </trkpt>
      <trkpt lat="51.4842150" lon="6.8237910">
        <ele>31.0000000</ele>
        <time>2009-03-10T10:36:53Z</time>
      </trkpt>
      <trkpt lat="51.4844620" lon="6.8245480">
        <ele>31.0000000</ele>
        <time>2009-03-10T10:36:53Z</time>
      </trkpt>
      <trkpt lat="51.4845410" lon="6.8247280">
        <ele>31.0000000</ele>
        <time>2009-03-10T10:36:53Z</time>
      </trkpt>
      <trkpt lat="51.4846250" lon="6.8247910">
        <ele>31.0000000</ele>
        <time>2009-03-10T10:36:53Z</time>
      </trkpt>
      <trkpt lat="51.4848050" lon="6.8248360">
        <ele>31.0000000</ele>
        <time>2009-03-10T10:36:53Z</time>
      </trkpt>
      <trkpt lat="51.4849280" lon="6.8248360">
        <ele>31.0000000</ele>
        <time>2009-03-10T10:36:53Z</time>
      </trkpt>
      <trkpt lat="51.4850010" lon="6.8248720">
        <ele>31.0000000</ele>
        <time>2009-03-10T10:36:53Z</time>
      </trkpt>
      <trkpt lat="51.4851250" lon="6.8249530">
        <ele>31.0000000</ele>
        <time>2009-03-10T10:36:53Z</time>
      </trkpt>
      <trkpt lat="51.4851750" lon="6.8250700">
        <ele>31.0000000</ele>
        <time>2009-03-10T10:36:53Z</time>
      </trkpt>
      <trkpt lat="51.4851920" lon="6.8252420">
        <ele>31.0000000</ele>
        <time>2009-03-10T10:36:53Z</time>
      </trkpt>
      <trkpt lat="51.4852590" lon="6.8259720">
        <ele>33.0000000</ele>
        <time>2009-03-10T10:36:53Z</time>
      </trkpt>
      <trkpt lat="51.4853550" lon="6.8263590">
        <ele>35.0000000</ele>
        <time>2009-03-10T10:36:53Z</time>
      </trkpt>
      <trkpt lat="51.4853940" lon="6.8264860">
        <ele>36.0000000</ele>
        <time>2009-03-10T10:36:53Z</time>
      </trkpt>
      <trkpt lat="51.4857640" lon="6.8261520">
        <ele>36.0000000</ele>
        <time>2009-03-10T10:36:53Z</time>
      </trkpt>
      <trkpt lat="51.4860560" lon="6.8259900">
        <ele>35.0000000</ele>
        <time>2009-03-10T10:36:53Z</time>
      </trkpt>
      <trkpt lat="51.4866900" lon="6.8258460">
        <ele>33.0000000</ele>
        <time>2009-03-10T10:36:53Z</time>
      </trkpt>
      <trkpt lat="51.4870380" lon="6.8258640">
        <ele>31.0000000</ele>
        <time>2009-03-10T10:36:53Z</time>
      </trkpt>
      <trkpt lat="51.4873580" lon="6.8259090">
        <ele>30.0000000</ele>
        <time>2009-03-10T10:36:53Z</time>
      </trkpt>
      <trkpt lat="51.4874370" lon="6.8255390">
        <ele>29.0000000</ele>
        <time>2009-03-10T10:36:53Z</time>
      </trkpt>
      <trkpt lat="51.4875210" lon="6.8250430">
        <ele>29.0000000</ele>
        <time>2009-03-10T10:36:53Z</time>
      </trkpt>
      <trkpt lat="51.4875600" lon="6.8245930">
        <ele>29.0000000</ele>
        <time>2009-03-10T10:36:53Z</time>
      </trkpt>
      <trkpt lat="51.4875600" lon="6.8239980">
        <ele>29.0000000</ele>
        <time>2009-03-10T10:36:53Z</time>
      </trkpt>
      <trkpt lat="51.4875550" lon="6.8234300">
        <ele>28.0000000</ele>
        <time>2009-03-10T10:36:53Z</time>
      </trkpt>
      <trkpt lat="51.4879310" lon="6.8235020">
        <ele>29.0000000</ele>
        <time>2009-03-10T10:36:53Z</time>
      </trkpt>
      <trkpt lat="51.4881100" lon="6.8234030">
        <ele>28.0000000</ele>
        <time>2009-03-10T10:36:53Z</time>
      </trkpt>
      <trkpt lat="51.4884640" lon="6.8234390">
        <ele>28.0000000</ele>
        <time>2009-03-10T10:36:53Z</time>
      </trkpt>
      <trkpt lat="51.4887220" lon="6.8234750">
        <ele>28.0000000</ele>
        <time>2009-03-10T10:36:53Z</time>
      </trkpt>
      <trkpt lat="51.4893560" lon="6.8233130">
        <ele>29.0000000</ele>
        <time>2009-03-10T10:36:53Z</time>
      </trkpt>
      <trkpt lat="51.4895250" lon="6.8232500">
        <ele>29.0000000</ele>
        <time>2009-03-10T10:36:53Z</time>
      </trkpt>
      <trkpt lat="51.4896820" lon="6.8232590">
        <ele>29.0000000</ele>
        <time>2009-03-10T10:36:53Z</time>
      </trkpt>
      <trkpt lat="51.4898220" lon="6.8232860">
        <ele>29.0000000</ele>
        <time>2009-03-10T10:36:53Z</time>
      </trkpt>
      <trkpt lat="51.4900130" lon="6.8233580">
        <ele>29.0000000</ele>
        <time>2009-03-10T10:36:53Z</time>
      </trkpt>
      <trkpt lat="51.4901310" lon="6.8234390">
        <ele>29.0000000</ele>
        <time>2009-03-10T10:36:53Z</time>
      </trkpt>
      <trkpt lat="51.4901870" lon="6.8234210">
        <ele>29.0000000</ele>
        <time>2009-03-10T10:36:53Z</time>
      </trkpt>
      <trkpt lat="51.4902396" lon="6.8232181">
        <ele>26.0000000</ele>
        <time>2009-03-10T10:36:53Z</time>
      </trkpt>
      <trkpt lat="51.4903330" lon="6.8232500">
        <ele>29.0000000</ele>
        <time>2009-03-10T10:36:53Z</time>
      </trkpt>
      <trkpt lat="51.4915790" lon="6.8239440">
        <ele>28.0000000</ele>
        <time>2009-03-10T10:36:53Z</time>
      </trkpt>
      <trkpt lat="51.4917810" lon="6.8240610">
        <ele>28.0000000</ele>
        <time>2009-03-10T10:36:53Z</time>
      </trkpt>
      <trkpt lat="51.4919880" lon="6.8241510">
        <ele>28.0000000</ele>
        <time>2009-03-10T10:36:53Z</time>
      </trkpt>
      <trkpt lat="51.4920280" lon="6.8238810">
        <ele>28.0000000</ele>
        <time>2009-03-10T10:36:53Z</time>
      </trkpt>
      <trkpt lat="51.4920160" lon="6.8234750">
        <ele>27.0000000</ele>
        <time>2009-03-10T10:36:53Z</time>
      </trkpt>
      <trkpt lat="51.4921290" lon="6.8235200">
        <ele>27.0000000</ele>
        <time>2009-03-10T10:36:53Z</time>
      </trkpt>
      <trkpt lat="51.4924260" lon="6.8237090">
        <ele>28.0000000</ele>
        <time>2009-03-10T10:36:53Z</time>
      </trkpt>
      <trkpt lat="51.4931780" lon="6.8241870">
        <ele>28.0000000</ele>
        <time>2009-03-10T10:36:53Z</time>
      </trkpt>
      <trkpt lat="51.4936100" lon="6.8244850">
        <ele>28.0000000</ele>
        <time>2009-03-10T10:36:53Z</time>
      </trkpt>
      <trkpt lat="51.4940420" lon="6.8248180">
        <ele>28.0000000</ele>
        <time>2009-03-10T10:36:53Z</time>
      </trkpt>
      <trkpt lat="51.4942156" lon="6.8249962">
        <ele>28.0000000</ele>
        <time>2009-03-10T10:36:53Z</time>
      </trkpt>
      <trkpt lat="51.4945140" lon="6.8251060">
        <ele>29.0000000</ele>
        <time>2009-03-10T10:36:53Z</time>
      </trkpt>
      <trkpt lat="51.4946650" lon="6.8251520">
        <ele>29.0000000</ele>
        <time>2009-03-10T10:36:53Z</time>
      </trkpt>
      <trkpt lat="51.4949588" lon="6.8252174">
        <ele>29.0000000</ele>
        <time>2009-03-10T10:36:53Z</time>
      </trkpt>
      <trkpt lat="51.4961958" lon="6.8247848">
        <ele>32.0000000</ele>
        <time>2009-03-10T10:36:53Z</time>
      </trkpt>
      <trkpt lat="51.4966872" lon="6.8246083">
        <ele>24.0000000</ele>
        <time>2009-03-10T10:36:53Z</time>
      </trkpt>
      <trkpt lat="51.4973881" lon="6.8243678">
        <ele>31.0000000</ele>
        <time>2009-03-10T10:36:53Z</time>
      </trkpt>
      <trkpt lat="51.4976397" lon="6.8242928">
        <ele>25.0000000</ele>
        <time>2009-03-10T10:36:53Z</time>
      </trkpt>
      <trkpt lat="51.4981616" lon="6.8240969">
        <ele>31.0000000</ele>
        <time>2009-03-10T10:36:53Z</time>
      </trkpt>
      <trkpt lat="51.4985051" lon="6.8239814">
        <ele>31.0000000</ele>
        <time>2009-03-10T10:36:53Z</time>
      </trkpt>
      <trkpt lat="51.4988623" lon="6.8238428">
        <ele>29.0000000</ele>
        <time>2009-03-10T10:36:53Z</time>
      </trkpt>
      <trkpt lat="51.4993820" lon="6.8236785">
        <ele>32.0000000</ele>
        <time>2009-03-10T10:36:53Z</time>
      </trkpt>
      <trkpt lat="51.4995969" lon="6.8235962">
        <ele>29.0000000</ele>
        <time>2009-03-10T10:36:53Z</time>
      </trkpt>
      <trkpt lat="51.5005157" lon="6.8232868">
        <ele>32.0000000</ele>
        <time>2009-03-10T10:36:53Z</time>
      </trkpt>
      <trkpt lat="51.5006752" lon="6.8232476">
        <ele>32.0000000</ele>
        <time>2009-03-10T10:36:53Z</time>
      </trkpt>
      <trkpt lat="51.5007972" lon="6.8237686">
        <ele>22.0000000</ele>
        <time>2009-03-10T10:36:53Z</time>
      </trkpt>
      <trkpt lat="51.5009388" lon="6.8244283">
        <ele>32.0000000</ele>
        <time>2009-03-10T10:36:53Z</time>
      </trkpt>
      <trkpt lat="51.5010676" lon="6.8250076">
        <ele>20.0000000</ele>
        <time>2009-03-10T10:36:53Z</time>
      </trkpt>
      <trkpt lat="51.5013375" lon="6.8262285">
        <ele>31.0000000</ele>
        <time>2009-03-10T10:36:53Z</time>
      </trkpt>
      <trkpt lat="51.5013870" lon="6.8261880">
        <ele>31.0000000</ele>
        <time>2009-03-10T10:36:53Z</time>
      </trkpt>
      <trkpt lat="51.5015000" lon="6.8261250">
        <ele>31.0000000</ele>
        <time>2009-03-10T10:36:53Z</time>
      </trkpt>
      <trkpt lat="51.5021280" lon="6.8257460">
        <ele>31.0000000</ele>
        <time>2009-03-10T10:36:53Z</time>
      </trkpt>
      <trkpt lat="51.5029750" lon="6.8252420">
        <ele>31.0000000</ele>
        <time>2009-03-10T10:36:53Z</time>
      </trkpt>
      <trkpt lat="51.5032330" lon="6.8250970">
        <ele>31.0000000</ele>
        <time>2009-03-10T10:36:53Z</time>
      </trkpt>
      <trkpt lat="51.5037160" lon="6.8248270">
        <ele>31.0000000</ele>
        <time>2009-03-10T10:36:53Z</time>
      </trkpt>
      <trkpt lat="51.5042600" lon="6.8245210">
        <ele>32.0000000</ele>
        <time>2009-03-10T10:36:53Z</time>
      </trkpt>
      <trkpt lat="51.5050400" lon="6.8240790">
        <ele>31.0000000</ele>
        <time>2009-03-10T10:36:53Z</time>
      </trkpt>
      <trkpt lat="51.5052310" lon="6.8239710">
        <ele>30.0000000</ele>
        <time>2009-03-10T10:36:53Z</time>
      </trkpt>
      <trkpt lat="51.5052310" lon="6.8239710">
        <ele>30.0000000</ele>
        <time>2009-03-10T10:36:53Z</time>
      </trkpt>
      <trkpt lat="51.5048720" lon="6.8224930">
        <ele>31.0000000</ele>
        <time>2009-03-10T10:36:53Z</time>
      </trkpt>
      <trkpt lat="51.5048320" lon="6.8223480">
        <ele>31.0000000</ele>
        <time>2009-03-10T10:36:53Z</time>
      </trkpt>
      <trkpt lat="51.5054940" lon="6.8219160">
        <ele>31.0000000</ele>
        <time>2009-03-10T10:36:53Z</time>
      </trkpt>
      <trkpt lat="51.5061450" lon="6.8215010">
        <ele>32.0000000</ele>
        <time>2009-03-10T10:36:53Z</time>
      </trkpt>
      <trkpt lat="51.5066740" lon="6.8212053">
        <ele>28.0000000</ele>
        <time>2009-03-10T10:36:53Z</time>
      </trkpt>
      <trkpt lat="51.5068185" lon="6.8217208">
        <ele>29.0000000</ele>
        <time>2009-03-10T10:36:53Z</time>
      </trkpt>
      <trkpt lat="51.5069739" lon="6.8216189">
        <ele>29.0000000</ele>
        <time>2009-03-10T10:36:53Z</time>
      </trkpt>
      <trkpt lat="51.5069719" lon="6.8212091">
        <ele>32.0000000</ele>
        <time>2009-03-10T10:36:53Z</time>
      </trkpt>
      <trkpt lat="51.5070040" lon="6.8178420">
        <ele>31.0000000</ele>
        <time>2009-03-10T10:36:53Z</time>
      </trkpt>
      <trkpt lat="51.5069980" lon="6.8176880">
        <ele>31.0000000</ele>
        <time>2009-03-10T10:36:53Z</time>
      </trkpt>
      <trkpt lat="51.5070200" lon="6.8159310">
        <ele>31.0000000</ele>
        <time>2009-03-10T10:36:53Z</time>
      </trkpt>
      <trkpt lat="51.5070040" lon="6.8151290">
        <ele>31.0000000</ele>
        <time>2009-03-10T10:36:53Z</time>
      </trkpt>
      <trkpt lat="51.5069980" lon="6.8149840">
        <ele>30.0000000</ele>
        <time>2009-03-10T10:36:53Z</time>
      </trkpt>
      <trkpt lat="51.5070370" lon="6.8148760">
        <ele>30.0000000</ele>
        <time>2009-03-10T10:36:53Z</time>
      </trkpt>
      <trkpt lat="51.5071610" lon="6.8146330">
        <ele>31.0000000</ele>
        <time>2009-03-10T10:36:53Z</time>
      </trkpt>
      <trkpt lat="51.5075420" lon="6.8139390">
        <ele>33.0000000</ele>
        <time>2009-03-10T10:36:53Z</time>
      </trkpt>
      <trkpt lat="51.5078730" lon="6.8133710">
        <ele>33.0000000</ele>
        <time>2009-03-10T10:36:53Z</time>
      </trkpt>
      <trkpt lat="51.5080250" lon="6.8131460">
        <ele>33.0000000</ele>
        <time>2009-03-10T10:36:53Z</time>
      </trkpt>
      <trkpt lat="51.5081590" lon="6.8129930">
        <ele>33.0000000</ele>
        <time>2009-03-10T10:36:53Z</time>
      </trkpt>
      <trkpt lat="51.5084060" lon="6.8129930">
        <ele>32.0000000</ele>
        <time>2009-03-10T10:36:53Z</time>
      </trkpt>
      <trkpt lat="51.5086080" lon="6.8129740">
        <ele>32.0000000</ele>
        <time>2009-03-10T10:36:53Z</time>
      </trkpt>
      <trkpt lat="51.5095670" lon="6.8131010">
        <ele>33.0000000</ele>
        <time>2009-03-10T10:36:53Z</time>
      </trkpt>
      <trkpt lat="51.5098250" lon="6.8131280">
        <ele>32.0000000</ele>
        <time>2009-03-10T10:36:53Z</time>
      </trkpt>
      <trkpt lat="51.5100830" lon="6.8130830">
        <ele>32.0000000</ele>
        <time>2009-03-10T10:36:53Z</time>
      </trkpt>
      <trkpt lat="51.5101620" lon="6.8131730">
        <ele>32.0000000</ele>
        <time>2009-03-10T10:36:53Z</time>
      </trkpt>
      <trkpt lat="51.5110200" lon="6.8140650">
        <ele>32.0000000</ele>
        <time>2009-03-10T10:36:53Z</time>
      </trkpt>
      <trkpt lat="51.5113060" lon="6.8143990">
        <ele>32.0000000</ele>
        <time>2009-03-10T10:36:53Z</time>
      </trkpt>
      <trkpt lat="51.5115607" lon="6.8137747">
        <ele>41.0000000</ele>
        <time>2009-03-10T10:36:53Z</time>
      </trkpt>
      <trkpt lat="51.5115904" lon="6.8137148">
        <ele>33.0000000</ele>
        <time>2009-03-10T10:36:53Z</time>
      </trkpt>
      <trkpt lat="51.5116443" lon="6.8135906">
        <ele>41.0000000</ele>
        <time>2009-03-10T10:36:53Z</time>
      </trkpt>
      <trkpt lat="51.5114503" lon="6.8129829">
        <ele>40.0000000</ele>
        <time>2009-03-10T10:36:53Z</time>
      </trkpt>
      <trkpt lat="51.5115586" lon="6.8129101">
        <ele>41.0000000</ele>
        <time>2009-03-10T10:36:53Z</time>
      </trkpt>
      <trkpt lat="51.5117207" lon="6.8134654">
        <ele>41.0000000</ele>
        <time>2009-03-10T10:36:53Z</time>
      </trkpt>
      <trkpt lat="51.5122094" lon="6.8122439">
        <ele>41.0000000</ele>
        <time>2009-03-10T10:36:53Z</time>
      </trkpt>
      <trkpt lat="51.5128062" lon="6.8107875">
        <ele>27.0000000</ele>
        <time>2009-03-10T10:36:53Z</time>
      </trkpt>
      <trkpt lat="51.5135560" lon="6.8089640">
        <ele>32.0000000</ele>
        <time>2009-03-10T10:36:53Z</time>
      </trkpt>
      <trkpt lat="51.5140270" lon="6.8078100">
        <ele>31.0000000</ele>
        <time>2009-03-10T10:36:53Z</time>
      </trkpt>
      <trkpt lat="51.5142620" lon="6.8073950">
        <ele>31.0000000</ele>
        <time>2009-03-10T10:36:53Z</time>
      </trkpt>
      <trkpt lat="51.5146830" lon="6.8064400">
        <ele>31.0000000</ele>
        <time>2009-03-10T10:36:53Z</time>
      </trkpt>
      <trkpt lat="51.5150870" lon="6.8056560">
        <ele>31.0000000</ele>
        <time>2009-03-10T10:36:53Z</time>
      </trkpt>
      <trkpt lat="51.5165120" lon="6.8023660">
        <ele>31.0000000</ele>
        <time>2009-03-10T10:36:53Z</time>
      </trkpt>
      <trkpt lat="51.5169550" lon="6.8011760">
        <ele>31.0000000</ele>
        <time>2009-03-10T10:36:53Z</time>
      </trkpt>
      <trkpt lat="51.5170610" lon="6.8007610">
        <ele>30.0000000</ele>
        <time>2009-03-10T10:36:53Z</time>
      </trkpt>
      <trkpt lat="51.5172240" lon="6.8002930">
        <ele>31.0000000</ele>
        <time>2009-03-10T10:36:53Z</time>
      </trkpt>
      <trkpt lat="51.5173190" lon="6.7997610">
        <ele>31.0000000</ele>
        <time>2009-03-10T10:36:53Z</time>
      </trkpt>
      <trkpt lat="51.5174650" lon="6.7990400">
        <ele>30.0000000</ele>
        <time>2009-03-10T10:36:53Z</time>
      </trkpt>
      <trkpt lat="51.5174650" lon="6.7990400">
        <ele>30.0000000</ele>
        <time>2009-03-10T10:36:53Z</time>
      </trkpt>
      <trkpt lat="51.5175830" lon="6.7985620">
        <ele>30.0000000</ele>
        <time>2009-03-10T10:36:53Z</time>
      </trkpt>
      <trkpt lat="51.5176730" lon="6.7984270">
        <ele>30.0000000</ele>
        <time>2009-03-10T10:36:53Z</time>
      </trkpt>
      <trkpt lat="51.5177960" lon="6.7983640">
        <ele>30.0000000</ele>
        <time>2009-03-10T10:36:53Z</time>
      </trkpt>
      <trkpt lat="51.5179030" lon="6.7983640">
        <ele>30.0000000</ele>
        <time>2009-03-10T10:36:53Z</time>
      </trkpt>
      <trkpt lat="51.5179920" lon="6.7983280">
        <ele>30.0000000</ele>
        <time>2009-03-10T10:36:53Z</time>
      </trkpt>
      <trkpt lat="51.5180930" lon="6.7982920">
        <ele>30.0000000</ele>
        <time>2009-03-10T10:36:53Z</time>
      </trkpt>
      <trkpt lat="51.5185140" lon="6.7980030">
        <ele>30.0000000</ele>
        <time>2009-03-10T10:36:53Z</time>
      </trkpt>
      <trkpt lat="51.5187780" lon="6.7979580">
        <ele>30.0000000</ele>
        <time>2009-03-10T10:36:53Z</time>
      </trkpt>
      <trkpt lat="51.5191080" lon="6.7979580">
        <ele>31.0000000</ele>
        <time>2009-03-10T10:36:53Z</time>
      </trkpt>
      <trkpt lat="51.5193780" lon="6.7979670">
        <ele>30.0000000</ele>
        <time>2009-03-10T10:36:53Z</time>
      </trkpt>
      <trkpt lat="51.5195120" lon="6.7979940">
        <ele>30.0000000</ele>
        <time>2009-03-10T10:36:53Z</time>
      </trkpt>
      <trkpt lat="51.5198820" lon="6.7980390">
        <ele>31.0000000</ele>
        <time>2009-03-10T10:36:53Z</time>
      </trkpt>
      <trkpt lat="51.5202640" lon="6.7980930">
        <ele>31.0000000</ele>
        <time>2009-03-10T10:36:53Z</time>
      </trkpt>
      <trkpt lat="51.5206900" lon="6.7980030">
        <ele>31.0000000</ele>
        <time>2009-03-10T10:36:53Z</time>
      </trkpt>
      <trkpt lat="51.5210880" lon="6.7978050">
        <ele>30.0000000</ele>
        <time>2009-03-10T10:36:53Z</time>
      </trkpt>
      <trkpt lat="51.5217610" lon="6.7974440">
        <ele>31.0000000</ele>
        <time>2009-03-10T10:36:53Z</time>
      </trkpt>
      <trkpt lat="51.5221930" lon="6.7972100">
        <ele>31.0000000</ele>
        <time>2009-03-10T10:36:53Z</time>
      </trkpt>
      <trkpt lat="51.5226030" lon="6.7969850">
        <ele>31.0000000</ele>
        <time>2009-03-10T10:36:53Z</time>
      </trkpt>
      <trkpt lat="51.5234940" lon="6.7965430">
        <ele>31.0000000</ele>
        <time>2009-03-10T10:36:53Z</time>
      </trkpt>
      <trkpt lat="51.5231910" lon="6.7956780">
        <ele>31.0000000</ele>
        <time>2009-03-10T10:36:53Z</time>
      </trkpt>
      <trkpt lat="51.5229780" lon="6.7951910">
        <ele>32.0000000</ele>
        <time>2009-03-10T10:36:53Z</time>
      </trkpt>
      <trkpt lat="51.5227540" lon="6.7947580">
        <ele>32.0000000</ele>
        <time>2009-03-10T10:36:53Z</time>
      </trkpt>
      <trkpt lat="51.5225020" lon="6.7941820">
        <ele>32.0000000</ele>
        <time>2009-03-10T10:36:53Z</time>
      </trkpt>
      <trkpt lat="51.5223560" lon="6.7938300">
        <ele>32.0000000</ele>
        <time>2009-03-10T10:36:53Z</time>
      </trkpt>
      <trkpt lat="51.5223330" lon="6.7935600">
        <ele>32.0000000</ele>
        <time>2009-03-10T10:36:53Z</time>
      </trkpt>
      <trkpt lat="51.5222320" lon="6.7928840">
        <ele>32.0000000</ele>
        <time>2009-03-10T10:36:53Z</time>
      </trkpt>
      <trkpt lat="51.5221310" lon="6.7922350">
        <ele>32.0000000</ele>
        <time>2009-03-10T10:36:53Z</time>
      </trkpt>
      <trkpt lat="51.5220810" lon="6.7918560">
        <ele>33.0000000</ele>
        <time>2009-03-10T10:36:53Z</time>
      </trkpt>
      <trkpt lat="51.5220420" lon="6.7913510">
        <ele>32.0000000</ele>
        <time>2009-03-10T10:36:53Z</time>
      </trkpt>
      <trkpt lat="51.5220525" lon="6.7910130">
        <ele>32.0000000</ele>
        <time>2009-03-10T10:36:53Z</time>
      </trkpt>
      <trkpt lat="51.5220980" lon="6.7906750">
        <ele>32.0000000</ele>
        <time>2009-03-10T10:36:53Z</time>
      </trkpt>
      <trkpt lat="51.5221310" lon="6.7904860">
        <ele>32.0000000</ele>
        <time>2009-03-10T10:36:53Z</time>
      </trkpt>
      <trkpt lat="51.5221820" lon="6.7901710">
        <ele>32.0000000</ele>
        <time>2009-03-10T10:36:53Z</time>
      </trkpt>
      <trkpt lat="51.5222770" lon="6.7895580">
        <ele>32.0000000</ele>
        <time>2009-03-10T10:36:53Z</time>
      </trkpt>
      <trkpt lat="51.5223110" lon="6.7891790">
        <ele>32.0000000</ele>
        <time>2009-03-10T10:36:53Z</time>
      </trkpt>
      <trkpt lat="51.5224010" lon="6.7885750">
        <ele>32.0000000</ele>
        <time>2009-03-10T10:36:53Z</time>
      </trkpt>
      <trkpt lat="51.5225070" lon="6.7876920">
        <ele>32.0000000</ele>
        <time>2009-03-10T10:36:53Z</time>
      </trkpt>
      <trkpt lat="51.5226980" lon="6.7867010">
        <ele>32.0000000</ele>
        <time>2009-03-10T10:36:53Z</time>
      </trkpt>
      <trkpt lat="51.5228210" lon="6.7858530">
        <ele>31.0000000</ele>
        <time>2009-03-10T10:36:53Z</time>
      </trkpt>
      <trkpt lat="51.5229450" lon="6.7853940">
        <ele>32.0000000</ele>
        <time>2009-03-10T10:36:53Z</time>
      </trkpt>
      <trkpt lat="51.5230740" lon="6.7851860">
        <ele>32.0000000</ele>
        <time>2009-03-10T10:36:53Z</time>
      </trkpt>
      <trkpt lat="51.5237020" lon="6.7848080">
        <ele>31.0000000</ele>
        <time>2009-03-10T10:36:53Z</time>
      </trkpt>
      <trkpt lat="51.5237782" lon="6.7847663">
        <ele>30.0000000</ele>
        <time>2009-03-10T10:36:53Z</time>
      </trkpt>
      <trkpt lat="51.5238952" lon="6.7851572">
        <ele>28.0000000</ele>
        <time>2009-03-10T10:36:53Z</time>
      </trkpt>
      <trkpt lat="51.5240192" lon="6.7856197">
        <ele>28.0000000</ele>
        <time>2009-03-10T10:36:53Z</time>
      </trkpt>
      <trkpt lat="51.5241059" lon="6.7855974">
        <ele>30.0000000</ele>
        <time>2009-03-10T10:36:53Z</time>
      </trkpt>
      <trkpt lat="51.5242088" lon="6.7858402">
        <ele>28.0000000</ele>
        <time>2009-03-10T10:36:53Z</time>
      </trkpt>
      <trkpt lat="51.5241373" lon="6.7859248">
        <ele>28.0000000</ele>
        <time>2009-03-10T10:36:53Z</time>
      </trkpt>
      <trkpt lat="51.5241306" lon="6.7861639">
        <ele>27.0000000</ele>
        <time>2009-03-10T10:36:53Z</time>
      </trkpt>
      <trkpt lat="51.5241886" lon="6.7864088">
        <ele>31.0000000</ele>
        <time>2009-03-10T10:36:53Z</time>
      </trkpt>
      <trkpt lat="51.5242960" lon="6.7868857">
        <ele>32.0000000</ele>
        <time>2009-03-10T10:36:53Z</time>
      </trkpt>
      <trkpt lat="51.5244840" lon="6.7867189">
        <ele>32.0000000</ele>
        <time>2009-03-10T10:36:53Z</time>
      </trkpt>
      <trkpt lat="51.5246041" lon="6.7865329">
        <ele>32.0000000</ele>
        <time>2009-03-10T10:36:53Z</time>
      </trkpt>
      <trkpt lat="51.5250806" lon="6.7855726">
        <ele>31.0000000</ele>
        <time>2009-03-10T10:36:53Z</time>
      </trkpt>
      <trkpt lat="51.5256577" lon="6.7844318">
        <ele>26.0000000</ele>
        <time>2009-03-10T10:36:53Z</time>
      </trkpt>
      <trkpt lat="51.5259340" lon="6.7848350">
        <ele>32.0000000</ele>
        <time>2009-03-10T10:36:53Z</time>
      </trkpt>
      <trkpt lat="51.5259875" lon="6.7849339">
        <ele>25.0000000</ele>
        <time>2009-03-10T10:36:53Z</time>
      </trkpt>
      <trkpt lat="51.5261326" lon="6.7847286">
        <ele>25.0000000</ele>
        <time>2009-03-10T10:36:53Z</time>
      </trkpt>
      <trkpt lat="51.5262698" lon="6.7845507">
        <ele>31.0000000</ele>
        <time>2009-03-10T10:36:53Z</time>
      </trkpt>
      <trkpt lat="51.5263279" lon="6.7845029">
        <ele>31.0000000</ele>
        <time>2009-03-10T10:36:53Z</time>
      </trkpt>
      <trkpt lat="51.5265626" lon="6.7848790">
        <ele>31.0000000</ele>
        <time>2009-03-10T10:36:53Z</time>
      </trkpt>
      <trkpt lat="51.5268645" lon="6.7853825">
        <ele>31.0000000</ele>
        <time>2009-03-10T10:36:53Z</time>
      </trkpt>
      <trkpt lat="51.5272350" lon="6.7859547">
        <ele>28.0000000</ele>
        <time>2009-03-10T10:36:53Z</time>
      </trkpt>
      <trkpt lat="51.5271110" lon="6.7864930">
        <ele>31.0000000</ele>
        <time>2009-03-10T10:36:53Z</time>
      </trkpt>
      <trkpt lat="51.5275260" lon="6.7871780">
        <ele>31.0000000</ele>
        <time>2009-03-10T10:36:53Z</time>
      </trkpt>
      <trkpt lat="51.5278391" lon="6.7875879">
        <ele>31.0000000</ele>
        <time>2009-03-10T10:36:53Z</time>
      </trkpt>
      <trkpt lat="51.5281111" lon="6.7878496">
        <ele>25.0000000</ele>
        <time>2009-03-10T10:36:53Z</time>
      </trkpt>
      <trkpt lat="51.5283602" lon="6.7873509">
        <ele>31.0000000</ele>
        <time>2009-03-10T10:36:53Z</time>
      </trkpt>
      <trkpt lat="51.5286284" lon="6.7875632">
        <ele>31.0000000</ele>
        <time>2009-03-10T10:36:53Z</time>
      </trkpt>
      <trkpt lat="51.5288380" lon="6.7878900">
        <ele>31.0000000</ele>
        <time>2009-03-10T10:36:53Z</time>
      </trkpt>
      <trkpt lat="51.5289060" lon="6.7877550">
        <ele>31.0000000</ele>
        <time>2009-03-10T10:36:53Z</time>
      </trkpt>
      <trkpt lat="51.5291080" lon="6.7874400">
        <ele>31.0000000</ele>
        <time>2009-03-10T10:36:53Z</time>
      </trkpt>
      <trkpt lat="51.5292200" lon="6.7872860">
        <ele>31.0000000</ele>
        <time>2009-03-10T10:36:53Z</time>
      </trkpt>
      <trkpt lat="51.5292370" lon="6.7873400">
        <ele>31.0000000</ele>
        <time>2009-03-10T10:36:53Z</time>
      </trkpt>
      <trkpt lat="51.5293150" lon="6.7874760">
        <ele>31.0000000</ele>
        <time>2009-03-10T10:36:53Z</time>
      </trkpt>
      <trkpt lat="51.5297800" lon="6.7887190">
        <ele>31.0000000</ele>
        <time>2009-03-10T10:36:53Z</time>
      </trkpt>
      <trkpt lat="51.5302570" lon="6.7900720">
        <ele>29.0000000</ele>
        <time>2009-03-10T10:36:53Z</time>
      </trkpt>
      <trkpt lat="51.5314510" lon="6.7885480">
        <ele>30.0000000</ele>
        <time>2009-03-10T10:36:53Z</time>
      </trkpt>
      <trkpt lat="51.5314230" lon="6.7891250">
        <ele>27.0000000</ele>
        <time>2009-03-10T10:36:53Z</time>
      </trkpt>
      <trkpt lat="51.5314070" lon="6.7898820">
        <ele>36.0000000</ele>
        <time>2009-03-10T10:36:53Z</time>
      </trkpt>
      <trkpt lat="51.5314350" lon="6.7904050">
        <ele>36.0000000</ele>
        <time>2009-03-10T10:36:53Z</time>
      </trkpt>
      <trkpt lat="51.5314630" lon="6.7908110">
        <ele>36.0000000</ele>
        <time>2009-03-10T10:36:53Z</time>
      </trkpt>
      <trkpt lat="51.5315240" lon="6.7910270">
        <ele>36.0000000</ele>
        <time>2009-03-10T10:36:53Z</time>
      </trkpt>
      <trkpt lat="51.5316480" lon="6.7912520">
        <ele>36.0000000</ele>
        <time>2009-03-10T10:36:53Z</time>
      </trkpt>
      <trkpt lat="51.5325170" lon="6.7898820">
        <ele>34.0000000</ele>
        <time>2009-03-10T10:36:53Z</time>
      </trkpt>
      <trkpt lat="51.5327240" lon="6.7895850">
        <ele>34.0000000</ele>
        <time>2009-03-10T10:36:53Z</time>
      </trkpt>
      <trkpt lat="51.5329150" lon="6.7893590">
        <ele>34.0000000</ele>
        <time>2009-03-10T10:36:53Z</time>
      </trkpt>
      <trkpt lat="51.5332010" lon="6.7890530">
        <ele>32.0000000</ele>
        <time>2009-03-10T10:36:53Z</time>
      </trkpt>
      <trkpt lat="51.5335090" lon="6.7888010">
        <ele>33.0000000</ele>
        <time>2009-03-10T10:36:53Z</time>
      </trkpt>
      <trkpt lat="51.5336550" lon="6.7891790">
        <ele>32.0000000</ele>
        <time>2009-03-10T10:36:53Z</time>
      </trkpt>
      <trkpt lat="51.5339020" lon="6.7898460">
        <ele>32.0000000</ele>
        <time>2009-03-10T10:36:53Z</time>
      </trkpt>
      <trkpt lat="51.5341930" lon="6.7905220">
        <ele>32.0000000</ele>
        <time>2009-03-10T10:36:53Z</time>
      </trkpt>
      <trkpt lat="51.5347760" lon="6.7920910">
        <ele>32.0000000</ele>
        <time>2009-03-10T10:36:53Z</time>
      </trkpt>
      <trkpt lat="51.5348720" lon="6.7924780">
        <ele>32.0000000</ele>
        <time>2009-03-10T10:36:53Z</time>
      </trkpt>
      <trkpt lat="51.5349330" lon="6.7930370">
        <ele>32.0000000</ele>
        <time>2009-03-10T10:36:53Z</time>
      </trkpt>
      <trkpt lat="51.5349720" lon="6.7935870">
        <ele>32.0000000</ele>
        <time>2009-03-10T10:36:53Z</time>
      </trkpt>
      <trkpt lat="51.5350230" lon="6.7938750">
        <ele>33.0000000</ele>
        <time>2009-03-10T10:36:53Z</time>
      </trkpt>
      <trkpt lat="51.5351240" lon="6.7942810">
        <ele>32.0000000</ele>
        <time>2009-03-10T10:36:53Z</time>
      </trkpt>
      <trkpt lat="51.5352860" lon="6.7948310">
        <ele>32.0000000</ele>
        <time>2009-03-10T10:36:53Z</time>
      </trkpt>
      <trkpt lat="51.5354940" lon="6.7954160">
        <ele>32.0000000</ele>
        <time>2009-03-10T10:36:53Z</time>
      </trkpt>
      <trkpt lat="51.5358360" lon="6.7963720">
        <ele>32.0000000</ele>
        <time>2009-03-10T10:36:53Z</time>
      </trkpt>
      <trkpt lat="51.5361950" lon="6.7976430">
        <ele>31.0000000</ele>
        <time>2009-03-10T10:36:53Z</time>
      </trkpt>
      <trkpt lat="51.5366100" lon="6.7996350">
        <ele>29.0000000</ele>
        <time>2009-03-10T10:36:53Z</time>
      </trkpt>
      <trkpt lat="51.5368730" lon="6.8003560">
        <ele>29.0000000</ele>
        <time>2009-03-10T10:36:53Z</time>
      </trkpt>
      <trkpt lat="51.5371250" lon="6.8007790">
        <ele>29.0000000</ele>
        <time>2009-03-10T10:36:53Z</time>
      </trkpt>
      <trkpt lat="51.5372430" lon="6.8009240">
        <ele>29.0000000</ele>
        <time>2009-03-10T10:36:53Z</time>
      </trkpt>
      <trkpt lat="51.5375790" lon="6.8000940">
        <ele>30.0000000</ele>
        <time>2009-03-10T10:36:53Z</time>
      </trkpt>
      <trkpt lat="51.5382350" lon="6.8004640">
        <ele>31.0000000</ele>
        <time>2009-03-10T10:36:53Z</time>
      </trkpt>
      <trkpt lat="51.5390320" lon="6.8008880">
        <ele>35.0000000</ele>
        <time>2009-03-10T10:36:53Z</time>
      </trkpt>
      <trkpt lat="51.5392670" lon="6.8010140">
        <ele>34.0000000</ele>
        <time>2009-03-10T10:36:53Z</time>
      </trkpt>
      <trkpt lat="51.5395190" lon="6.8010770">
        <ele>34.0000000</ele>
        <time>2009-03-10T10:36:53Z</time>
      </trkpt>
      <trkpt lat="51.5399850" lon="6.8012390">
        <ele>35.0000000</ele>
        <time>2009-03-10T10:36:53Z</time>
      </trkpt>
      <trkpt lat="51.5408200" lon="6.8016180">
        <ele>36.0000000</ele>
        <time>2009-03-10T10:36:53Z</time>
      </trkpt>
      <trkpt lat="51.5410270" lon="6.8016810">
        <ele>37.0000000</ele>
        <time>2009-03-10T10:36:53Z</time>
      </trkpt>
      <trkpt lat="51.5411840" lon="6.8017800">
        <ele>37.0000000</ele>
        <time>2009-03-10T10:36:53Z</time>
      </trkpt>
      <trkpt lat="51.5417500" lon="6.8020500">
        <ele>39.0000000</ele>
        <time>2009-03-10T10:36:53Z</time>
      </trkpt>
      <trkpt lat="51.5424570" lon="6.8023840">
        <ele>40.0000000</ele>
        <time>2009-03-10T10:36:53Z</time>
      </trkpt>
      <trkpt lat="51.5435720" lon="6.8028800">
        <ele>40.0000000</ele>
        <time>2009-03-10T10:36:53Z</time>
      </trkpt>
      <trkpt lat="51.5440710" lon="6.8031140">
        <ele>41.0000000</ele>
        <time>2009-03-10T10:36:53Z</time>
      </trkpt>
      <trkpt lat="51.5444520" lon="6.8032850">
        <ele>41.0000000</ele>
        <time>2009-03-10T10:36:53Z</time>
      </trkpt>
      <trkpt lat="51.5444520" lon="6.8032850">
        <ele>41.0000000</ele>
        <time>2009-03-10T10:36:53Z</time>
      </trkpt>
      <trkpt lat="51.5450520" lon="6.8035280">
        <ele>41.0000000</ele>
        <time>2009-03-10T10:36:53Z</time>
      </trkpt>
      <trkpt lat="51.5452484" lon="6.8035285">
        <ele>23.0000000</ele>
        <time>2009-03-10T10:36:53Z</time>
      </trkpt>
      <trkpt lat="51.5456083" lon="6.8036869">
        <ele>41.0000000</ele>
        <time>2009-03-10T10:36:53Z</time>
      </trkpt>
      <trkpt lat="51.5466654" lon="6.8041588">
        <ele>21.0000000</ele>
        <time>2009-03-10T10:36:53Z</time>
      </trkpt>
      <trkpt lat="51.5471872" lon="6.8044087">
        <ele>22.0000000</ele>
        <time>2009-03-10T10:36:53Z</time>
      </trkpt>
      <trkpt lat="51.5478210" lon="6.8047000">
        <ele>38.0000000</ele>
        <time>2009-03-10T10:36:53Z</time>
      </trkpt>
      <trkpt lat="51.5481010" lon="6.8035920">
        <ele>38.0000000</ele>
        <time>2009-03-10T10:36:53Z</time>
      </trkpt>
      <trkpt lat="51.5483310" lon="6.8037450">
        <ele>38.0000000</ele>
        <time>2009-03-10T10:36:53Z</time>
      </trkpt>
      <trkpt lat="51.5495590" lon="6.8045380">
        <ele>37.0000000</ele>
        <time>2009-03-10T10:36:53Z</time>
      </trkpt>
      <trkpt lat="51.5498330" lon="6.8047180">
        <ele>36.0000000</ele>
        <time>2009-03-10T10:36:53Z</time>
      </trkpt>
      <trkpt lat="51.5499060" lon="6.8044480">
        <ele>37.0000000</ele>
        <time>2009-03-10T10:36:53Z</time>
      </trkpt>
      <trkpt lat="51.5500740" lon="6.8038350">
        <ele>38.0000000</ele>
        <time>2009-03-10T10:36:53Z</time>
      </trkpt>
      <trkpt lat="51.5512010" lon="6.8045740">
        <ele>37.0000000</ele>
        <time>2009-03-10T10:36:53Z</time>
      </trkpt>
      <trkpt lat="51.5517110" lon="6.8049080">
        <ele>36.0000000</ele>
        <time>2009-03-10T10:36:53Z</time>
      </trkpt>
      <trkpt lat="51.5521650" lon="6.8031770">
        <ele>37.0000000</ele>
        <time>2009-03-10T10:36:53Z</time>
      </trkpt>
      <trkpt lat="51.5533590" lon="6.8039430">
        <ele>38.0000000</ele>
        <time>2009-03-10T10:36:53Z</time>
      </trkpt>
      <trkpt lat="51.5537620" lon="6.8041770">
        <ele>39.0000000</ele>
        <time>2009-03-10T10:36:53Z</time>
      </trkpt>
      <trkpt lat="51.5542610" lon="6.8044840">
        <ele>40.0000000</ele>
        <time>2009-03-10T10:36:53Z</time>
      </trkpt>
      <trkpt lat="51.5547820" lon="6.8047900">
        <ele>43.0000000</ele>
        <time>2009-03-10T10:36:53Z</time>
      </trkpt>
      <trkpt lat="51.5549730" lon="6.8049350">
        <ele>44.0000000</ele>
        <time>2009-03-10T10:36:53Z</time>
      </trkpt>
      <trkpt lat="51.5549670" lon="6.8049800">
        <ele>44.0000000</ele>
        <time>2009-03-10T10:36:53Z</time>
      </trkpt>
      <trkpt lat="51.5547930" lon="6.8062600">
        <ele>42.0000000</ele>
        <time>2009-03-10T10:36:53Z</time>
      </trkpt>
      <trkpt lat="51.5547260" lon="6.8066920">
        <ele>42.0000000</ele>
        <time>2009-03-10T10:36:53Z</time>
      </trkpt>
      <trkpt lat="51.5543730" lon="6.8090630">
        <ele>39.0000000</ele>
        <time>2009-03-10T10:36:53Z</time>
      </trkpt>
      <trkpt lat="51.5542050" lon="6.8101620">
        <ele>40.0000000</ele>
        <time>2009-03-10T10:36:53Z</time>
      </trkpt>
      <trkpt lat="51.5541260" lon="6.8107030">
        <ele>41.0000000</ele>
        <time>2009-03-10T10:36:53Z</time>
      </trkpt>
      <trkpt lat="51.5539970" lon="6.8114960">
        <ele>42.0000000</ele>
        <time>2009-03-10T10:36:53Z</time>
      </trkpt>
      <trkpt lat="51.5539080" lon="6.8120550">
        <ele>44.0000000</ele>
        <time>2009-03-10T10:36:53Z</time>
      </trkpt>
      <trkpt lat="51.5537850" lon="6.8128390">
        <ele>47.0000000</ele>
        <time>2009-03-10T10:36:53Z</time>
      </trkpt>
      <trkpt lat="51.5537280" lon="6.8132540">
        <ele>50.0000000</ele>
        <time>2009-03-10T10:36:53Z</time>
      </trkpt>
      <trkpt lat="51.5536950" lon="6.8135510">
        <ele>49.0000000</ele>
        <time>2009-03-10T10:36:53Z</time>
      </trkpt>
      <trkpt lat="51.5536720" lon="6.8138490">
        <ele>51.0000000</ele>
        <time>2009-03-10T10:36:53Z</time>
      </trkpt>
      <trkpt lat="51.5536720" lon="6.8142630">
        <ele>52.0000000</ele>
        <time>2009-03-10T10:36:53Z</time>
      </trkpt>
      <trkpt lat="51.5537000" lon="6.8145250">
        <ele>52.0000000</ele>
        <time>2009-03-10T10:36:53Z</time>
      </trkpt>
      <trkpt lat="51.5538630" lon="6.8151740">
        <ele>54.0000000</ele>
        <time>2009-03-10T10:36:53Z</time>
      </trkpt>
      <trkpt lat="51.5539410" lon="6.8154440">
        <ele>54.0000000</ele>
        <time>2009-03-10T10:36:53Z</time>
      </trkpt>
      <trkpt lat="51.5541100" lon="6.8159850">
        <ele>56.0000000</ele>
        <time>2009-03-10T10:36:53Z</time>
      </trkpt>
      <trkpt lat="51.5542100" lon="6.8163450">
        <ele>57.0000000</ele>
        <time>2009-03-10T10:36:53Z</time>
      </trkpt>
      <trkpt lat="51.5545350" lon="6.8175620">
        <ele>57.0000000</ele>
        <time>2009-03-10T10:36:53Z</time>
      </trkpt>
      <trkpt lat="51.5546700" lon="6.8180490">
        <ele>57.0000000</ele>
        <time>2009-03-10T10:36:53Z</time>
      </trkpt>
      <trkpt lat="51.5547880" lon="6.8184640">
        <ele>57.0000000</ele>
        <time>2009-03-10T10:36:53Z</time>
      </trkpt>
      <trkpt lat="51.5549000" lon="6.8188240">
        <ele>57.0000000</ele>
        <time>2009-03-10T10:36:53Z</time>
      </trkpt>
      <trkpt lat="51.5549000" lon="6.8188240">
        <ele>57.0000000</ele>
        <time>2009-03-10T10:36:53Z</time>
      </trkpt>
      <trkpt lat="51.5549950" lon="6.8191490">
        <ele>56.0000000</ele>
        <time>2009-03-10T10:36:53Z</time>
      </trkpt>
      <trkpt lat="51.5551240" lon="6.8196080">
        <ele>56.0000000</ele>
        <time>2009-03-10T10:36:53Z</time>
      </trkpt>
      <trkpt lat="51.5552190" lon="6.8199420">
        <ele>56.0000000</ele>
        <time>2009-03-10T10:36:53Z</time>
      </trkpt>
      <trkpt lat="51.5554100" lon="6.8204110">
        <ele>56.0000000</ele>
        <time>2009-03-10T10:36:53Z</time>
      </trkpt>
      <trkpt lat="51.5557400" lon="6.8212220">
        <ele>56.0000000</ele>
        <time>2009-03-10T10:36:53Z</time>
      </trkpt>
      <trkpt lat="51.5560820" lon="6.8219880">
        <ele>56.0000000</ele>
        <time>2009-03-10T10:36:53Z</time>
      </trkpt>
      <trkpt lat="51.5563460" lon="6.8225830">
        <ele>56.0000000</ele>
        <time>2009-03-10T10:36:53Z</time>
      </trkpt>
      <trkpt lat="51.5564800" lon="6.8228890">
        <ele>56.0000000</ele>
        <time>2009-03-10T10:36:53Z</time>
      </trkpt>
      <trkpt lat="51.5565920" lon="6.8231420">
        <ele>56.0000000</ele>
        <time>2009-03-10T10:36:53Z</time>
      </trkpt>
      <trkpt lat="51.5571360" lon="6.8244030">
        <ele>57.0000000</ele>
        <time>2009-03-10T10:36:53Z</time>
      </trkpt>
      <trkpt lat="51.5572200" lon="6.8246020">
        <ele>58.0000000</ele>
        <time>2009-03-10T10:36:53Z</time>
      </trkpt>
      <trkpt lat="51.5575280" lon="6.8253500">
        <ele>59.0000000</ele>
        <time>2009-03-10T10:36:53Z</time>
      </trkpt>
      <trkpt lat="51.5577190" lon="6.8257920">
        <ele>59.0000000</ele>
        <time>2009-03-10T10:36:53Z</time>
      </trkpt>
      <trkpt lat="51.5579760" lon="6.8264220">
        <ele>60.0000000</ele>
        <time>2009-03-10T10:36:53Z</time>
      </trkpt>
      <trkpt lat="51.5581720" lon="6.8269000">
        <ele>61.0000000</ele>
        <time>2009-03-10T10:36:53Z</time>
      </trkpt>
      <trkpt lat="51.5586880" lon="6.8280450">
        <ele>64.0000000</ele>
        <time>2009-03-10T10:36:53Z</time>
      </trkpt>
      <trkpt lat="51.5586880" lon="6.8280450">
        <ele>64.0000000</ele>
        <time>2009-03-10T10:36:53Z</time>
      </trkpt>
      <trkpt lat="51.5589350" lon="6.8286220">
        <ele>65.0000000</ele>
        <time>2009-03-10T10:36:53Z</time>
      </trkpt>
      <trkpt lat="51.5591590" lon="6.8291900">
        <ele>65.0000000</ele>
        <time>2009-03-10T10:36:53Z</time>
      </trkpt>
      <trkpt lat="51.5595450" lon="6.8290270">
        <ele>66.0000000</ele>
        <time>2009-03-10T10:36:53Z</time>
      </trkpt>
      <trkpt lat="51.5594890" lon="6.8293880">
        <ele>66.0000000</ele>
        <time>2009-03-10T10:36:53Z</time>
      </trkpt>
      <trkpt lat="51.5594450" lon="6.8294870">
        <ele>66.0000000</ele>
        <time>2009-03-10T10:36:53Z</time>
      </trkpt>
      <trkpt lat="51.5592320" lon="6.8300100">
        <ele>65.0000000</ele>
        <time>2009-03-10T10:36:53Z</time>
      </trkpt>
      <trkpt lat="51.5587550" lon="6.8309110">
        <ele>66.0000000</ele>
        <time>2009-03-10T10:36:53Z</time>
      </trkpt>
      <trkpt lat="51.5586660" lon="6.8310640">
        <ele>66.0000000</ele>
        <time>2009-03-10T10:36:53Z</time>
      </trkpt>
      <trkpt lat="51.5584130" lon="6.8314790">
        <ele>66.0000000</ele>
        <time>2009-03-10T10:36:53Z</time>
      </trkpt>
      <trkpt lat="51.5585200" lon="6.8315870">
        <ele>66.0000000</ele>
        <time>2009-03-10T10:36:53Z</time>
      </trkpt>
      <trkpt lat="51.5592760" lon="6.8325430">
        <ele>66.0000000</ele>
        <time>2009-03-10T10:36:53Z</time>
      </trkpt>
      <trkpt lat="51.5595400" lon="6.8328850">
        <ele>66.0000000</ele>
        <time>2009-03-10T10:36:53Z</time>
      </trkpt>
      <trkpt lat="51.5601390" lon="6.8336330">
        <ele>65.0000000</ele>
        <time>2009-03-10T10:36:53Z</time>
      </trkpt>
      <trkpt lat="51.5606160" lon="6.8342370">
        <ele>65.0000000</ele>
        <time>2009-03-10T10:36:53Z</time>
      </trkpt>
      <trkpt lat="51.5608850" lon="6.8345890">
        <ele>64.0000000</ele>
        <time>2009-03-10T10:36:53Z</time>
      </trkpt>
      <trkpt lat="51.5614000" lon="6.8337680">
        <ele>63.0000000</ele>
        <time>2009-03-10T10:36:53Z</time>
      </trkpt>
      <trkpt lat="51.5616520" lon="6.8333630">
        <ele>62.0000000</ele>
        <time>2009-03-10T10:36:53Z</time>
      </trkpt>
      <trkpt lat="51.5619210" lon="6.8328850">
        <ele>61.0000000</ele>
        <time>2009-03-10T10:36:53Z</time>
      </trkpt>
      <trkpt lat="51.5624930" lon="6.8319480">
        <ele>63.0000000</ele>
        <time>2009-03-10T10:36:53Z</time>
      </trkpt>
      <trkpt lat="51.5628561" lon="6.8318127">
        <ele>64.0000000</ele>
        <time>2009-03-10T10:36:53Z</time>
      </trkpt>
      <trkpt lat="51.5633505" lon="6.8319515">
        <ele>16.0000000</ele>
        <time>2009-03-10T10:36:53Z</time>
      </trkpt>
      <trkpt lat="51.5637191" lon="6.8318212">
        <ele>17.0000000</ele>
        <time>2009-03-10T10:36:53Z</time>
      </trkpt>
      <trkpt lat="51.5640501" lon="6.8316387">
        <ele>67.0000000</ele>
        <time>2009-03-10T10:36:53Z</time>
      </trkpt>
      <trkpt lat="51.5644153" lon="6.8310216">
        <ele>67.0000000</ele>
        <time>2009-03-10T10:36:53Z</time>
      </trkpt>
      <trkpt lat="51.5650622" lon="6.8307472">
        <ele>17.0000000</ele>
        <time>2009-03-10T10:36:53Z</time>
      </trkpt>
      <trkpt lat="51.5653060" lon="6.8302487">
        <ele>67.0000000</ele>
        <time>2009-03-10T10:36:53Z</time>
      </trkpt>
      <trkpt lat="51.5651297" lon="6.8295310">
        <ele>66.0000000</ele>
        <time>2009-03-10T10:36:53Z</time>
      </trkpt>
      <trkpt lat="51.5650590" lon="6.8292530">
        <ele>66.0000000</ele>
        <time>2009-03-10T10:36:53Z</time>
      </trkpt>
      <trkpt lat="51.5637980" lon="6.8251610">
        <ele>63.0000000</ele>
        <time>2009-03-10T10:36:53Z</time>
      </trkpt>
      <trkpt lat="51.5634570" lon="6.8239620">
        <ele>58.0000000</ele>
        <time>2009-03-10T10:36:53Z</time>
      </trkpt>
      <trkpt lat="51.5636580" lon="6.8237910">
        <ele>56.0000000</ele>
        <time>2009-03-10T10:36:53Z</time>
      </trkpt>
      <trkpt lat="51.5641350" lon="6.8234660">
        <ele>54.0000000</ele>
        <time>2009-03-10T10:36:53Z</time>
      </trkpt>
      <trkpt lat="51.5645770" lon="6.8231600">
        <ele>52.0000000</ele>
        <time>2009-03-10T10:36:53Z</time>
      </trkpt>
      <trkpt lat="51.5652050" lon="6.8227540">
        <ele>51.0000000</ele>
        <time>2009-03-10T10:36:53Z</time>
      </trkpt>
      <trkpt lat="51.5657090" lon="6.8223840">
        <ele>51.0000000</ele>
        <time>2009-03-10T10:36:53Z</time>
      </trkpt>
      <trkpt lat="51.5661570" lon="6.8220780">
        <ele>51.0000000</ele>
        <time>2009-03-10T10:36:53Z</time>
      </trkpt>
      <trkpt lat="51.5666730" lon="6.8217080">
        <ele>50.0000000</ele>
        <time>2009-03-10T10:36:53Z</time>
      </trkpt>
      <trkpt lat="51.5671150" lon="6.8214200">
        <ele>49.0000000</ele>
        <time>2009-03-10T10:36:53Z</time>
      </trkpt>
      <trkpt lat="51.5676140" lon="6.8210870">
        <ele>48.0000000</ele>
        <time>2009-03-10T10:36:53Z</time>
      </trkpt>
      <trkpt lat="51.5680960" lon="6.8207350">
        <ele>47.0000000</ele>
        <time>2009-03-10T10:36:53Z</time>
      </trkpt>
      <trkpt lat="51.5687340" lon="6.8202930">
        <ele>46.0000000</ele>
        <time>2009-03-10T10:36:53Z</time>
      </trkpt>
      <trkpt lat="51.5691380" lon="6.8200050">
        <ele>46.0000000</ele>
        <time>2009-03-10T10:36:53Z</time>
      </trkpt>
      <trkpt lat="51.5694180" lon="6.8198340">
        <ele>45.0000000</ele>
        <time>2009-03-10T10:36:53Z</time>
      </trkpt>
      <trkpt lat="51.5699220" lon="6.8194730">
        <ele>45.0000000</ele>
        <time>2009-03-10T10:36:53Z</time>
      </trkpt>
      <trkpt lat="51.5703930" lon="6.8191400">
        <ele>44.0000000</ele>
        <time>2009-03-10T10:36:53Z</time>
      </trkpt>
      <trkpt lat="51.5712550" lon="6.8185540">
        <ele>44.0000000</ele>
        <time>2009-03-10T10:36:53Z</time>
      </trkpt>
      <trkpt lat="51.5721290" lon="6.8179410">
        <ele>43.0000000</ele>
        <time>2009-03-10T10:36:53Z</time>
      </trkpt>
      <trkpt lat="51.5727290" lon="6.8175260">
        <ele>43.0000000</ele>
        <time>2009-03-10T10:36:53Z</time>
      </trkpt>
      <trkpt lat="51.5735690" lon="6.8169400">
        <ele>42.0000000</ele>
        <time>2009-03-10T10:36:53Z</time>
      </trkpt>
      <trkpt lat="51.5742410" lon="6.8164810">
        <ele>42.0000000</ele>
        <time>2009-03-10T10:36:53Z</time>
      </trkpt>
      <trkpt lat="51.5750420" lon="6.8159310">
        <ele>45.0000000</ele>
        <time>2009-03-10T10:36:53Z</time>
      </trkpt>
      <trkpt lat="51.5754960" lon="6.8156330">
        <ele>45.0000000</ele>
        <time>2009-03-10T10:36:53Z</time>
      </trkpt>
      <trkpt lat="51.5757030" lon="6.8155160">
        <ele>45.0000000</ele>
        <time>2009-03-10T10:36:53Z</time>
      </trkpt>
      <trkpt lat="51.5757370" lon="6.8157060">
        <ele>45.0000000</ele>
        <time>2009-03-10T10:36:53Z</time>
      </trkpt>
      <trkpt lat="51.5758660" lon="6.8165080">
        <ele>46.0000000</ele>
        <time>2009-03-10T10:36:53Z</time>
      </trkpt>
      <trkpt lat="51.5760280" lon="6.8176880">
        <ele>46.0000000</ele>
        <time>2009-03-10T10:36:53Z</time>
      </trkpt>
      <trkpt lat="51.5761120" lon="6.8181930">
        <ele>46.0000000</ele>
        <time>2009-03-10T10:36:53Z</time>
      </trkpt>
      <trkpt lat="51.5761209" lon="6.8183134">
        <ele>46.0000000</ele>
        <time>2009-03-10T10:36:53Z</time>
      </trkpt>
      <trkpt lat="51.5759445" lon="6.8185022">
        <ele>46.0000000</ele>
        <time>2009-03-10T10:36:53Z</time>
      </trkpt>
      <trkpt lat="51.5757738" lon="6.8186908">
        <ele>21.0000000</ele>
        <time>2009-03-10T10:36:53Z</time>
      </trkpt>
      <trkpt lat="51.5755305" lon="6.8189099">
        <ele>47.0000000</ele>
        <time>2009-03-10T10:36:53Z</time>
      </trkpt>
      <trkpt lat="51.5741072" lon="6.8203492">
        <ele>53.0000000</ele>
        <time>2009-03-10T10:36:53Z</time>
      </trkpt>
      <trkpt lat="51.5741460" lon="6.8204110">
        <ele>53.0000000</ele>
        <time>2009-03-10T10:36:53Z</time>
      </trkpt>
      <trkpt lat="51.5754651" lon="6.8237075">
        <ele>20.0000000</ele>
        <time>2009-03-10T10:36:53Z</time>
      </trkpt>
      <trkpt lat="51.5756661" lon="6.8242391">
        <ele>47.0000000</ele>
        <time>2009-03-10T10:36:53Z</time>
      </trkpt>
      <trkpt lat="51.5757543" lon="6.8244513">
        <ele>18.0000000</ele>
        <time>2009-03-10T10:36:53Z</time>
      </trkpt>
      <trkpt lat="51.5757925" lon="6.8245398">
        <ele>18.0000000</ele>
        <time>2009-03-10T10:36:53Z</time>
      </trkpt>
      <trkpt lat="51.5763468" lon="6.8259386">
        <ele>17.0000000</ele>
        <time>2009-03-10T10:36:53Z</time>
      </trkpt>
      <trkpt lat="51.5764592" lon="6.8262399">
        <ele>17.0000000</ele>
        <time>2009-03-10T10:36:53Z</time>
      </trkpt>
      <trkpt lat="51.5770459" lon="6.8277229">
        <ele>50.0000000</ele>
        <time>2009-03-10T10:36:53Z</time>
      </trkpt>
      <trkpt lat="51.5773393" lon="6.8276367">
        <ele>46.0000000</ele>
        <time>2009-03-10T10:36:53Z</time>
      </trkpt>
      <trkpt lat="51.5790193" lon="6.8269973">
        <ele>17.0000000</ele>
        <time>2009-03-10T10:36:53Z</time>
      </trkpt>
      <trkpt lat="51.5808120" lon="6.8263705">
        <ele>17.0000000</ele>
        <time>2009-03-10T10:36:53Z</time>
      </trkpt>
      <trkpt lat="51.5809457" lon="6.8263100">
        <ele>17.0000000</ele>
        <time>2009-03-10T10:36:53Z</time>
      </trkpt>
      <trkpt lat="51.5810691" lon="6.8262950">
        <ele>16.0000000</ele>
        <time>2009-03-10T10:36:53Z</time>
      </trkpt>
      <trkpt lat="51.5811867" lon="6.8262714">
        <ele>16.0000000</ele>
        <time>2009-03-10T10:36:53Z</time>
      </trkpt>
      <trkpt lat="51.5812091" lon="6.8262658">
        <ele>16.0000000</ele>
        <time>2009-03-10T10:36:53Z</time>
      </trkpt>
      <trkpt lat="51.5814112" lon="6.8264005">
        <ele>16.0000000</ele>
        <time>2009-03-10T10:36:53Z</time>
      </trkpt>
      <trkpt lat="51.5818455" lon="6.8266368">
        <ele>17.0000000</ele>
        <time>2009-03-10T10:36:53Z</time>
      </trkpt>
      <trkpt lat="51.5818897" lon="6.8281143">
        <ele>17.0000000</ele>
        <time>2009-03-10T10:36:53Z</time>
      </trkpt>
      <trkpt lat="51.5818815" lon="6.8282771">
        <ele>17.0000000</ele>
        <time>2009-03-10T10:36:53Z</time>
      </trkpt>
      <trkpt lat="51.5815830" lon="6.8297619">
        <ele>17.0000000</ele>
        <time>2009-03-10T10:36:53Z</time>
      </trkpt>
      <trkpt lat="51.5815369" lon="6.8300077">
        <ele>17.0000000</ele>
        <time>2009-03-10T10:36:53Z</time>
      </trkpt>
      <trkpt lat="51.5810188" lon="6.8323870">
        <ele>21.0000000</ele>
        <time>2009-03-10T10:36:53Z</time>
      </trkpt>
      <trkpt lat="51.5806983" lon="6.8338999">
        <ele>18.0000000</ele>
        <time>2009-03-10T10:36:53Z</time>
      </trkpt>
      <trkpt lat="51.5806100" lon="6.8343180">
        <ele>43.0000000</ele>
        <time>2009-03-10T10:36:53Z</time>
      </trkpt>
      <trkpt lat="51.5805490" lon="6.8345160">
        <ele>43.0000000</ele>
        <time>2009-03-10T10:36:53Z</time>
      </trkpt>
      <trkpt lat="51.5805090" lon="6.8345620">
        <ele>43.0000000</ele>
        <time>2009-03-10T10:36:53Z</time>
      </trkpt>
      <trkpt lat="51.5802180" lon="6.8348950">
        <ele>43.0000000</ele>
        <time>2009-03-10T10:36:53Z</time>
      </trkpt>
      <trkpt lat="51.5800840" lon="6.8351470">
        <ele>43.0000000</ele>
        <time>2009-03-10T10:36:53Z</time>
      </trkpt>
      <trkpt lat="51.5799380" lon="6.8354900">
        <ele>43.0000000</ele>
        <time>2009-03-10T10:36:53Z</time>
      </trkpt>
      <trkpt lat="51.5797420" lon="6.8359410">
        <ele>43.0000000</ele>
        <time>2009-03-10T10:36:53Z</time>
      </trkpt>
      <trkpt lat="51.5793050" lon="6.8369140">
        <ele>45.0000000</ele>
        <time>2009-03-10T10:36:53Z</time>
      </trkpt>
      <trkpt lat="51.5790420" lon="6.8375180">
        <ele>46.0000000</ele>
        <time>2009-03-10T10:36:53Z</time>
      </trkpt>
      <trkpt lat="51.5789300" lon="6.8377160">
        <ele>47.0000000</ele>
        <time>2009-03-10T10:36:53Z</time>
      </trkpt>
      <trkpt lat="51.5785490" lon="6.8381400">
        <ele>46.0000000</ele>
        <time>2009-03-10T10:36:53Z</time>
      </trkpt>
      <trkpt lat="51.5783980" lon="6.8383200">
        <ele>46.0000000</ele>
        <time>2009-03-10T10:36:53Z</time>
      </trkpt>
      <trkpt lat="51.5779830" lon="6.8387710">
        <ele>47.0000000</ele>
        <time>2009-03-10T10:36:53Z</time>
      </trkpt>
      <trkpt lat="51.5776810" lon="6.8391310">
        <ele>47.0000000</ele>
        <time>2009-03-10T10:36:53Z</time>
      </trkpt>
      <trkpt lat="51.5774060" lon="6.8394020">
        <ele>47.0000000</ele>
        <time>2009-03-10T10:36:53Z</time>
      </trkpt>
      <trkpt lat="51.5769250" lon="6.8399150">
        <ele>47.0000000</ele>
        <time>2009-03-10T10:36:53Z</time>
      </trkpt>
      <trkpt lat="51.5768070" lon="6.8400600">
        <ele>46.0000000</ele>
        <time>2009-03-10T10:36:53Z</time>
      </trkpt>
      <trkpt lat="51.5767450" lon="6.8401950">
        <ele>46.0000000</ele>
        <time>2009-03-10T10:36:53Z</time>
      </trkpt>
      <trkpt lat="51.5766560" lon="6.8403840">
        <ele>47.0000000</ele>
        <time>2009-03-10T10:36:53Z</time>
      </trkpt>
      <trkpt lat="51.5766220" lon="6.8404650">
        <ele>47.0000000</ele>
        <time>2009-03-10T10:36:53Z</time>
      </trkpt>
      <trkpt lat="51.5765830" lon="6.8406090">
        <ele>47.0000000</ele>
        <time>2009-03-10T10:36:53Z</time>
      </trkpt>
      <trkpt lat="51.5764540" lon="6.8410960">
        <ele>48.0000000</ele>
        <time>2009-03-10T10:36:53Z</time>
      </trkpt>
      <trkpt lat="51.5764090" lon="6.8412490">
        <ele>48.0000000</ele>
        <time>2009-03-10T10:36:53Z</time>
      </trkpt>
      <trkpt lat="51.5762360" lon="6.8418350">
        <ele>48.0000000</ele>
        <time>2009-03-10T10:36:53Z</time>
      </trkpt>
      <trkpt lat="51.5761400" lon="6.8421510">
        <ele>47.0000000</ele>
        <time>2009-03-10T10:36:53Z</time>
      </trkpt>
      <trkpt lat="51.5760170" lon="6.8425380">
        <ele>47.0000000</ele>
        <time>2009-03-10T10:36:53Z</time>
      </trkpt>
      <trkpt lat="51.5759550" lon="6.8427910">
        <ele>47.0000000</ele>
        <time>2009-03-10T10:36:53Z</time>
      </trkpt>
      <trkpt lat="51.5758830" lon="6.8430970">
        <ele>46.0000000</ele>
        <time>2009-03-10T10:36:53Z</time>
      </trkpt>
      <trkpt lat="51.5758210" lon="6.8434220">
        <ele>47.0000000</ele>
        <time>2009-03-10T10:36:53Z</time>
      </trkpt>
      <trkpt lat="51.5757760" lon="6.8439440">
        <ele>47.0000000</ele>
        <time>2009-03-10T10:36:53Z</time>
      </trkpt>
      <trkpt lat="51.5757370" lon="6.8443950">
        <ele>48.0000000</ele>
        <time>2009-03-10T10:36:53Z</time>
      </trkpt>
      <trkpt lat="51.5757200" lon="6.8446020">
        <ele>48.0000000</ele>
        <time>2009-03-10T10:36:53Z</time>
      </trkpt>
      <trkpt lat="51.5756810" lon="6.8447110">
        <ele>49.0000000</ele>
        <time>2009-03-10T10:36:53Z</time>
      </trkpt>
      <trkpt lat="51.5754680" lon="6.8449180">
        <ele>49.0000000</ele>
        <time>2009-03-10T10:36:53Z</time>
      </trkpt>
      <trkpt lat="51.5751540" lon="6.8451700">
        <ele>48.0000000</ele>
        <time>2009-03-10T10:36:53Z</time>
      </trkpt>
      <trkpt lat="51.5750540" lon="6.8454140">
        <ele>48.0000000</ele>
        <time>2009-03-10T10:36:53Z</time>
      </trkpt>
      <trkpt lat="51.5749360" lon="6.8456480">
        <ele>49.0000000</ele>
        <time>2009-03-10T10:36:53Z</time>
      </trkpt>
      <trkpt lat="51.5748410" lon="6.8458280">
        <ele>49.0000000</ele>
        <time>2009-03-10T10:36:53Z</time>
      </trkpt>
      <trkpt lat="51.5747450" lon="6.8458640">
        <ele>49.0000000</ele>
        <time>2009-03-10T10:36:53Z</time>
      </trkpt>
      <trkpt lat="51.5746330" lon="6.8458820">
        <ele>49.0000000</ele>
        <time>2009-03-10T10:36:53Z</time>
      </trkpt>
      <trkpt lat="51.5744930" lon="6.8458820">
        <ele>49.0000000</ele>
        <time>2009-03-10T10:36:53Z</time>
      </trkpt>
      <trkpt lat="51.5743030" lon="6.8459990">
        <ele>49.0000000</ele>
        <time>2009-03-10T10:36:53Z</time>
      </trkpt>
      <trkpt lat="51.5742640" lon="6.8460720">
        <ele>49.0000000</ele>
        <time>2009-03-10T10:36:53Z</time>
      </trkpt>
      <trkpt lat="51.5741290" lon="6.8462430">
        <ele>49.0000000</ele>
        <time>2009-03-10T10:36:53Z</time>
      </trkpt>
      <trkpt lat="51.5740060" lon="6.8464500">
        <ele>50.0000000</ele>
        <time>2009-03-10T10:36:53Z</time>
      </trkpt>
      <trkpt lat="51.5739110" lon="6.8465760">
        <ele>50.0000000</ele>
        <time>2009-03-10T10:36:53Z</time>
      </trkpt>
      <trkpt lat="51.5737710" lon="6.8467480">
        <ele>50.0000000</ele>
        <time>2009-03-10T10:36:53Z</time>
      </trkpt>
      <trkpt lat="51.5736310" lon="6.8469550">
        <ele>51.0000000</ele>
        <time>2009-03-10T10:36:53Z</time>
      </trkpt>
      <trkpt lat="51.5733340" lon="6.8474600">
        <ele>51.0000000</ele>
        <time>2009-03-10T10:36:53Z</time>
      </trkpt>
      <trkpt lat="51.5729530" lon="6.8481270">
        <ele>51.0000000</ele>
        <time>2009-03-10T10:36:53Z</time>
      </trkpt>
      <trkpt lat="51.5727790" lon="6.8483880">
        <ele>51.0000000</ele>
        <time>2009-03-10T10:36:53Z</time>
      </trkpt>
      <trkpt lat="51.5725610" lon="6.8487580">
        <ele>52.0000000</ele>
        <time>2009-03-10T10:36:53Z</time>
      </trkpt>
      <trkpt lat="51.5723590" lon="6.8491000">
        <ele>51.0000000</ele>
        <time>2009-03-10T10:36:53Z</time>
      </trkpt>
      <trkpt lat="51.5722080" lon="6.8493700">
        <ele>51.0000000</ele>
        <time>2009-03-10T10:36:53Z</time>
      </trkpt>
      <trkpt lat="51.5719950" lon="6.8497130">
        <ele>50.0000000</ele>
        <time>2009-03-10T10:36:53Z</time>
      </trkpt>
      <trkpt lat="51.5718940" lon="6.8498840">
        <ele>50.0000000</ele>
        <time>2009-03-10T10:36:53Z</time>
      </trkpt>
      <trkpt lat="51.5718160" lon="6.8500460">
        <ele>50.0000000</ele>
        <time>2009-03-10T10:36:53Z</time>
      </trkpt>
      <trkpt lat="51.5717320" lon="6.8502720">
        <ele>50.0000000</ele>
        <time>2009-03-10T10:36:53Z</time>
      </trkpt>
      <trkpt lat="51.5716870" lon="6.8504880">
        <ele>50.0000000</ele>
        <time>2009-03-10T10:36:53Z</time>
      </trkpt>
      <trkpt lat="51.5716420" lon="6.8506860">
        <ele>50.0000000</ele>
        <time>2009-03-10T10:36:53Z</time>
      </trkpt>
      <trkpt lat="51.5715750" lon="6.8509840">
        <ele>50.0000000</ele>
        <time>2009-03-10T10:36:53Z</time>
      </trkpt>
      <trkpt lat="51.5715410" lon="6.8511820">
        <ele>50.0000000</ele>
        <time>2009-03-10T10:36:53Z</time>
      </trkpt>
      <trkpt lat="51.5715130" lon="6.8513080">
        <ele>50.0000000</ele>
        <time>2009-03-10T10:36:53Z</time>
      </trkpt>
      <trkpt lat="51.5714630" lon="6.8515700">
        <ele>50.0000000</ele>
        <time>2009-03-10T10:36:53Z</time>
      </trkpt>
      <trkpt lat="51.5714680" lon="6.8516780">
        <ele>50.0000000</ele>
        <time>2009-03-10T10:36:53Z</time>
      </trkpt>
      <trkpt lat="51.5714800" lon="6.8518580">
        <ele>51.0000000</ele>
        <time>2009-03-10T10:36:53Z</time>
      </trkpt>
      <trkpt lat="51.5714570" lon="6.8519660">
        <ele>51.0000000</ele>
        <time>2009-03-10T10:36:53Z</time>
      </trkpt>
      <trkpt lat="51.5713230" lon="6.8522100">
        <ele>52.0000000</ele>
        <time>2009-03-10T10:36:53Z</time>
      </trkpt>
      <trkpt lat="51.5711550" lon="6.8525250">
        <ele>52.0000000</ele>
        <time>2009-03-10T10:36:53Z</time>
      </trkpt>
      <trkpt lat="51.5706030" lon="6.8514940">
        <ele>47.0000000</ele>
        <time>2009-03-10T10:36:53Z</time>
      </trkpt>
      <trkpt lat="51.5701174" lon="6.8516347">
        <ele>19.0000000</ele>
        <time>2009-03-10T10:36:53Z</time>
      </trkpt>
      <trkpt lat="51.5702017" lon="6.8511752">
        <ele>19.0000000</ele>
        <time>2009-03-10T10:36:53Z</time>
      </trkpt>
      <trkpt lat="51.5702727" lon="6.8509013">
        <ele>51.0000000</ele>
        <time>2009-03-10T10:36:53Z</time>
      </trkpt>
      <trkpt lat="51.5703125" lon="6.8507731">
        <ele>19.0000000</ele>
        <time>2009-03-10T10:36:53Z</time>
      </trkpt>
      <trkpt lat="51.5703830" lon="6.8504857">
        <ele>19.0000000</ele>
        <time>2009-03-10T10:36:53Z</time>
      </trkpt>
      <trkpt lat="51.5697155" lon="6.8491778">
        <ele>19.0000000</ele>
        <time>2009-03-10T10:36:53Z</time>
      </trkpt>
      <trkpt lat="51.5696811" lon="6.8491388">
        <ele>19.0000000</ele>
        <time>2009-03-10T10:36:53Z</time>
      </trkpt>
      <trkpt lat="51.5695685" lon="6.8491306">
        <ele>19.0000000</ele>
        <time>2009-03-10T10:36:53Z</time>
      </trkpt>
      <trkpt lat="51.5695245" lon="6.8490290">
        <ele>19.0000000</ele>
        <time>2009-03-10T10:36:53Z</time>
      </trkpt>
      <trkpt lat="51.5692311" lon="6.8486640">
        <ele>50.0000000</ele>
        <time>2009-03-10T10:36:53Z</time>
      </trkpt>
      <trkpt lat="51.5689881" lon="6.8484365">
        <ele>52.0000000</ele>
        <time>2009-03-10T10:36:53Z</time>
      </trkpt>
      <trkpt lat="51.5686977" lon="6.8482337">
        <ele>19.0000000</ele>
        <time>2009-03-10T10:36:53Z</time>
      </trkpt>
      <trkpt lat="51.5685154" lon="6.8480980">
        <ele>19.0000000</ele>
        <time>2009-03-10T10:36:53Z</time>
      </trkpt>
      <trkpt lat="51.5682795" lon="6.8478026">
        <ele>19.0000000</ele>
        <time>2009-03-10T10:36:53Z</time>
      </trkpt>
      <trkpt lat="51.5681359" lon="6.8476334">
        <ele>19.0000000</ele>
        <time>2009-03-10T10:36:53Z</time>
      </trkpt>
      <trkpt lat="51.5680953" lon="6.8475677">
        <ele>19.0000000</ele>
        <time>2009-03-10T10:36:53Z</time>
      </trkpt>
      <trkpt lat="51.5679653" lon="6.8472221">
        <ele>19.0000000</ele>
        <time>2009-03-10T10:36:53Z</time>
      </trkpt>
      <trkpt lat="51.5679214" lon="6.8471295">
        <ele>19.0000000</ele>
        <time>2009-03-10T10:36:53Z</time>
      </trkpt>
      <trkpt lat="51.5678378" lon="6.8470117">
        <ele>20.0000000</ele>
        <time>2009-03-10T10:36:53Z</time>
      </trkpt>
      <trkpt lat="51.5676391" lon="6.8469039">
        <ele>20.0000000</ele>
        <time>2009-03-10T10:36:53Z</time>
      </trkpt>
      <trkpt lat="51.5675261" lon="6.8468686">
        <ele>20.0000000</ele>
        <time>2009-03-10T10:36:53Z</time>
      </trkpt>
      <trkpt lat="51.5670926" lon="6.8477549">
        <ele>53.0000000</ele>
        <time>2009-03-10T10:36:53Z</time>
      </trkpt>
      <trkpt lat="51.5669360" lon="6.8480730">
        <ele>53.0000000</ele>
        <time>2009-03-10T10:36:53Z</time>
      </trkpt>
      <trkpt lat="51.5667680" lon="6.8484150">
        <ele>54.0000000</ele>
        <time>2009-03-10T10:36:53Z</time>
      </trkpt>
      <trkpt lat="51.5665160" lon="6.8489110">
        <ele>54.0000000</ele>
        <time>2009-03-10T10:36:53Z</time>
      </trkpt>
      <trkpt lat="51.5661800" lon="6.8496050">
        <ele>53.0000000</ele>
        <time>2009-03-10T10:36:53Z</time>
      </trkpt>
      <trkpt lat="51.5659270" lon="6.8501010">
        <ele>53.0000000</ele>
        <time>2009-03-10T10:36:53Z</time>
      </trkpt>
      <trkpt lat="51.5657030" lon="6.8505510">
        <ele>52.0000000</ele>
        <time>2009-03-10T10:36:53Z</time>
      </trkpt>
      <trkpt lat="51.5654290" lon="6.8511100">
        <ele>52.0000000</ele>
        <time>2009-03-10T10:36:53Z</time>
      </trkpt>
      <trkpt lat="51.5652550" lon="6.8514620">
        <ele>52.0000000</ele>
        <time>2009-03-10T10:36:53Z</time>
      </trkpt>
      <trkpt lat="51.5649810" lon="6.8520380">
        <ele>53.0000000</ele>
        <time>2009-03-10T10:36:53Z</time>
      </trkpt>
      <trkpt lat="51.5647620" lon="6.8524890">
        <ele>53.0000000</ele>
        <time>2009-03-10T10:36:53Z</time>
      </trkpt>
      <trkpt lat="51.5645660" lon="6.8529040">
        <ele>53.0000000</ele>
        <time>2009-03-10T10:36:53Z</time>
      </trkpt>
      <trkpt lat="51.5643140" lon="6.8534170">
        <ele>54.0000000</ele>
        <time>2009-03-10T10:36:53Z</time>
      </trkpt>
      <trkpt lat="51.5640500" lon="6.8539850">
        <ele>56.0000000</ele>
        <time>2009-03-10T10:36:53Z</time>
      </trkpt>
      <trkpt lat="51.5638320" lon="6.8544450">
        <ele>57.0000000</ele>
        <time>2009-03-10T10:36:53Z</time>
      </trkpt>
      <trkpt lat="51.5636530" lon="6.8548240">
        <ele>57.0000000</ele>
        <time>2009-03-10T10:36:53Z</time>
      </trkpt>
      <trkpt lat="51.5633840" lon="6.8544720">
        <ele>57.0000000</ele>
        <time>2009-03-10T10:36:53Z</time>
      </trkpt>
      <trkpt lat="51.5631150" lon="6.8541210">
        <ele>56.0000000</ele>
        <time>2009-03-10T10:36:53Z</time>
      </trkpt>
      <trkpt lat="51.5629350" lon="6.8538860">
        <ele>57.0000000</ele>
        <time>2009-03-10T10:36:53Z</time>
      </trkpt>
      <trkpt lat="51.5626440" lon="6.8535260">
        <ele>58.0000000</ele>
        <time>2009-03-10T10:36:53Z</time>
      </trkpt>
      <trkpt lat="51.5624310" lon="6.8532280">
        <ele>58.0000000</ele>
        <time>2009-03-10T10:36:53Z</time>
      </trkpt>
      <trkpt lat="51.5620840" lon="6.8527960">
        <ele>57.0000000</ele>
        <time>2009-03-10T10:36:53Z</time>
      </trkpt>
      <trkpt lat="51.5618990" lon="6.8525700">
        <ele>57.0000000</ele>
        <time>2009-03-10T10:36:53Z</time>
      </trkpt>
      <trkpt lat="51.5615960" lon="6.8521830">
        <ele>58.0000000</ele>
        <time>2009-03-10T10:36:53Z</time>
      </trkpt>
      <trkpt lat="51.5612100" lon="6.8517050">
        <ele>59.0000000</ele>
        <time>2009-03-10T10:36:53Z</time>
      </trkpt>
      <trkpt lat="51.5607730" lon="6.8511370">
        <ele>59.0000000</ele>
        <time>2009-03-10T10:36:53Z</time>
      </trkpt>
      <trkpt lat="51.5604420" lon="6.8506140">
        <ele>59.0000000</ele>
        <time>2009-03-10T10:36:53Z</time>
      </trkpt>
      <trkpt lat="51.5601280" lon="6.8501280">
        <ele>59.0000000</ele>
        <time>2009-03-10T10:36:53Z</time>
      </trkpt>
      <trkpt lat="51.5598480" lon="6.8497130">
        <ele>57.0000000</ele>
        <time>2009-03-10T10:36:53Z</time>
      </trkpt>
      <trkpt lat="51.5597810" lon="6.8495780">
        <ele>57.0000000</ele>
        <time>2009-03-10T10:36:53Z</time>
      </trkpt>
      <trkpt lat="51.5598310" lon="6.8494790">
        <ele>58.0000000</ele>
        <time>2009-03-10T10:36:53Z</time>
      </trkpt>
      <trkpt lat="51.5600390" lon="6.8491180">
        <ele>58.0000000</ele>
        <time>2009-03-10T10:36:53Z</time>
      </trkpt>
      <trkpt lat="51.5603020" lon="6.8486490">
        <ele>58.0000000</ele>
        <time>2009-03-10T10:36:53Z</time>
      </trkpt>
      <trkpt lat="51.5605430" lon="6.8482260">
        <ele>58.0000000</ele>
        <time>2009-03-10T10:36:53Z</time>
      </trkpt>
      <trkpt lat="51.5607670" lon="6.8478200">
        <ele>59.0000000</ele>
        <time>2009-03-10T10:36:53Z</time>
      </trkpt>
      <trkpt lat="51.5611140" lon="6.8472160">
        <ele>59.0000000</ele>
        <time>2009-03-10T10:36:53Z</time>
      </trkpt>
      <trkpt lat="51.5613890" lon="6.8467210">
        <ele>59.0000000</ele>
        <time>2009-03-10T10:36:53Z</time>
      </trkpt>
      <trkpt lat="51.5611820" lon="6.8467390">
        <ele>59.0000000</ele>
        <time>2009-03-10T10:36:53Z</time>
      </trkpt>
      <trkpt lat="51.5608790" lon="6.8467750">
        <ele>60.0000000</ele>
        <time>2009-03-10T10:36:53Z</time>
      </trkpt>
      <trkpt lat="51.5607950" lon="6.8467750">
        <ele>60.0000000</ele>
        <time>2009-03-10T10:36:53Z</time>
      </trkpt>
      <trkpt lat="51.5603070" lon="6.8468290">
        <ele>60.0000000</ele>
        <time>2009-03-10T10:36:53Z</time>
      </trkpt>
      <trkpt lat="51.5598700" lon="6.8468650">
        <ele>61.0000000</ele>
        <time>2009-03-10T10:36:53Z</time>
      </trkpt>
      <trkpt lat="51.5593830" lon="6.8469190">
        <ele>62.0000000</ele>
        <time>2009-03-10T10:36:53Z</time>
      </trkpt>
      <trkpt lat="51.5591700" lon="6.8469370">
        <ele>62.0000000</ele>
        <time>2009-03-10T10:36:53Z</time>
      </trkpt>
      <trkpt lat="51.5586490" lon="6.8469820">
        <ele>63.0000000</ele>
        <time>2009-03-10T10:36:53Z</time>
      </trkpt>
      <trkpt lat="51.5584300" lon="6.8470000">
        <ele>64.0000000</ele>
        <time>2009-03-10T10:36:53Z</time>
      </trkpt>
      <trkpt lat="51.5576740" lon="6.8471440">
        <ele>64.0000000</ele>
        <time>2009-03-10T10:36:53Z</time>
      </trkpt>
      <trkpt lat="51.5574440" lon="6.8472880">
        <ele>65.0000000</ele>
        <time>2009-03-10T10:36:53Z</time>
      </trkpt>
      <trkpt lat="51.5572370" lon="6.8474870">
        <ele>65.0000000</ele>
        <time>2009-03-10T10:36:53Z</time>
      </trkpt>
      <trkpt lat="51.5566030" lon="6.8481630">
        <ele>66.0000000</ele>
        <time>2009-03-10T10:36:53Z</time>
      </trkpt>
      <trkpt lat="51.5561830" lon="6.8486040">
        <ele>67.0000000</ele>
        <time>2009-03-10T10:36:53Z</time>
      </trkpt>
      <trkpt lat="51.5560820" lon="6.8487400">
        <ele>66.0000000</ele>
        <time>2009-03-10T10:36:53Z</time>
      </trkpt>
      <trkpt lat="51.5549220" lon="6.8500280">
        <ele>67.0000000</ele>
        <time>2009-03-10T10:36:53Z</time>
      </trkpt>
      <trkpt lat="51.5552860" lon="6.8507680">
        <ele>67.0000000</ele>
        <time>2009-03-10T10:36:53Z</time>
      </trkpt>
      <trkpt lat="51.5553990" lon="6.8510380">
        <ele>67.0000000</ele>
        <time>2009-03-10T10:36:53Z</time>
      </trkpt>
      <trkpt lat="51.5541710" lon="6.8532370">
        <ele>67.0000000</ele>
        <time>2009-03-10T10:36:53Z</time>
      </trkpt>
      <trkpt lat="51.5533810" lon="6.8546430">
        <ele>67.0000000</ele>
        <time>2009-03-10T10:36:53Z</time>
      </trkpt>
      <trkpt lat="51.5539300" lon="6.8553190">
        <ele>66.0000000</ele>
        <time>2009-03-10T10:36:53Z</time>
      </trkpt>
      <trkpt lat="51.5547200" lon="6.8562570">
        <ele>65.0000000</ele>
        <time>2009-03-10T10:36:53Z</time>
      </trkpt>
      <trkpt lat="51.5551860" lon="6.8568250">
        <ele>64.0000000</ele>
        <time>2009-03-10T10:36:53Z</time>
      </trkpt>
      <trkpt lat="51.5558470" lon="6.8576180">
        <ele>63.0000000</ele>
        <time>2009-03-10T10:36:53Z</time>
      </trkpt>
      <trkpt lat="51.5564910" lon="6.8584020">
        <ele>61.0000000</ele>
        <time>2009-03-10T10:36:53Z</time>
      </trkpt>
      <trkpt lat="51.5571530" lon="6.8591680">
        <ele>61.0000000</ele>
        <time>2009-03-10T10:36:53Z</time>
      </trkpt>
      <trkpt lat="51.5575670" lon="6.8596820">
        <ele>60.0000000</ele>
        <time>2009-03-10T10:36:53Z</time>
      </trkpt>
      <trkpt lat="51.5572090" lon="6.8602590">
        <ele>59.0000000</ele>
        <time>2009-03-10T10:36:53Z</time>
      </trkpt>
      <trkpt lat="51.5571580" lon="6.8604570">
        <ele>58.0000000</ele>
        <time>2009-03-10T10:36:53Z</time>
      </trkpt>
      <trkpt lat="51.5567880" lon="6.8611780">
        <ele>57.0000000</ele>
        <time>2009-03-10T10:36:53Z</time>
      </trkpt>
      <trkpt lat="51.5561830" lon="6.8622060">
        <ele>57.0000000</ele>
        <time>2009-03-10T10:36:53Z</time>
      </trkpt>
      <trkpt lat="51.5559370" lon="6.8626470">
        <ele>57.0000000</ele>
        <time>2009-03-10T10:36:53Z</time>
      </trkpt>
      <trkpt lat="51.5557630" lon="6.8629540">
        <ele>57.0000000</ele>
        <time>2009-03-10T10:36:53Z</time>
      </trkpt>
      <trkpt lat="51.5552020" lon="6.8639270">
        <ele>55.0000000</ele>
        <time>2009-03-10T10:36:53Z</time>
      </trkpt>
      <trkpt lat="51.5542050" lon="6.8656940">
        <ele>56.0000000</ele>
        <time>2009-03-10T10:36:53Z</time>
      </trkpt>
      <trkpt lat="51.5541380" lon="6.8657390">
        <ele>56.0000000</ele>
        <time>2009-03-10T10:36:53Z</time>
      </trkpt>
      <trkpt lat="51.5540250" lon="6.8655590">
        <ele>56.0000000</ele>
        <time>2009-03-10T10:36:53Z</time>
      </trkpt>
      <trkpt lat="51.5538630" lon="6.8653870">
        <ele>56.0000000</ele>
        <time>2009-03-10T10:36:53Z</time>
      </trkpt>
      <trkpt lat="51.5537400" lon="6.8652610">
        <ele>56.0000000</ele>
        <time>2009-03-10T10:36:53Z</time>
      </trkpt>
      <trkpt lat="51.5534590" lon="6.8648920">
        <ele>58.0000000</ele>
        <time>2009-03-10T10:36:53Z</time>
      </trkpt>
      <trkpt lat="51.5530280" lon="6.8643960">
        <ele>58.0000000</ele>
        <time>2009-03-10T10:36:53Z</time>
      </trkpt>
      <trkpt lat="51.5525460" lon="6.8638190">
        <ele>58.0000000</ele>
        <time>2009-03-10T10:36:53Z</time>
      </trkpt>
      <trkpt lat="51.5518680" lon="6.8629900">
        <ele>58.0000000</ele>
        <time>2009-03-10T10:36:53Z</time>
      </trkpt>
      <trkpt lat="51.5517840" lon="6.8629000">
        <ele>58.0000000</ele>
        <time>2009-03-10T10:36:53Z</time>
      </trkpt>
      <trkpt lat="51.5514810" lon="6.8630170">
        <ele>58.0000000</ele>
        <time>2009-03-10T10:36:53Z</time>
      </trkpt>
      <trkpt lat="51.5512680" lon="6.8630980">
        <ele>58.0000000</ele>
        <time>2009-03-10T10:36:53Z</time>
      </trkpt>
      <trkpt lat="51.5510500" lon="6.8632060">
        <ele>58.0000000</ele>
        <time>2009-03-10T10:36:53Z</time>
      </trkpt>
      <trkpt lat="51.5509430" lon="6.8637740">
        <ele>57.0000000</ele>
        <time>2009-03-10T10:36:53Z</time>
      </trkpt>
      <trkpt lat="51.5508250" lon="6.8642520">
        <ele>58.0000000</ele>
        <time>2009-03-10T10:36:53Z</time>
      </trkpt>
      <trkpt lat="51.5507360" lon="6.8646750">
        <ele>57.0000000</ele>
        <time>2009-03-10T10:36:53Z</time>
      </trkpt>
      <trkpt lat="51.5507300" lon="6.8650360">
        <ele>57.0000000</ele>
        <time>2009-03-10T10:36:53Z</time>
      </trkpt>
      <trkpt lat="51.5507800" lon="6.8651980">
        <ele>57.0000000</ele>
        <time>2009-03-10T10:36:53Z</time>
      </trkpt>
      <trkpt lat="51.5508200" lon="6.8660360">
        <ele>59.0000000</ele>
        <time>2009-03-10T10:36:53Z</time>
      </trkpt>
      <trkpt lat="51.5507860" lon="6.8664510">
        <ele>59.0000000</ele>
        <time>2009-03-10T10:36:53Z</time>
      </trkpt>
      <trkpt lat="51.5507130" lon="6.8668110">
        <ele>60.0000000</ele>
        <time>2009-03-10T10:36:53Z</time>
      </trkpt>
      <trkpt lat="51.5505840" lon="6.8672890">
        <ele>61.0000000</ele>
        <time>2009-03-10T10:36:53Z</time>
      </trkpt>
      <trkpt lat="51.5503600" lon="6.8682170">
        <ele>63.0000000</ele>
        <time>2009-03-10T10:36:53Z</time>
      </trkpt>
      <trkpt lat="51.5501530" lon="6.8690650">
        <ele>64.0000000</ele>
        <time>2009-03-10T10:36:53Z</time>
      </trkpt>
      <trkpt lat="51.5500856" lon="6.8693746">
        <ele>22.0000000</ele>
        <time>2009-03-10T10:36:53Z</time>
      </trkpt>
      <trkpt lat="51.5494145" lon="6.8690994">
        <ele>18.0000000</ele>
        <time>2009-03-10T10:36:53Z</time>
      </trkpt>
      <trkpt lat="51.5487664" lon="6.8688458">
        <ele>66.0000000</ele>
        <time>2009-03-10T10:36:53Z</time>
      </trkpt>
      <trkpt lat="51.5482167" lon="6.8686010">
        <ele>66.0000000</ele>
        <time>2009-03-10T10:36:53Z</time>
      </trkpt>
      <trkpt lat="51.5477703" lon="6.8684686">
        <ele>65.0000000</ele>
        <time>2009-03-10T10:36:53Z</time>
      </trkpt>
      <trkpt lat="51.5476263" lon="6.8684303">
        <ele>18.0000000</ele>
        <time>2009-03-10T10:36:53Z</time>
      </trkpt>
      <trkpt lat="51.5476140" lon="6.8685330">
        <ele>64.0000000</ele>
        <time>2009-03-10T10:36:53Z</time>
      </trkpt>
      <trkpt lat="51.5466330" lon="6.8715880">
        <ele>64.0000000</ele>
        <time>2009-03-10T10:36:53Z</time>
      </trkpt>
      <trkpt lat="51.5465430" lon="6.8718230">
        <ele>64.0000000</ele>
        <time>2009-03-10T10:36:53Z</time>
      </trkpt>
      <trkpt lat="51.5464760" lon="6.8718590">
        <ele>64.0000000</ele>
        <time>2009-03-10T10:36:53Z</time>
      </trkpt>
      <trkpt lat="51.5464204" lon="6.8721285">
        <ele>17.0000000</ele>
        <time>2009-03-10T10:36:53Z</time>
      </trkpt>
      <trkpt lat="51.5463983" lon="6.8721566">
        <ele>17.0000000</ele>
        <time>2009-03-10T10:36:53Z</time>
      </trkpt>
      <trkpt lat="51.5457375" lon="6.8722866">
        <ele>66.0000000</ele>
        <time>2009-03-10T10:36:53Z</time>
      </trkpt>
      <trkpt lat="51.5454909" lon="6.8723252">
        <ele>65.0000000</ele>
        <time>2009-03-10T10:36:53Z</time>
      </trkpt>
      <trkpt lat="51.5449816" lon="6.8724481">
        <ele>17.0000000</ele>
        <time>2009-03-10T10:36:53Z</time>
      </trkpt>
      <trkpt lat="51.5447890" lon="6.8725980">
        <ele>65.0000000</ele>
        <time>2009-03-10T10:36:53Z</time>
      </trkpt>
      <trkpt lat="51.5441151" lon="6.8733269">
        <ele>69.0000000</ele>
        <time>2009-03-10T10:36:53Z</time>
      </trkpt>
      <trkpt lat="51.5439162" lon="6.8735164">
        <ele>17.0000000</ele>
        <time>2009-03-10T10:36:53Z</time>
      </trkpt>
      <trkpt lat="51.5438993" lon="6.8735173">
        <ele>69.0000000</ele>
        <time>2009-03-10T10:36:53Z</time>
      </trkpt>
      <trkpt lat="51.5437977" lon="6.8736482">
        <ele>17.0000000</ele>
        <time>2009-03-10T10:36:53Z</time>
      </trkpt>
      <trkpt lat="51.5433814" lon="6.8740912">
        <ele>17.0000000</ele>
        <time>2009-03-10T10:36:53Z</time>
      </trkpt>
      <trkpt lat="51.5428079" lon="6.8747039">
        <ele>71.0000000</ele>
        <time>2009-03-10T10:36:53Z</time>
      </trkpt>
      <trkpt lat="51.5425708" lon="6.8749538">
        <ele>18.0000000</ele>
        <time>2009-03-10T10:36:53Z</time>
      </trkpt>
      <trkpt lat="51.5424665" lon="6.8750939">
        <ele>18.0000000</ele>
        <time>2009-03-10T10:36:53Z</time>
      </trkpt>
      <trkpt lat="51.5421623" lon="6.8756805">
        <ele>18.0000000</ele>
        <time>2009-03-10T10:36:53Z</time>
      </trkpt>
      <trkpt lat="51.5420931" lon="6.8760442">
        <ele>20.0000000</ele>
        <time>2009-03-10T10:36:53Z</time>
      </trkpt>
      <trkpt lat="51.5421921" lon="6.8763912">
        <ele>20.0000000</ele>
        <time>2009-03-10T10:36:53Z</time>
      </trkpt>
      <trkpt lat="51.5422021" lon="6.8764763">
        <ele>20.0000000</ele>
        <time>2009-03-10T10:36:53Z</time>
      </trkpt>
      <trkpt lat="51.5421526" lon="6.8766949">
        <ele>24.0000000</ele>
        <time>2009-03-10T10:36:53Z</time>
      </trkpt>
      <trkpt lat="51.5421174" lon="6.8769219">
        <ele>66.0000000</ele>
        <time>2009-03-10T10:36:53Z</time>
      </trkpt>
      <trkpt lat="51.5421135" lon="6.8770168">
        <ele>24.0000000</ele>
        <time>2009-03-10T10:36:53Z</time>
      </trkpt>
      <trkpt lat="51.5420420" lon="6.8776000">
        <ele>68.0000000</ele>
        <time>2009-03-10T10:36:53Z</time>
      </trkpt>
      <trkpt lat="51.5418960" lon="6.8780240">
        <ele>68.0000000</ele>
        <time>2009-03-10T10:36:53Z</time>
      </trkpt>
      <trkpt lat="51.5417220" lon="6.8786820">
        <ele>70.0000000</ele>
        <time>2009-03-10T10:36:53Z</time>
      </trkpt>
      <trkpt lat="51.5416890" lon="6.8787990">
        <ele>69.0000000</ele>
        <time>2009-03-10T10:36:53Z</time>
      </trkpt>
      <trkpt lat="51.5415671" lon="6.8791243">
        <ele>69.0000000</ele>
        <time>2009-03-10T10:36:53Z</time>
      </trkpt>
      <trkpt lat="51.5413050" lon="6.8792447">
        <ele>19.0000000</ele>
        <time>2009-03-10T10:36:53Z</time>
      </trkpt>
      <trkpt lat="51.5411797" lon="6.8793046">
        <ele>19.0000000</ele>
        <time>2009-03-10T10:36:53Z</time>
      </trkpt>
      <trkpt lat="51.5411318" lon="6.8792978">
        <ele>68.0000000</ele>
        <time>2009-03-10T10:36:53Z</time>
      </trkpt>
      <trkpt lat="51.5407834" lon="6.8793050">
        <ele>17.0000000</ele>
        <time>2009-03-10T10:36:53Z</time>
      </trkpt>
      <trkpt lat="51.5404379" lon="6.8793121">
        <ele>66.0000000</ele>
        <time>2009-03-10T10:36:53Z</time>
      </trkpt>
      <trkpt lat="51.5396990" lon="6.8791780">
        <ele>65.0000000</ele>
        <time>2009-03-10T10:36:53Z</time>
      </trkpt>
      <trkpt lat="51.5394300" lon="6.8790880">
        <ele>67.0000000</ele>
        <time>2009-03-10T10:36:53Z</time>
      </trkpt>
      <trkpt lat="51.5388781" lon="6.8789970">
        <ele>22.0000000</ele>
        <time>2009-03-10T10:36:53Z</time>
      </trkpt>
      <trkpt lat="51.5385959" lon="6.8789381">
        <ele>66.0000000</ele>
        <time>2009-03-10T10:36:53Z</time>
      </trkpt>
      <trkpt lat="51.5382767" lon="6.8789979">
        <ele>66.0000000</ele>
        <time>2009-03-10T10:36:53Z</time>
      </trkpt>
      <trkpt lat="51.5377530" lon="6.8790610">
        <ele>65.0000000</ele>
        <time>2009-03-10T10:36:53Z</time>
      </trkpt>
      <trkpt lat="51.5369983" lon="6.8791746">
        <ele>17.0000000</ele>
        <time>2009-03-10T10:36:53Z</time>
      </trkpt>
      <trkpt lat="51.5366252" lon="6.8792100">
        <ele>17.0000000</ele>
        <time>2009-03-10T10:36:53Z</time>
      </trkpt>
      <trkpt lat="51.5364764" lon="6.8792169">
        <ele>18.0000000</ele>
        <time>2009-03-10T10:36:53Z</time>
      </trkpt>
      <trkpt lat="51.5358580" lon="6.8792680">
        <ele>65.0000000</ele>
        <time>2009-03-10T10:36:53Z</time>
      </trkpt>
      <trkpt lat="51.5348600" lon="6.8793760">
        <ele>66.0000000</ele>
        <time>2009-03-10T10:36:53Z</time>
      </trkpt>
      <trkpt lat="51.5337170" lon="6.8795200">
        <ele>66.0000000</ele>
        <time>2009-03-10T10:36:53Z</time>
      </trkpt>
      <trkpt lat="51.5334368" lon="6.8795925">
        <ele>72.0000000</ele>
        <time>2009-03-10T10:36:53Z</time>
      </trkpt>
      <trkpt lat="51.5332177" lon="6.8795982">
        <ele>72.0000000</ele>
        <time>2009-03-10T10:36:53Z</time>
      </trkpt>
      <trkpt lat="51.5328163" lon="6.8797836">
        <ele>73.0000000</ele>
        <time>2009-03-10T10:36:53Z</time>
      </trkpt>
      <trkpt lat="51.5323414" lon="6.8799408">
        <ele>74.0000000</ele>
        <time>2009-03-10T10:36:53Z</time>
      </trkpt>
      <trkpt lat="51.5327700" lon="6.8793982">
        <ele>28.0000000</ele>
        <time>2009-03-10T10:36:53Z</time>
      </trkpt>
      <trkpt lat="51.5318495" lon="6.8794725">
        <ele>74.0000000</ele>
        <time>2009-03-10T10:36:53Z</time>
      </trkpt>
      <trkpt lat="51.5316022" lon="6.8800968">
        <ele>30.0000000</ele>
        <time>2009-03-10T10:36:53Z</time>
      </trkpt>
      <trkpt lat="51.5313153" lon="6.8803940">
        <ele>30.0000000</ele>
        <time>2009-03-10T10:36:53Z</time>
      </trkpt>
      <trkpt lat="51.5309870" lon="6.8805760">
        <ele>27.0000000</ele>
        <time>2009-03-10T10:36:53Z</time>
      </trkpt>
      <trkpt lat="51.5309482" lon="6.8806048">
        <ele>27.0000000</ele>
        <time>2009-03-10T10:36:53Z</time>
      </trkpt>
      <trkpt lat="51.5309369" lon="6.8806009">
        <ele>27.0000000</ele>
        <time>2009-03-10T10:36:53Z</time>
      </trkpt>
      <trkpt lat="51.5306366" lon="6.8807770">
        <ele>27.0000000</ele>
        <time>2009-03-10T10:36:53Z</time>
      </trkpt>
      <trkpt lat="51.5306061" lon="6.8808055">
        <ele>27.0000000</ele>
        <time>2009-03-10T10:36:53Z</time>
      </trkpt>
      <trkpt lat="51.5299758" lon="6.8809159">
        <ele>71.0000000</ele>
        <time>2009-03-10T10:36:53Z</time>
      </trkpt>
      <trkpt lat="51.5298443" lon="6.8809490">
        <ele>28.0000000</ele>
        <time>2009-03-10T10:36:53Z</time>
      </trkpt>
      <trkpt lat="51.5296134" lon="6.8810769">
        <ele>66.0000000</ele>
        <time>2009-03-10T10:36:53Z</time>
      </trkpt>
      <trkpt lat="51.5292536" lon="6.8810755">
        <ele>74.0000000</ele>
        <time>2009-03-10T10:36:53Z</time>
      </trkpt>
      <trkpt lat="51.5282330" lon="6.8810800">
        <ele>77.0000000</ele>
        <time>2009-03-10T10:36:53Z</time>
      </trkpt>
      <trkpt lat="51.5275990" lon="6.8809350">
        <ele>76.0000000</ele>
        <time>2009-03-10T10:36:53Z</time>
      </trkpt>
      <trkpt lat="51.5274760" lon="6.8815210">
        <ele>75.0000000</ele>
        <time>2009-03-10T10:36:53Z</time>
      </trkpt>
      <trkpt lat="51.5274530" lon="6.8819360">
        <ele>75.0000000</ele>
        <time>2009-03-10T10:36:53Z</time>
      </trkpt>
      <trkpt lat="51.5272510" lon="6.8821250">
        <ele>74.0000000</ele>
        <time>2009-03-10T10:36:53Z</time>
      </trkpt>
      <trkpt lat="51.5270830" lon="6.8821610">
        <ele>72.0000000</ele>
        <time>2009-03-10T10:36:53Z</time>
      </trkpt>
      <trkpt lat="51.5268650" lon="6.8821520">
        <ele>71.0000000</ele>
        <time>2009-03-10T10:36:53Z</time>
      </trkpt>
      <trkpt lat="51.5266570" lon="6.8821880">
        <ele>71.0000000</ele>
        <time>2009-03-10T10:36:53Z</time>
      </trkpt>
      <trkpt lat="51.5264890" lon="6.8822960">
        <ele>70.0000000</ele>
        <time>2009-03-10T10:36:53Z</time>
      </trkpt>
      <trkpt lat="51.5262310" lon="6.8824410">
        <ele>69.0000000</ele>
        <time>2009-03-10T10:36:53Z</time>
      </trkpt>
      <trkpt lat="51.5259170" lon="6.8826480">
        <ele>68.0000000</ele>
        <time>2009-03-10T10:36:53Z</time>
      </trkpt>
      <trkpt lat="51.5257990" lon="6.8826750">
        <ele>68.0000000</ele>
        <time>2009-03-10T10:36:53Z</time>
      </trkpt>
      <trkpt lat="51.5258035" lon="6.8826865">
        <ele>68.0000000</ele>
        <time>2009-03-10T10:36:53Z</time>
      </trkpt>
      <trkpt lat="51.5258276" lon="6.8821537">
        <ele>27.0000000</ele>
        <time>2009-03-10T10:36:53Z</time>
      </trkpt>
      <trkpt lat="51.5256642" lon="6.8818189">
        <ele>67.0000000</ele>
        <time>2009-03-10T10:36:53Z</time>
      </trkpt>
      <trkpt lat="51.5254476" lon="6.8813423">
        <ele>25.0000000</ele>
        <time>2009-03-10T10:36:53Z</time>
      </trkpt>
      <trkpt lat="51.5252846" lon="6.8810346">
        <ele>66.0000000</ele>
        <time>2009-03-10T10:36:53Z</time>
      </trkpt>
      <trkpt lat="51.5249555" lon="6.8805453">
        <ele>66.0000000</ele>
        <time>2009-03-10T10:36:53Z</time>
      </trkpt>
      <trkpt lat="51.5248740" lon="6.8803950">
        <ele>67.0000000</ele>
        <time>2009-03-10T10:36:53Z</time>
      </trkpt>
      <trkpt lat="51.5247170" lon="6.8801510">
        <ele>66.0000000</ele>
        <time>2009-03-10T10:36:53Z</time>
      </trkpt>
      <trkpt lat="51.5246660" lon="6.8803490">
        <ele>65.0000000</ele>
        <time>2009-03-10T10:36:53Z</time>
      </trkpt>
      <trkpt lat="51.5239930" lon="6.8809350">
        <ele>66.0000000</ele>
        <time>2009-03-10T10:36:53Z</time>
      </trkpt>
      <trkpt lat="51.5238310" lon="6.8811070">
        <ele>65.0000000</ele>
        <time>2009-03-10T10:36:53Z</time>
      </trkpt>
      <trkpt lat="51.5235560" lon="6.8814670">
        <ele>65.0000000</ele>
        <time>2009-03-10T10:36:53Z</time>
      </trkpt>
      <trkpt lat="51.5233880" lon="6.8818190">
        <ele>68.0000000</ele>
        <time>2009-03-10T10:36:53Z</time>
      </trkpt>
      <trkpt lat="51.5233150" lon="6.8821070">
        <ele>69.0000000</ele>
        <time>2009-03-10T10:36:53Z</time>
      </trkpt>
      <trkpt lat="51.5232420" lon="6.8822330">
        <ele>69.0000000</ele>
        <time>2009-03-10T10:36:53Z</time>
      </trkpt>
      <trkpt lat="51.5227540" lon="6.8826840">
        <ele>69.0000000</ele>
        <time>2009-03-10T10:36:53Z</time>
      </trkpt>
      <trkpt lat="51.5224790" lon="6.8829000">
        <ele>72.0000000</ele>
        <time>2009-03-10T10:36:53Z</time>
      </trkpt>
      <trkpt lat="51.5222830" lon="6.8831080">
        <ele>72.0000000</ele>
        <time>2009-03-10T10:36:53Z</time>
      </trkpt>
      <trkpt lat="51.5218850" lon="6.8833690">
        <ele>72.0000000</ele>
        <time>2009-03-10T10:36:53Z</time>
      </trkpt>
      <trkpt lat="51.5214810" lon="6.8820170">
        <ele>69.0000000</ele>
        <time>2009-03-10T10:36:53Z</time>
      </trkpt>
      <trkpt lat="51.5212680" lon="6.8822330">
        <ele>70.0000000</ele>
        <time>2009-03-10T10:36:53Z</time>
      </trkpt>
      <trkpt lat="51.5210880" lon="6.8824590">
        <ele>71.0000000</ele>
        <time>2009-03-10T10:36:53Z</time>
      </trkpt>
      <trkpt lat="51.5208920" lon="6.8828730">
        <ele>72.0000000</ele>
        <time>2009-03-10T10:36:53Z</time>
      </trkpt>
      <trkpt lat="51.5207010" lon="6.8833330">
        <ele>73.0000000</ele>
        <time>2009-03-10T10:36:53Z</time>
      </trkpt>
      <trkpt lat="51.5205780" lon="6.8835850">
        <ele>74.0000000</ele>
        <time>2009-03-10T10:36:53Z</time>
      </trkpt>
      <trkpt lat="51.5204320" lon="6.8840810">
        <ele>73.0000000</ele>
        <time>2009-03-10T10:36:53Z</time>
      </trkpt>
      <trkpt lat="51.5202860" lon="6.8841800">
        <ele>73.0000000</ele>
        <time>2009-03-10T10:36:53Z</time>
      </trkpt>
      <trkpt lat="51.5201630" lon="6.8842070">
        <ele>72.0000000</ele>
        <time>2009-03-10T10:36:53Z</time>
      </trkpt>
      <trkpt lat="51.5201120" lon="6.8842430">
        <ele>72.0000000</ele>
        <time>2009-03-10T10:36:53Z</time>
      </trkpt>
      <trkpt lat="51.5196640" lon="6.8841620">
        <ele>72.0000000</ele>
        <time>2009-03-10T10:36:53Z</time>
      </trkpt>
      <trkpt lat="51.5195680" lon="6.8841080">
        <ele>73.0000000</ele>
        <time>2009-03-10T10:36:53Z</time>
      </trkpt>
      <trkpt lat="51.5192260" lon="6.8840090">
        <ele>73.0000000</ele>
        <time>2009-03-10T10:36:53Z</time>
      </trkpt>
      <trkpt lat="51.5189850" lon="6.8838200">
        <ele>71.0000000</ele>
        <time>2009-03-10T10:36:53Z</time>
      </trkpt>
      <trkpt lat="51.5188670" lon="6.8840900">
        <ele>72.0000000</ele>
        <time>2009-03-10T10:36:53Z</time>
      </trkpt>
      <trkpt lat="51.5187890" lon="6.8842430">
        <ele>73.0000000</ele>
        <time>2009-03-10T10:36:53Z</time>
      </trkpt>
      <trkpt lat="51.5188340" lon="6.8843420">
        <ele>74.0000000</ele>
        <time>2009-03-10T10:36:53Z</time>
      </trkpt>
      <trkpt lat="51.5190640" lon="6.8844870">
        <ele>75.0000000</ele>
        <time>2009-03-10T10:36:53Z</time>
      </trkpt>
      <trkpt lat="51.5190860" lon="6.8845770">
        <ele>75.0000000</ele>
        <time>2009-03-10T10:36:53Z</time>
      </trkpt>
      <trkpt lat="51.5189290" lon="6.8849550">
        <ele>75.0000000</ele>
        <time>2009-03-10T10:36:53Z</time>
      </trkpt>
      <trkpt lat="51.5188840" lon="6.8850810">
        <ele>75.0000000</ele>
        <time>2009-03-10T10:36:53Z</time>
      </trkpt>
      <trkpt lat="51.5188900" lon="6.8852530">
        <ele>75.0000000</ele>
        <time>2009-03-10T10:36:53Z</time>
      </trkpt>
      <trkpt lat="51.5191930" lon="6.8866860">
        <ele>75.0000000</ele>
        <time>2009-03-10T10:36:53Z</time>
      </trkpt>
      <trkpt lat="51.5193220" lon="6.8872990">
        <ele>75.0000000</ele>
        <time>2009-03-10T10:36:53Z</time>
      </trkpt>
      <trkpt lat="51.5193780" lon="6.8875780">
        <ele>75.0000000</ele>
        <time>2009-03-10T10:36:53Z</time>
      </trkpt>
      <trkpt lat="51.5194560" lon="6.8876590">
        <ele>75.0000000</ele>
        <time>2009-03-10T10:36:53Z</time>
      </trkpt>
      <trkpt lat="51.5195910" lon="6.8881910">
        <ele>75.0000000</ele>
        <time>2009-03-10T10:36:53Z</time>
      </trkpt>
      <trkpt lat="51.5199330" lon="6.8898230">
        <ele>75.0000000</ele>
        <time>2009-03-10T10:36:53Z</time>
      </trkpt>
      <trkpt lat="51.5201850" lon="6.8912200">
        <ele>74.0000000</ele>
        <time>2009-03-10T10:36:53Z</time>
      </trkpt>
      <trkpt lat="51.5203310" lon="6.8920310">
        <ele>75.0000000</ele>
        <time>2009-03-10T10:36:53Z</time>
      </trkpt>
      <trkpt lat="51.5203469" lon="6.8924177">
        <ele>25.0000000</ele>
        <time>2009-03-10T10:36:53Z</time>
      </trkpt>
      <trkpt lat="51.5199627" lon="6.8926246">
        <ele>24.0000000</ele>
        <time>2009-03-10T10:36:53Z</time>
      </trkpt>
      <trkpt lat="51.5197763" lon="6.8927278">
        <ele>74.0000000</ele>
        <time>2009-03-10T10:36:53Z</time>
      </trkpt>
      <trkpt lat="51.5198994" lon="6.8933258">
        <ele>74.0000000</ele>
        <time>2009-03-10T10:36:53Z</time>
      </trkpt>
      <trkpt lat="51.5199094" lon="6.8934109">
        <ele>25.0000000</ele>
        <time>2009-03-10T10:36:53Z</time>
      </trkpt>
      <trkpt lat="51.5198602" lon="6.8938005">
        <ele>25.0000000</ele>
        <time>2009-03-10T10:36:53Z</time>
      </trkpt>
      <trkpt lat="51.5197140" lon="6.8939510">
        <ele>71.0000000</ele>
        <time>2009-03-10T10:36:53Z</time>
      </trkpt>
      <trkpt lat="51.5195740" lon="6.8939510">
        <ele>71.0000000</ele>
        <time>2009-03-10T10:36:53Z</time>
      </trkpt>
      <trkpt lat="51.5191480" lon="6.8939690">
        <ele>69.0000000</ele>
        <time>2009-03-10T10:36:53Z</time>
      </trkpt>
      <trkpt lat="51.5180820" lon="6.8939960">
        <ele>67.0000000</ele>
        <time>2009-03-10T10:36:53Z</time>
      </trkpt>
      <trkpt lat="51.5176050" lon="6.8939780">
        <ele>66.0000000</ele>
        <time>2009-03-10T10:36:53Z</time>
      </trkpt>
      <trkpt lat="51.5172630" lon="6.8939240">
        <ele>67.0000000</ele>
        <time>2009-03-10T10:36:53Z</time>
      </trkpt>
      <trkpt lat="51.5165680" lon="6.8938330">
        <ele>64.0000000</ele>
        <time>2009-03-10T10:36:53Z</time>
      </trkpt>
      <trkpt lat="51.5158160" lon="6.8937160">
        <ele>62.0000000</ele>
        <time>2009-03-10T10:36:53Z</time>
      </trkpt>
      <trkpt lat="51.5153060" lon="6.8937250">
        <ele>61.0000000</ele>
        <time>2009-03-10T10:36:53Z</time>
      </trkpt>
      <trkpt lat="51.5146210" lon="6.8937250">
        <ele>59.0000000</ele>
        <time>2009-03-10T10:36:53Z</time>
      </trkpt>
      <trkpt lat="51.5145770" lon="6.8938510">
        <ele>58.0000000</ele>
        <time>2009-03-10T10:36:53Z</time>
      </trkpt>
      <trkpt lat="51.5144980" lon="6.8942840">
        <ele>58.0000000</ele>
        <time>2009-03-10T10:36:53Z</time>
      </trkpt>
      <trkpt lat="51.5142850" lon="6.8954380">
        <ele>57.0000000</ele>
        <time>2009-03-10T10:36:53Z</time>
      </trkpt>
      <trkpt lat="51.5140160" lon="6.8966370">
        <ele>55.0000000</ele>
        <time>2009-03-10T10:36:53Z</time>
      </trkpt>
      <trkpt lat="51.5138870" lon="6.8971500">
        <ele>55.0000000</ele>
        <time>2009-03-10T10:36:53Z</time>
      </trkpt>
      <trkpt lat="51.5137520" lon="6.8974660">
        <ele>55.0000000</ele>
        <time>2009-03-10T10:36:53Z</time>
      </trkpt>
      <trkpt lat="51.5135220" lon="6.8979170">
        <ele>55.0000000</ele>
        <time>2009-03-10T10:36:53Z</time>
      </trkpt>
      <trkpt lat="51.5132470" lon="6.8984660">
        <ele>55.0000000</ele>
        <time>2009-03-10T10:36:53Z</time>
      </trkpt>
      <trkpt lat="51.5131180" lon="6.8986020">
        <ele>56.0000000</ele>
        <time>2009-03-10T10:36:53Z</time>
      </trkpt>
      <trkpt lat="51.5130730" lon="6.8987010">
        <ele>56.0000000</ele>
        <time>2009-03-10T10:36:53Z</time>
      </trkpt>
      <trkpt lat="51.5129330" lon="6.8989980">
        <ele>57.0000000</ele>
        <time>2009-03-10T10:36:53Z</time>
      </trkpt>
      <trkpt lat="51.5127700" lon="6.8993950">
        <ele>57.0000000</ele>
        <time>2009-03-10T10:36:53Z</time>
      </trkpt>
      <trkpt lat="51.5126300" lon="6.8996560">
        <ele>56.0000000</ele>
        <time>2009-03-10T10:36:53Z</time>
      </trkpt>
      <trkpt lat="51.5123500" lon="6.9000620">
        <ele>52.0000000</ele>
        <time>2009-03-10T10:36:53Z</time>
      </trkpt>
      <trkpt lat="51.5122210" lon="6.9002960">
        <ele>50.0000000</ele>
        <time>2009-03-10T10:36:53Z</time>
      </trkpt>
      <trkpt lat="51.5119850" lon="6.9006930">
        <ele>54.0000000</ele>
        <time>2009-03-10T10:36:53Z</time>
      </trkpt>
      <trkpt lat="51.5119180" lon="6.9008190">
        <ele>56.0000000</ele>
        <time>2009-03-10T10:36:53Z</time>
      </trkpt>
      <trkpt lat="51.5118280" lon="6.9008190">
        <ele>56.0000000</ele>
        <time>2009-03-10T10:36:53Z</time>
      </trkpt>
      <trkpt lat="51.5117210" lon="6.9005210">
        <ele>56.0000000</ele>
        <time>2009-03-10T10:36:53Z</time>
      </trkpt>
      <trkpt lat="51.5115810" lon="6.9003500">
        <ele>56.0000000</ele>
        <time>2009-03-10T10:36:53Z</time>
      </trkpt>
      <trkpt lat="51.5113010" lon="6.8999990">
        <ele>56.0000000</ele>
        <time>2009-03-10T10:36:53Z</time>
      </trkpt>
      <trkpt lat="51.5111440" lon="6.8997820">
        <ele>57.0000000</ele>
        <time>2009-03-10T10:36:53Z</time>
      </trkpt>
      <trkpt lat="51.5109530" lon="6.8994760">
        <ele>57.0000000</ele>
        <time>2009-03-10T10:36:53Z</time>
      </trkpt>
      <trkpt lat="51.5109080" lon="6.8995930">
        <ele>57.0000000</ele>
        <time>2009-03-10T10:36:53Z</time>
      </trkpt>
      <trkpt lat="51.5101340" lon="6.9011430">
        <ele>63.0000000</ele>
        <time>2009-03-10T10:36:53Z</time>
      </trkpt>
      <trkpt lat="51.5098980" lon="6.9017380">
        <ele>65.0000000</ele>
        <time>2009-03-10T10:36:53Z</time>
      </trkpt>
      <trkpt lat="51.5097970" lon="6.9019730">
        <ele>65.0000000</ele>
        <time>2009-03-10T10:36:53Z</time>
      </trkpt>
      <trkpt lat="51.5095620" lon="6.9025220">
        <ele>67.0000000</ele>
        <time>2009-03-10T10:36:53Z</time>
      </trkpt>
      <trkpt lat="51.5092760" lon="6.9031800">
        <ele>67.0000000</ele>
        <time>2009-03-10T10:36:53Z</time>
      </trkpt>
      <trkpt lat="51.5090290" lon="6.9037570">
        <ele>68.0000000</ele>
        <time>2009-03-10T10:36:53Z</time>
      </trkpt>
      <trkpt lat="51.5085910" lon="6.9032520">
        <ele>68.0000000</ele>
        <time>2009-03-10T10:36:53Z</time>
      </trkpt>
      <trkpt lat="51.5083390" lon="6.9029640">
        <ele>67.0000000</ele>
        <time>2009-03-10T10:36:53Z</time>
      </trkpt>
      <trkpt lat="51.5081650" lon="6.9031890">
        <ele>67.0000000</ele>
        <time>2009-03-10T10:36:53Z</time>
      </trkpt>
      <trkpt lat="51.5080561" lon="6.9034919">
        <ele>64.0000000</ele>
        <time>2009-03-10T10:36:53Z</time>
      </trkpt>
      <trkpt lat="51.5079861" lon="6.9036617">
        <ele>64.0000000</ele>
        <time>2009-03-10T10:36:53Z</time>
      </trkpt>
      <trkpt lat="51.5079122" lon="6.9037732">
        <ele>33.0000000</ele>
        <time>2009-03-10T10:36:53Z</time>
      </trkpt>
      <trkpt lat="51.5077476" lon="6.9039969">
        <ele>62.0000000</ele>
        <time>2009-03-10T10:36:53Z</time>
      </trkpt>
      <trkpt lat="51.5073010" lon="6.9046130">
        <ele>58.0000000</ele>
        <time>2009-03-10T10:36:53Z</time>
      </trkpt>
      <trkpt lat="51.5070820" lon="6.9049740">
        <ele>57.0000000</ele>
        <time>2009-03-10T10:36:53Z</time>
      </trkpt>
      <trkpt lat="51.5069190" lon="6.9052800">
        <ele>57.0000000</ele>
        <time>2009-03-10T10:36:53Z</time>
      </trkpt>
      <trkpt lat="51.5067900" lon="6.9054880">
        <ele>56.0000000</ele>
        <time>2009-03-10T10:36:53Z</time>
      </trkpt>
      <trkpt lat="51.5065880" lon="6.9055240">
        <ele>56.0000000</ele>
        <time>2009-03-10T10:36:53Z</time>
      </trkpt>
      <trkpt lat="51.5064540" lon="6.9056050">
        <ele>56.0000000</ele>
        <time>2009-03-10T10:36:53Z</time>
      </trkpt>
      <trkpt lat="51.5062800" lon="6.9057040">
        <ele>56.0000000</ele>
        <time>2009-03-10T10:36:53Z</time>
      </trkpt>
      <trkpt lat="51.5060220" lon="6.9059110">
        <ele>56.0000000</ele>
        <time>2009-03-10T10:36:53Z</time>
      </trkpt>
      <trkpt lat="51.5058480" lon="6.9059920">
        <ele>56.0000000</ele>
        <time>2009-03-10T10:36:53Z</time>
      </trkpt>
      <trkpt lat="51.5056740" lon="6.9060920">
        <ele>56.0000000</ele>
        <time>2009-03-10T10:36:53Z</time>
      </trkpt>
      <trkpt lat="51.5055000" lon="6.9061010">
        <ele>56.0000000</ele>
        <time>2009-03-10T10:36:53Z</time>
      </trkpt>
      <trkpt lat="51.5056161" lon="6.9067562">
        <ele>56.0000000</ele>
        <time>2009-03-10T10:36:53Z</time>
      </trkpt>
      <trkpt lat="51.5056666" lon="6.9070691">
        <ele>30.0000000</ele>
        <time>2009-03-10T10:36:53Z</time>
      </trkpt>
      <trkpt lat="51.5053421" lon="6.9071515">
        <ele>57.0000000</ele>
        <time>2009-03-10T10:36:53Z</time>
      </trkpt>
      <trkpt lat="51.5051714" lon="6.9071954">
        <ele>59.0000000</ele>
        <time>2009-03-10T10:36:53Z</time>
      </trkpt>
      <trkpt lat="51.5050857" lon="6.9072713">
        <ele>26.0000000</ele>
        <time>2009-03-10T10:36:53Z</time>
      </trkpt>
      <trkpt lat="51.5048948" lon="6.9074422">
        <ele>58.0000000</ele>
        <time>2009-03-10T10:36:53Z</time>
      </trkpt>
      <trkpt lat="51.5047362" lon="6.9075350">
        <ele>59.0000000</ele>
        <time>2009-03-10T10:36:53Z</time>
      </trkpt>
      <trkpt lat="51.5046530" lon="6.9076060">
        <ele>59.0000000</ele>
        <time>2009-03-10T10:36:53Z</time>
      </trkpt>
      <trkpt lat="51.5045130" lon="6.9076510">
        <ele>58.0000000</ele>
        <time>2009-03-10T10:36:53Z</time>
      </trkpt>
      <trkpt lat="51.5042928" lon="6.9077265">
        <ele>56.0000000</ele>
        <time>2009-03-10T10:36:53Z</time>
      </trkpt>
      <trkpt lat="51.5040381" lon="6.9077831">
        <ele>26.0000000</ele>
        <time>2009-03-10T10:36:53Z</time>
      </trkpt>
      <trkpt lat="51.5040311" lon="6.9075494">
        <ele>54.0000000</ele>
        <time>2009-03-10T10:36:53Z</time>
      </trkpt>
      <trkpt lat="51.5036021" lon="6.9072853">
        <ele>25.0000000</ele>
        <time>2009-03-10T10:36:53Z</time>
      </trkpt>
      <trkpt lat="51.5035266" lon="6.9071537">
        <ele>53.0000000</ele>
        <time>2009-03-10T10:36:53Z</time>
      </trkpt>
      <trkpt lat="51.5033740" lon="6.9069300">
        <ele>53.0000000</ele>
        <time>2009-03-10T10:36:53Z</time>
      </trkpt>
      <trkpt lat="51.5030710" lon="6.9067320">
        <ele>52.0000000</ele>
        <time>2009-03-10T10:36:53Z</time>
      </trkpt>
      <trkpt lat="51.5026110" lon="6.9064160">
        <ele>51.0000000</ele>
        <time>2009-03-10T10:36:53Z</time>
      </trkpt>
      <trkpt lat="51.5026050" lon="6.9069300">
        <ele>51.0000000</ele>
        <time>2009-03-10T10:36:53Z</time>
      </trkpt>
      <trkpt lat="51.5025940" lon="6.9078130">
        <ele>53.0000000</ele>
        <time>2009-03-10T10:36:53Z</time>
      </trkpt>
      <trkpt lat="51.5025380" lon="6.9084170">
        <ele>55.0000000</ele>
        <time>2009-03-10T10:36:53Z</time>
      </trkpt>
      <trkpt lat="51.5024700" lon="6.9088500">
        <ele>54.0000000</ele>
        <time>2009-03-10T10:36:53Z</time>
      </trkpt>
      <trkpt lat="51.5023410" lon="6.9094990">
        <ele>50.0000000</ele>
        <time>2009-03-10T10:36:53Z</time>
      </trkpt>
      <trkpt lat="51.5022290" lon="6.9099310">
        <ele>47.0000000</ele>
        <time>2009-03-10T10:36:53Z</time>
      </trkpt>
      <trkpt lat="51.5020440" lon="6.9106520">
        <ele>44.0000000</ele>
        <time>2009-03-10T10:36:53Z</time>
      </trkpt>
      <trkpt lat="51.5019320" lon="6.9113820">
        <ele>43.0000000</ele>
        <time>2009-03-10T10:36:53Z</time>
      </trkpt>
      <trkpt lat="51.5018920" lon="6.9117430">
        <ele>42.0000000</ele>
        <time>2009-03-10T10:36:53Z</time>
      </trkpt>
      <trkpt lat="51.5018870" lon="6.9121310">
        <ele>41.0000000</ele>
        <time>2009-03-10T10:36:53Z</time>
      </trkpt>
      <trkpt lat="51.5018810" lon="6.9124100">
        <ele>41.0000000</ele>
        <time>2009-03-10T10:36:53Z</time>
      </trkpt>
      <trkpt lat="51.5018760" lon="6.9125180">
        <ele>41.0000000</ele>
        <time>2009-03-10T10:36:53Z</time>
      </trkpt>
      <trkpt lat="51.5019090" lon="6.9131940">
        <ele>40.0000000</ele>
        <time>2009-03-10T10:36:53Z</time>
      </trkpt>
      <trkpt lat="51.5019710" lon="6.9139150">
        <ele>40.0000000</ele>
        <time>2009-03-10T10:36:53Z</time>
      </trkpt>
      <trkpt lat="51.5020440" lon="6.9143840">
        <ele>39.0000000</ele>
        <time>2009-03-10T10:36:53Z</time>
      </trkpt>
      <trkpt lat="51.5021560" lon="6.9150600">
        <ele>39.0000000</ele>
        <time>2009-03-10T10:36:53Z</time>
      </trkpt>
      <trkpt lat="51.5023530" lon="6.9161330">
        <ele>39.0000000</ele>
        <time>2009-03-10T10:36:53Z</time>
      </trkpt>
      <trkpt lat="51.5026270" lon="6.9175930">
        <ele>37.0000000</ele>
        <time>2009-03-10T10:36:53Z</time>
      </trkpt>
      <trkpt lat="51.5027680" lon="6.9183680">
        <ele>36.0000000</ele>
        <time>2009-03-10T10:36:53Z</time>
      </trkpt>
      <trkpt lat="51.5028520" lon="6.9187640">
        <ele>36.0000000</ele>
        <time>2009-03-10T10:36:53Z</time>
      </trkpt>
      <trkpt lat="51.5029700" lon="6.9191160">
        <ele>36.0000000</ele>
        <time>2009-03-10T10:36:53Z</time>
      </trkpt>
      <trkpt lat="51.5031660" lon="6.9196660">
        <ele>36.0000000</ele>
        <time>2009-03-10T10:36:53Z</time>
      </trkpt>
      <trkpt lat="51.5035080" lon="6.9204590">
        <ele>36.0000000</ele>
        <time>2009-03-10T10:36:53Z</time>
      </trkpt>
      <trkpt lat="51.5037720" lon="6.9210720">
        <ele>36.0000000</ele>
        <time>2009-03-10T10:36:53Z</time>
      </trkpt>
      <trkpt lat="51.5038710" lon="6.9213002">
        <ele>36.0000000</ele>
        <time>2009-03-10T10:36:53Z</time>
      </trkpt>
      <trkpt lat="51.5046574" lon="6.9231783">
        <ele>35.0000000</ele>
        <time>2009-03-10T10:36:53Z</time>
      </trkpt>
      <trkpt lat="51.5049860" lon="6.9239559">
        <ele>27.0000000</ele>
        <time>2009-03-10T10:36:53Z</time>
      </trkpt>
      <trkpt lat="51.5051451" lon="6.9245296">
        <ele>36.0000000</ele>
        <time>2009-03-10T10:36:53Z</time>
      </trkpt>
      <trkpt lat="51.5037571" lon="6.9248629">
        <ele>35.0000000</ele>
        <time>2009-03-10T10:36:53Z</time>
      </trkpt>
      <trkpt lat="51.5036040" lon="6.9235189">
        <ele>35.0000000</ele>
        <time>2009-03-10T10:36:53Z</time>
      </trkpt>
      <trkpt lat="51.5026050" lon="6.9238120">
        <ele>38.0000000</ele>
        <time>2009-03-10T10:36:53Z</time>
      </trkpt>
      <trkpt lat="51.5023130" lon="6.9239020">
        <ele>40.0000000</ele>
        <time>2009-03-10T10:36:53Z</time>
      </trkpt>
      <trkpt lat="51.5020830" lon="6.9239740">
        <ele>40.0000000</ele>
        <time>2009-03-10T10:36:53Z</time>
      </trkpt>
      <trkpt lat="51.5018360" lon="6.9240280">
        <ele>35.0000000</ele>
        <time>2009-03-10T10:36:53Z</time>
      </trkpt>
      <trkpt lat="51.5018190" lon="6.9239650">
        <ele>35.0000000</ele>
        <time>2009-03-10T10:36:53Z</time>
      </trkpt>
      <trkpt lat="51.5016900" lon="6.9235960">
        <ele>35.0000000</ele>
        <time>2009-03-10T10:36:53Z</time>
      </trkpt>
      <trkpt lat="51.5015450" lon="6.9231540">
        <ele>36.0000000</ele>
        <time>2009-03-10T10:36:53Z</time>
      </trkpt>
      <trkpt lat="51.5013820" lon="6.9228020">
        <ele>36.0000000</ele>
        <time>2009-03-10T10:36:53Z</time>
      </trkpt>
      <trkpt lat="51.5009500" lon="6.9219280">
        <ele>36.0000000</ele>
        <time>2009-03-10T10:36:53Z</time>
      </trkpt>
      <trkpt lat="51.5006750" lon="6.9213150">
        <ele>36.0000000</ele>
        <time>2009-03-10T10:36:53Z</time>
      </trkpt>
      <trkpt lat="51.5004584" lon="6.9206225">
        <ele>27.0000000</ele>
        <time>2009-03-10T10:36:53Z</time>
      </trkpt>
      <trkpt lat="51.5005195" lon="6.9205748">
        <ele>27.0000000</ele>
        <time>2009-03-10T10:36:53Z</time>
      </trkpt>
      <trkpt lat="51.5006804" lon="6.9208725">
        <ele>27.0000000</ele>
        <time>2009-03-10T10:36:53Z</time>
      </trkpt>
      <trkpt lat="51.5008067" lon="6.9209264">
        <ele>27.0000000</ele>
        <time>2009-03-10T10:36:53Z</time>
      </trkpt>
      <trkpt lat="51.5009225" lon="6.9207996">
        <ele>27.0000000</ele>
        <time>2009-03-10T10:36:53Z</time>
      </trkpt>
      <trkpt lat="51.5009588" lon="6.9206313">
        <ele>27.0000000</ele>
        <time>2009-03-10T10:36:53Z</time>
      </trkpt>
      <trkpt lat="51.5009771" lon="6.9204633">
        <ele>27.0000000</ele>
        <time>2009-03-10T10:36:53Z</time>
      </trkpt>
      <trkpt lat="51.5007720" lon="6.9200010">
        <ele>36.0000000</ele>
        <time>2009-03-10T10:36:53Z</time>
      </trkpt>
      <trkpt lat="51.5006073" lon="6.9194300">
        <ele>27.0000000</ele>
        <time>2009-03-10T10:36:53Z</time>
      </trkpt>
      <trkpt lat="51.5005941" lon="6.9194006">
        <ele>27.0000000</ele>
        <time>2009-03-10T10:36:53Z</time>
      </trkpt>
      <trkpt lat="51.5006134" lon="6.9188999">
        <ele>27.0000000</ele>
        <time>2009-03-10T10:36:53Z</time>
      </trkpt>
      <trkpt lat="51.5006252" lon="6.9187733">
        <ele>37.0000000</ele>
        <time>2009-03-10T10:36:53Z</time>
      </trkpt>
      <trkpt lat="51.5006814" lon="6.9184556">
        <ele>31.0000000</ele>
        <time>2009-03-10T10:36:53Z</time>
      </trkpt>
      <trkpt lat="51.5007431" lon="6.9181330">
        <ele>36.0000000</ele>
        <time>2009-03-10T10:36:53Z</time>
      </trkpt>
      <trkpt lat="51.5007493" lon="6.9180066">
        <ele>36.0000000</ele>
        <time>2009-03-10T10:36:53Z</time>
      </trkpt>
      <trkpt lat="51.5007424" lon="6.9179475">
        <ele>36.0000000</ele>
        <time>2009-03-10T10:36:53Z</time>
      </trkpt>
      <trkpt lat="51.5007491" lon="6.9178401">
        <ele>36.0000000</ele>
        <time>2009-03-10T10:36:53Z</time>
      </trkpt>
      <trkpt lat="51.5007390" lon="6.9177414">
        <ele>36.0000000</ele>
        <time>2009-03-10T10:36:53Z</time>
      </trkpt>
      <trkpt lat="51.5006853" lon="6.9174022">
        <ele>36.0000000</ele>
        <time>2009-03-10T10:36:53Z</time>
      </trkpt>
      <trkpt lat="51.5006408" lon="6.9171201">
        <ele>36.0000000</ele>
        <time>2009-03-10T10:36:53Z</time>
      </trkpt>
      <trkpt lat="51.5006254" lon="6.9170442">
        <ele>36.0000000</ele>
        <time>2009-03-10T10:36:53Z</time>
      </trkpt>
      <trkpt lat="51.5005154" lon="6.9168601">
        <ele>36.0000000</ele>
        <time>2009-03-10T10:36:53Z</time>
      </trkpt>
      <trkpt lat="51.5004757" lon="6.9168334">
        <ele>36.0000000</ele>
        <time>2009-03-10T10:36:53Z</time>
      </trkpt>
      <trkpt lat="51.5003400" lon="6.9168006">
        <ele>35.0000000</ele>
        <time>2009-03-10T10:36:53Z</time>
      </trkpt>
      <trkpt lat="51.5001074" lon="6.9169568">
        <ele>37.0000000</ele>
        <time>2009-03-10T10:36:53Z</time>
      </trkpt>
      <trkpt lat="51.4997205" lon="6.9172026">
        <ele>35.0000000</ele>
        <time>2009-03-10T10:36:53Z</time>
      </trkpt>
      <trkpt lat="51.4996820" lon="6.9170790">
        <ele>38.0000000</ele>
        <time>2009-03-10T10:36:53Z</time>
      </trkpt>
      <trkpt lat="51.4995360" lon="6.9166010">
        <ele>37.0000000</ele>
        <time>2009-03-10T10:36:53Z</time>
      </trkpt>
      <trkpt lat="51.4993510" lon="6.9161240">
        <ele>37.0000000</ele>
        <time>2009-03-10T10:36:53Z</time>
      </trkpt>
      <trkpt lat="51.4992720" lon="6.9159520">
        <ele>37.0000000</ele>
        <time>2009-03-10T10:36:53Z</time>
      </trkpt>
      <trkpt lat="51.4992330" lon="6.9157900">
        <ele>37.0000000</ele>
        <time>2009-03-10T10:36:53Z</time>
      </trkpt>
      <trkpt lat="51.4988060" lon="6.9143300">
        <ele>37.0000000</ele>
        <time>2009-03-10T10:36:53Z</time>
      </trkpt>
      <trkpt lat="51.4987976" lon="6.9142954">
        <ele>27.0000000</ele>
        <time>2009-03-10T10:36:53Z</time>
      </trkpt>
      <trkpt lat="51.4992890" lon="6.9141153">
        <ele>27.0000000</ele>
        <time>2009-03-10T10:36:53Z</time>
      </trkpt>
      <trkpt lat="51.4993016" lon="6.9133393">
        <ele>28.0000000</ele>
        <time>2009-03-10T10:36:53Z</time>
      </trkpt>
      <trkpt lat="51.4993173" lon="6.9122319">
        <ele>28.0000000</ele>
        <time>2009-03-10T10:36:53Z</time>
      </trkpt>
      <trkpt lat="51.4993159" lon="6.9121555">
        <ele>28.0000000</ele>
        <time>2009-03-10T10:36:53Z</time>
      </trkpt>
      <trkpt lat="51.4993270" lon="6.9118308">
        <ele>28.0000000</ele>
        <time>2009-03-10T10:36:53Z</time>
      </trkpt>
      <trkpt lat="51.4994126" lon="6.9109579">
        <ele>35.0000000</ele>
        <time>2009-03-10T10:36:53Z</time>
      </trkpt>
      <trkpt lat="51.4994291" lon="6.9107815">
        <ele>28.0000000</ele>
        <time>2009-03-10T10:36:53Z</time>
      </trkpt>
      <trkpt lat="51.4994329" lon="6.9105786">
        <ele>28.0000000</ele>
        <time>2009-03-10T10:36:53Z</time>
      </trkpt>
      <trkpt lat="51.4994296" lon="6.9104933">
        <ele>28.0000000</ele>
        <time>2009-03-10T10:36:53Z</time>
      </trkpt>
      <trkpt lat="51.4994431" lon="6.9104566">
        <ele>28.0000000</ele>
        <time>2009-03-10T10:36:53Z</time>
      </trkpt>
      <trkpt lat="51.4995425" lon="6.9103576">
        <ele>28.0000000</ele>
        <time>2009-03-10T10:36:53Z</time>
      </trkpt>
      <trkpt lat="51.4995609" lon="6.9102988">
        <ele>28.0000000</ele>
        <time>2009-03-10T10:36:53Z</time>
      </trkpt>
      <trkpt lat="51.4995904" lon="6.9102113">
        <ele>28.0000000</ele>
        <time>2009-03-10T10:36:53Z</time>
      </trkpt>
      <trkpt lat="51.4995842" lon="6.9100179">
        <ele>28.0000000</ele>
        <time>2009-03-10T10:36:53Z</time>
      </trkpt>
      <trkpt lat="51.4995727" lon="6.9098474">
        <ele>28.0000000</ele>
        <time>2009-03-10T10:36:53Z</time>
      </trkpt>
      <trkpt lat="51.4995209" lon="6.9096246">
        <ele>28.0000000</ele>
        <time>2009-03-10T10:36:53Z</time>
      </trkpt>
      <trkpt lat="51.4995091" lon="6.9095250">
        <ele>29.0000000</ele>
        <time>2009-03-10T10:36:53Z</time>
      </trkpt>
      <trkpt lat="51.4993945" lon="6.9089955">
        <ele>29.0000000</ele>
        <time>2009-03-10T10:36:53Z</time>
      </trkpt>
      <trkpt lat="51.4993701" lon="6.9088885">
        <ele>29.0000000</ele>
        <time>2009-03-10T10:36:53Z</time>
      </trkpt>
      <trkpt lat="51.4993610" lon="6.9088484">
        <ele>29.0000000</ele>
        <time>2009-03-10T10:36:53Z</time>
      </trkpt>
      <trkpt lat="51.4992635" lon="6.9087404">
        <ele>29.0000000</ele>
        <time>2009-03-10T10:36:53Z</time>
      </trkpt>
      <trkpt lat="51.4992242" lon="6.9087421">
        <ele>29.0000000</ele>
        <time>2009-03-10T10:36:53Z</time>
      </trkpt>
      <trkpt lat="51.4990627" lon="6.9088261">
        <ele>29.0000000</ele>
        <time>2009-03-10T10:36:53Z</time>
      </trkpt>
      <trkpt lat="51.4990027" lon="6.9082975">
        <ele>35.0000000</ele>
        <time>2009-03-10T10:36:53Z</time>
      </trkpt>
      <trkpt lat="51.4991302" lon="6.9081191">
        <ele>36.0000000</ele>
        <time>2009-03-10T10:36:53Z</time>
      </trkpt>
      <trkpt lat="51.4992550" lon="6.9071820">
        <ele>35.0000000</ele>
        <time>2009-03-10T10:36:53Z</time>
      </trkpt>
      <trkpt lat="51.4991990" lon="6.9067680">
        <ele>35.0000000</ele>
        <time>2009-03-10T10:36:53Z</time>
      </trkpt>
      <trkpt lat="51.4991940" lon="6.9063260">
        <ele>35.0000000</ele>
        <time>2009-03-10T10:36:53Z</time>
      </trkpt>
      <trkpt lat="51.4991770" lon="6.9060470">
        <ele>36.0000000</ele>
        <time>2009-03-10T10:36:53Z</time>
      </trkpt>
      <trkpt lat="51.4992160" lon="6.9057130">
        <ele>37.0000000</ele>
        <time>2009-03-10T10:36:53Z</time>
      </trkpt>
      <trkpt lat="51.4988060" lon="6.9057400">
        <ele>36.0000000</ele>
        <time>2009-03-10T10:36:53Z</time>
      </trkpt>
      <trkpt lat="51.4985990" lon="6.9058480">
        <ele>35.0000000</ele>
        <time>2009-03-10T10:36:53Z</time>
      </trkpt>
      <trkpt lat="51.4984590" lon="6.9055600">
        <ele>35.0000000</ele>
        <time>2009-03-10T10:36:53Z</time>
      </trkpt>
      <trkpt lat="51.4981720" lon="6.9052890">
        <ele>35.0000000</ele>
        <time>2009-03-10T10:36:53Z</time>
      </trkpt>
      <trkpt lat="51.4981670" lon="6.9051270">
        <ele>34.0000000</ele>
        <time>2009-03-10T10:36:53Z</time>
      </trkpt>
      <trkpt lat="51.4981050" lon="6.9044330">
        <ele>35.0000000</ele>
        <time>2009-03-10T10:36:53Z</time>
      </trkpt>
      <trkpt lat="51.4980380" lon="6.9035590">
        <ele>34.0000000</ele>
        <time>2009-03-10T10:36:53Z</time>
      </trkpt>
      <trkpt lat="51.4979700" lon="6.9024770">
        <ele>35.0000000</ele>
        <time>2009-03-10T10:36:53Z</time>
      </trkpt>
      <trkpt lat="51.4979310" lon="6.9020270">
        <ele>34.0000000</ele>
        <time>2009-03-10T10:36:53Z</time>
      </trkpt>
      <trkpt lat="51.4979140" lon="6.9014410">
        <ele>35.0000000</ele>
        <time>2009-03-10T10:36:53Z</time>
      </trkpt>
      <trkpt lat="51.4979370" lon="6.9009810">
        <ele>35.0000000</ele>
        <time>2009-03-10T10:36:53Z</time>
      </trkpt>
      <trkpt lat="51.4978580" lon="6.9008820">
        <ele>34.0000000</ele>
        <time>2009-03-10T10:36:53Z</time>
      </trkpt>
      <trkpt lat="51.4973190" lon="6.9009000">
        <ele>37.0000000</ele>
        <time>2009-03-10T10:36:53Z</time>
      </trkpt>
      <trkpt lat="51.4970890" lon="6.9008730">
        <ele>36.0000000</ele>
        <time>2009-03-10T10:36:53Z</time>
      </trkpt>
      <trkpt lat="51.4967920" lon="6.9004400">
        <ele>38.0000000</ele>
        <time>2009-03-10T10:36:53Z</time>
      </trkpt>
      <trkpt lat="51.4965620" lon="6.9002960">
        <ele>38.0000000</ele>
        <time>2009-03-10T10:36:53Z</time>
      </trkpt>
      <trkpt lat="51.4962080" lon="6.8999630">
        <ele>39.0000000</ele>
        <time>2009-03-10T10:36:53Z</time>
      </trkpt>
      <trkpt lat="51.4959450" lon="6.8996020">
        <ele>39.0000000</ele>
        <time>2009-03-10T10:36:53Z</time>
      </trkpt>
      <trkpt lat="51.4955290" lon="6.8989170">
        <ele>31.0000000</ele>
        <time>2009-03-10T10:36:53Z</time>
      </trkpt>
      <trkpt lat="51.4948730" lon="6.8981240">
        <ele>33.0000000</ele>
        <time>2009-03-10T10:36:53Z</time>
      </trkpt>
      <trkpt lat="51.4946650" lon="6.8981330">
        <ele>29.0000000</ele>
        <time>2009-03-10T10:36:53Z</time>
      </trkpt>
      <trkpt lat="51.4945030" lon="6.8982140">
        <ele>29.0000000</ele>
        <time>2009-03-10T10:36:53Z</time>
      </trkpt>
      <trkpt lat="51.4943730" lon="6.8983940">
        <ele>29.0000000</ele>
        <time>2009-03-10T10:36:53Z</time>
      </trkpt>
      <trkpt lat="51.4943120" lon="6.8986110">
        <ele>30.0000000</ele>
        <time>2009-03-10T10:36:53Z</time>
      </trkpt>
      <trkpt lat="51.4942560" lon="6.8992500">
        <ele>29.0000000</ele>
        <time>2009-03-10T10:36:53Z</time>
      </trkpt>
      <trkpt lat="51.4942440" lon="6.8994670">
        <ele>29.0000000</ele>
        <time>2009-03-10T10:36:53Z</time>
      </trkpt>
      <trkpt lat="51.4939970" lon="6.8998180">
        <ele>34.0000000</ele>
        <time>2009-03-10T10:36:53Z</time>
      </trkpt>
      <trkpt lat="51.4936050" lon="6.9005390">
        <ele>33.0000000</ele>
        <time>2009-03-10T10:36:53Z</time>
      </trkpt>
      <trkpt lat="51.4933580" lon="6.9009810">
        <ele>33.0000000</ele>
        <time>2009-03-10T10:36:53Z</time>
      </trkpt>
      <trkpt lat="51.4932862" lon="6.9012118">
        <ele>33.0000000</ele>
        <time>2009-03-10T10:36:53Z</time>
      </trkpt>
      <trkpt lat="51.4931170" lon="6.9013322">
        <ele>30.0000000</ele>
        <time>2009-03-10T10:36:53Z</time>
      </trkpt>
      <trkpt lat="51.4930104" lon="6.9011885">
        <ele>30.0000000</ele>
        <time>2009-03-10T10:36:53Z</time>
      </trkpt>
      <trkpt lat="51.4926751" lon="6.9014515">
        <ele>30.0000000</ele>
        <time>2009-03-10T10:36:53Z</time>
      </trkpt>
      <trkpt lat="51.4926486" lon="6.9014261">
        <ele>35.0000000</ele>
        <time>2009-03-10T10:36:53Z</time>
      </trkpt>
      <trkpt lat="51.4921540" lon="6.9002153">
        <ele>30.0000000</ele>
        <time>2009-03-10T10:36:53Z</time>
      </trkpt>
      <trkpt lat="51.4916629" lon="6.8990714">
        <ele>29.0000000</ele>
        <time>2009-03-10T10:36:53Z</time>
      </trkpt>
      <trkpt lat="51.4909742" lon="6.9000080">
        <ele>36.0000000</ele>
        <time>2009-03-10T10:36:53Z</time>
      </trkpt>
      <trkpt lat="51.4910157" lon="6.9002852">
        <ele>29.0000000</ele>
        <time>2009-03-10T10:36:53Z</time>
      </trkpt>
      <trkpt lat="51.4906162" lon="6.9008034">
        <ele>29.0000000</ele>
        <time>2009-03-10T10:36:53Z</time>
      </trkpt>
      <trkpt lat="51.4903661" lon="6.9011648">
        <ele>29.0000000</ele>
        <time>2009-03-10T10:36:53Z</time>
      </trkpt>
      <trkpt lat="51.4901707" lon="6.9014315">
        <ele>26.0000000</ele>
        <time>2009-03-10T10:36:53Z</time>
      </trkpt>
      <trkpt lat="51.4901416" lon="6.9015318">
        <ele>26.0000000</ele>
        <time>2009-03-10T10:36:53Z</time>
      </trkpt>
      <trkpt lat="51.4899891" lon="6.9022817">
        <ele>26.0000000</ele>
        <time>2009-03-10T10:36:53Z</time>
      </trkpt>
      <trkpt lat="51.4899729" lon="6.9023184">
        <ele>26.0000000</ele>
        <time>2009-03-10T10:36:53Z</time>
      </trkpt>
      <trkpt lat="51.4895819" lon="6.9026109">
        <ele>26.0000000</ele>
        <time>2009-03-10T10:36:53Z</time>
      </trkpt>
      <trkpt lat="51.4895044" lon="6.9026776">
        <ele>36.0000000</ele>
        <time>2009-03-10T10:36:53Z</time>
      </trkpt>
      <trkpt lat="51.4894722" lon="6.9026970">
        <ele>35.0000000</ele>
        <time>2009-03-10T10:36:53Z</time>
      </trkpt>
      <trkpt lat="51.4891689" lon="6.9029270">
        <ele>27.0000000</ele>
        <time>2009-03-10T10:36:53Z</time>
      </trkpt>
      <trkpt lat="51.4890012" lon="6.9028267">
        <ele>25.0000000</ele>
        <time>2009-03-10T10:36:53Z</time>
      </trkpt>
      <trkpt lat="51.4889700" lon="6.9028101">
        <ele>25.0000000</ele>
        <time>2009-03-10T10:36:53Z</time>
      </trkpt>
      <trkpt lat="51.4888369" lon="6.9025957">
        <ele>26.0000000</ele>
        <time>2009-03-10T10:36:53Z</time>
      </trkpt>
      <trkpt lat="51.4888216" lon="6.9024378">
        <ele>35.0000000</ele>
        <time>2009-03-10T10:36:53Z</time>
      </trkpt>
      <trkpt lat="51.4888161" lon="6.9021337">
        <ele>40.0000000</ele>
        <time>2009-03-10T10:36:53Z</time>
      </trkpt>
      <trkpt lat="51.4888109" lon="6.9018449">
        <ele>26.0000000</ele>
        <time>2009-03-10T10:36:53Z</time>
      </trkpt>
      <trkpt lat="51.4883800" lon="6.9019450">
        <ele>44.0000000</ele>
        <time>2009-03-10T10:36:53Z</time>
      </trkpt>
      <trkpt lat="51.4866164" lon="6.9023564">
        <ele>30.0000000</ele>
        <time>2009-03-10T10:36:53Z</time>
      </trkpt>
      <trkpt lat="51.4863465" lon="6.9024174">
        <ele>30.0000000</ele>
        <time>2009-03-10T10:36:53Z</time>
      </trkpt>
      <trkpt lat="51.4858570" lon="6.9025434">
        <ele>30.0000000</ele>
        <time>2009-03-10T10:36:53Z</time>
      </trkpt>
      <trkpt lat="51.4858243" lon="6.9021307">
        <ele>29.0000000</ele>
        <time>2009-03-10T10:36:53Z</time>
      </trkpt>
      <trkpt lat="51.4857940" lon="6.9013418">
        <ele>41.0000000</ele>
        <time>2009-03-10T10:36:53Z</time>
      </trkpt>
      <trkpt lat="51.4856908" lon="6.9001652">
        <ele>40.0000000</ele>
        <time>2009-03-10T10:36:53Z</time>
      </trkpt>
      <trkpt lat="51.4856050" lon="6.8990869">
        <ele>38.0000000</ele>
        <time>2009-03-10T10:36:53Z</time>
      </trkpt>
      <trkpt lat="51.4854066" lon="6.8970269">
        <ele>38.0000000</ele>
        <time>2009-03-10T10:36:53Z</time>
      </trkpt>
      <trkpt lat="51.4852480" lon="6.8970600">
        <ele>37.0000000</ele>
        <time>2009-03-10T10:36:53Z</time>
      </trkpt>
      <trkpt lat="51.4844570" lon="6.8972220">
        <ele>35.0000000</ele>
        <time>2009-03-10T10:36:53Z</time>
      </trkpt>
      <trkpt lat="51.4835250" lon="6.8975830">
        <ele>38.0000000</ele>
        <time>2009-03-10T10:36:53Z</time>
      </trkpt>
      <trkpt lat="51.4832160" lon="6.8977360">
        <ele>38.0000000</ele>
        <time>2009-03-10T10:36:53Z</time>
      </trkpt>
      <trkpt lat="51.4827170" lon="6.8979440">
        <ele>38.0000000</ele>
        <time>2009-03-10T10:36:53Z</time>
      </trkpt>
      <trkpt lat="51.4825370" lon="6.8980610">
        <ele>38.0000000</ele>
        <time>2009-03-10T10:36:53Z</time>
      </trkpt>
      <trkpt lat="51.4823070" lon="6.8980610">
        <ele>38.0000000</ele>
        <time>2009-03-10T10:36:53Z</time>
      </trkpt>
      <trkpt lat="51.4819590" lon="6.8980610">
        <ele>38.0000000</ele>
        <time>2009-03-10T10:36:53Z</time>
      </trkpt>
      <trkpt lat="51.4815660" lon="6.8977990">
        <ele>39.0000000</ele>
        <time>2009-03-10T10:36:53Z</time>
      </trkpt>
      <trkpt lat="51.4811900" lon="6.8976370">
        <ele>40.0000000</ele>
        <time>2009-03-10T10:36:53Z</time>
      </trkpt>
      <trkpt lat="51.4806170" lon="6.8975380">
        <ele>40.0000000</ele>
        <time>2009-03-10T10:36:53Z</time>
      </trkpt>
      <trkpt lat="51.4800560" lon="6.8973760">
        <ele>41.0000000</ele>
        <time>2009-03-10T10:36:53Z</time>
      </trkpt>
      <trkpt lat="51.4796945" lon="6.8972452">
        <ele>23.0000000</ele>
        <time>2009-03-10T10:36:53Z</time>
      </trkpt>
      <trkpt lat="51.4794949" lon="6.8975560">
        <ele>41.0000000</ele>
        <time>2009-03-10T10:36:53Z</time>
      </trkpt>
      <trkpt lat="51.4793407" lon="6.8978916">
        <ele>26.0000000</ele>
        <time>2009-03-10T10:36:53Z</time>
      </trkpt>
      <trkpt lat="51.4793455" lon="6.8979478">
        <ele>26.0000000</ele>
        <time>2009-03-10T10:36:53Z</time>
      </trkpt>
      <trkpt lat="51.4793453" lon="6.8981524">
        <ele>23.0000000</ele>
        <time>2009-03-10T10:36:53Z</time>
      </trkpt>
      <trkpt lat="51.4791865" lon="6.8985378">
        <ele>27.0000000</ele>
        <time>2009-03-10T10:36:53Z</time>
      </trkpt>
      <trkpt lat="51.4791727" lon="6.8985519">
        <ele>27.0000000</ele>
        <time>2009-03-10T10:36:53Z</time>
      </trkpt>
      <trkpt lat="51.4789332" lon="6.8986754">
        <ele>23.0000000</ele>
        <time>2009-03-10T10:36:53Z</time>
      </trkpt>
      <trkpt lat="51.4786971" lon="6.8985153">
        <ele>23.0000000</ele>
        <time>2009-03-10T10:36:53Z</time>
      </trkpt>
      <trkpt lat="51.4785933" lon="6.8983779">
        <ele>41.0000000</ele>
        <time>2009-03-10T10:36:53Z</time>
      </trkpt>
      <trkpt lat="51.4781168" lon="6.8977609">
        <ele>42.0000000</ele>
        <time>2009-03-10T10:36:53Z</time>
      </trkpt>
      <trkpt lat="51.4780296" lon="6.8976503">
        <ele>23.0000000</ele>
        <time>2009-03-10T10:36:53Z</time>
      </trkpt>
      <trkpt lat="51.4779182" lon="6.8975519">
        <ele>23.0000000</ele>
        <time>2009-03-10T10:36:53Z</time>
      </trkpt>
      <trkpt lat="51.4778384" lon="6.8974926">
        <ele>42.0000000</ele>
        <time>2009-03-10T10:36:53Z</time>
      </trkpt>
      <trkpt lat="51.4776371" lon="6.8977044">
        <ele>42.0000000</ele>
        <time>2009-03-10T10:36:53Z</time>
      </trkpt>
      <trkpt lat="51.4774561" lon="6.8973302">
        <ele>26.0000000</ele>
        <time>2009-03-10T10:36:53Z</time>
      </trkpt>
      <trkpt lat="51.4773036" lon="6.8969727">
        <ele>26.0000000</ele>
        <time>2009-03-10T10:36:53Z</time>
      </trkpt>
      <trkpt lat="51.4772046" lon="6.8967497">
        <ele>42.0000000</ele>
        <time>2009-03-10T10:36:53Z</time>
      </trkpt>
      <trkpt lat="51.4771260" lon="6.8965370">
        <ele>43.0000000</ele>
        <time>2009-03-10T10:36:53Z</time>
      </trkpt>
      <trkpt lat="51.4768450" lon="6.8963660">
        <ele>43.0000000</ele>
        <time>2009-03-10T10:36:53Z</time>
      </trkpt>
      <trkpt lat="51.4765920" lon="6.8961500">
        <ele>43.0000000</ele>
        <time>2009-03-10T10:36:53Z</time>
      </trkpt>
      <trkpt lat="51.4764070" lon="6.8960780">
        <ele>44.0000000</ele>
        <time>2009-03-10T10:36:53Z</time>
      </trkpt>
      <trkpt lat="51.4761770" lon="6.8961950">
        <ele>44.0000000</ele>
        <time>2009-03-10T10:36:53Z</time>
      </trkpt>
      <trkpt lat="51.4758400" lon="6.8965830">
        <ele>44.0000000</ele>
        <time>2009-03-10T10:36:53Z</time>
      </trkpt>
      <trkpt lat="51.4757170" lon="6.8967360">
        <ele>44.0000000</ele>
        <time>2009-03-10T10:36:53Z</time>
      </trkpt>
      <trkpt lat="51.4749810" lon="6.8971860">
        <ele>46.0000000</ele>
        <time>2009-03-10T10:36:53Z</time>
      </trkpt>
      <trkpt lat="51.4746610" lon="6.8973670">
        <ele>46.0000000</ele>
        <time>2009-03-10T10:36:53Z</time>
      </trkpt>
      <trkpt lat="51.4745040" lon="6.8975110">
        <ele>47.0000000</ele>
        <time>2009-03-10T10:36:53Z</time>
      </trkpt>
      <trkpt lat="51.4743640" lon="6.8976730">
        <ele>47.0000000</ele>
        <time>2009-03-10T10:36:53Z</time>
      </trkpt>
      <trkpt lat="51.4742060" lon="6.8977810">
        <ele>48.0000000</ele>
        <time>2009-03-10T10:36:53Z</time>
      </trkpt>
      <trkpt lat="51.4739664" lon="6.8979992">
        <ele>28.0000000</ele>
        <time>2009-03-10T10:36:53Z</time>
      </trkpt>
      <trkpt lat="51.4739810" lon="6.8978725">
        <ele>48.0000000</ele>
        <time>2009-03-10T10:36:53Z</time>
      </trkpt>
      <trkpt lat="51.4739205" lon="6.8976323">
        <ele>29.0000000</ele>
        <time>2009-03-10T10:36:53Z</time>
      </trkpt>
      <trkpt lat="51.4739087" lon="6.8976014">
        <ele>48.0000000</ele>
        <time>2009-03-10T10:36:53Z</time>
      </trkpt>
      <trkpt lat="51.4737938" lon="6.8969901">
        <ele>47.0000000</ele>
        <time>2009-03-10T10:36:53Z</time>
      </trkpt>
      <trkpt lat="51.4737504" lon="6.8965859">
        <ele>47.0000000</ele>
        <time>2009-03-10T10:36:53Z</time>
      </trkpt>
      <trkpt lat="51.4738770" lon="6.8962303">
        <ele>48.0000000</ele>
        <time>2009-03-10T10:36:53Z</time>
      </trkpt>
      <trkpt lat="51.4735830" lon="6.8962040">
        <ele>47.0000000</ele>
        <time>2009-03-10T10:36:53Z</time>
      </trkpt>
      <trkpt lat="51.4723370" lon="6.8967990">
        <ele>49.0000000</ele>
        <time>2009-03-10T10:36:53Z</time>
      </trkpt>
      <trkpt lat="51.4722470" lon="6.8968800">
        <ele>49.0000000</ele>
        <time>2009-03-10T10:36:53Z</time>
      </trkpt>
      <trkpt lat="51.4722020" lon="6.8970330">
        <ele>49.0000000</ele>
        <time>2009-03-10T10:36:53Z</time>
      </trkpt>
      <trkpt lat="51.4721630" lon="6.8977540">
        <ele>50.0000000</ele>
        <time>2009-03-10T10:36:53Z</time>
      </trkpt>
      <trkpt lat="51.4721800" lon="6.8980250">
        <ele>50.0000000</ele>
        <time>2009-03-10T10:36:53Z</time>
      </trkpt>
      <trkpt lat="51.4720840" lon="6.8982410">
        <ele>50.0000000</ele>
        <time>2009-03-10T10:36:53Z</time>
      </trkpt>
      <trkpt lat="51.4716410" lon="6.8991060">
        <ele>52.0000000</ele>
        <time>2009-03-10T10:36:53Z</time>
      </trkpt>
      <trkpt lat="51.4714780" lon="6.8993770">
        <ele>53.0000000</ele>
        <time>2009-03-10T10:36:53Z</time>
      </trkpt>
      <trkpt lat="51.4714220" lon="6.8997010">
        <ele>52.0000000</ele>
        <time>2009-03-10T10:36:53Z</time>
      </trkpt>
      <trkpt lat="51.4713770" lon="6.8997460">
        <ele>53.0000000</ele>
        <time>2009-03-10T10:36:53Z</time>
      </trkpt>
      <trkpt lat="51.4709780" lon="6.8990160">
        <ele>54.0000000</ele>
        <time>2009-03-10T10:36:53Z</time>
      </trkpt>
      <trkpt lat="51.4709050" lon="6.8989080">
        <ele>53.0000000</ele>
        <time>2009-03-10T10:36:53Z</time>
      </trkpt>
      <trkpt lat="51.4700070" lon="6.8973220">
        <ele>53.0000000</ele>
        <time>2009-03-10T10:36:53Z</time>
      </trkpt>
      <trkpt lat="51.4698610" lon="6.8971140">
        <ele>54.0000000</ele>
        <time>2009-03-10T10:36:53Z</time>
      </trkpt>
      <trkpt lat="51.4697260" lon="6.8968530">
        <ele>54.0000000</ele>
        <time>2009-03-10T10:36:53Z</time>
      </trkpt>
      <trkpt lat="51.4691870" lon="6.8953480">
        <ele>52.0000000</ele>
        <time>2009-03-10T10:36:53Z</time>
      </trkpt>
      <trkpt lat="51.4688560" lon="6.8942300">
        <ele>52.0000000</ele>
        <time>2009-03-10T10:36:53Z</time>
      </trkpt>
      <trkpt lat="51.4687320" lon="6.8941130">
        <ele>51.0000000</ele>
        <time>2009-03-10T10:36:53Z</time>
      </trkpt>
      <trkpt lat="51.4684630" lon="6.8940500">
        <ele>51.0000000</ele>
        <time>2009-03-10T10:36:53Z</time>
      </trkpt>
      <trkpt lat="51.4680980" lon="6.8942480">
        <ele>52.0000000</ele>
        <time>2009-03-10T10:36:53Z</time>
      </trkpt>
      <trkpt lat="51.4680080" lon="6.8943020">
        <ele>52.0000000</ele>
        <time>2009-03-10T10:36:53Z</time>
      </trkpt>
      <trkpt lat="51.4677780" lon="6.8943290">
        <ele>52.0000000</ele>
        <time>2009-03-10T10:36:53Z</time>
      </trkpt>
      <trkpt lat="51.4676150" lon="6.8943200">
        <ele>52.0000000</ele>
        <time>2009-03-10T10:36:53Z</time>
      </trkpt>
      <trkpt lat="51.4675250" lon="6.8942480">
        <ele>52.0000000</ele>
        <time>2009-03-10T10:36:53Z</time>
      </trkpt>
      <trkpt lat="51.4673570" lon="6.8939870">
        <ele>52.0000000</ele>
        <time>2009-03-10T10:36:53Z</time>
      </trkpt>
      <trkpt lat="51.4671040" lon="6.8935360">
        <ele>52.0000000</ele>
        <time>2009-03-10T10:36:53Z</time>
      </trkpt>
      <trkpt lat="51.4669920" lon="6.8933380">
        <ele>52.0000000</ele>
        <time>2009-03-10T10:36:53Z</time>
      </trkpt>
      <trkpt lat="51.4669240" lon="6.8931940">
        <ele>51.0000000</ele>
        <time>2009-03-10T10:36:53Z</time>
      </trkpt>
      <trkpt lat="51.4667730" lon="6.8929770">
        <ele>51.0000000</ele>
        <time>2009-03-10T10:36:53Z</time>
      </trkpt>
      <trkpt lat="51.4665870" lon="6.8926260">
        <ele>51.0000000</ele>
        <time>2009-03-10T10:36:53Z</time>
      </trkpt>
      <trkpt lat="51.4664810" lon="6.8924540">
        <ele>50.0000000</ele>
        <time>2009-03-10T10:36:53Z</time>
      </trkpt>
      <trkpt lat="51.4664020" lon="6.8924000">
        <ele>51.0000000</ele>
        <time>2009-03-10T10:36:53Z</time>
      </trkpt>
      <trkpt lat="51.4661940" lon="6.8924000">
        <ele>51.0000000</ele>
        <time>2009-03-10T10:36:53Z</time>
      </trkpt>
      <trkpt lat="51.4660566" lon="6.8924416">
        <ele>50.0000000</ele>
        <time>2009-03-10T10:36:53Z</time>
      </trkpt>
      <trkpt lat="51.4660423" lon="6.8924333">
        <ele>26.0000000</ele>
        <time>2009-03-10T10:36:53Z</time>
      </trkpt>
      <trkpt lat="51.4660607" lon="6.8918564">
        <ele>26.0000000</ele>
        <time>2009-03-10T10:36:53Z</time>
      </trkpt>
      <trkpt lat="51.4659985" lon="6.8917154">
        <ele>50.0000000</ele>
        <time>2009-03-10T10:36:53Z</time>
      </trkpt>
      <trkpt lat="51.4659604" lon="6.8916227">
        <ele>27.0000000</ele>
        <time>2009-03-10T10:36:53Z</time>
      </trkpt>
      <trkpt lat="51.4658070" lon="6.8912920">
        <ele>49.0000000</ele>
        <time>2009-03-10T10:36:53Z</time>
      </trkpt>
      <trkpt lat="51.4655490" lon="6.8906520">
        <ele>49.0000000</ele>
        <time>2009-03-10T10:36:53Z</time>
      </trkpt>
      <trkpt lat="51.4653010" lon="6.8900750">
        <ele>49.0000000</ele>
        <time>2009-03-10T10:36:53Z</time>
      </trkpt>
      <trkpt lat="51.4651160" lon="6.8894620">
        <ele>48.0000000</ele>
        <time>2009-03-10T10:36:53Z</time>
      </trkpt>
      <trkpt lat="51.4650600" lon="6.8892100">
        <ele>49.0000000</ele>
        <time>2009-03-10T10:36:53Z</time>
      </trkpt>
      <trkpt lat="51.4650260" lon="6.8891370">
        <ele>48.0000000</ele>
        <time>2009-03-10T10:36:53Z</time>
      </trkpt>
      <trkpt lat="51.4648860" lon="6.8891650">
        <ele>49.0000000</ele>
        <time>2009-03-10T10:36:53Z</time>
      </trkpt>
      <trkpt lat="51.4645100" lon="6.8890290">
        <ele>49.0000000</ele>
        <time>2009-03-10T10:36:53Z</time>
      </trkpt>
      <trkpt lat="51.4642740" lon="6.8889480">
        <ele>49.0000000</ele>
        <time>2009-03-10T10:36:53Z</time>
      </trkpt>
      <trkpt lat="51.4639260" lon="6.8887770">
        <ele>49.0000000</ele>
        <time>2009-03-10T10:36:53Z</time>
      </trkpt>
      <trkpt lat="51.4633360" lon="6.8885070">
        <ele>49.0000000</ele>
        <time>2009-03-10T10:36:53Z</time>
      </trkpt>
      <trkpt lat="51.4634090" lon="6.8879030">
        <ele>49.0000000</ele>
        <time>2009-03-10T10:36:53Z</time>
      </trkpt>
      <trkpt lat="51.4633920" lon="6.8877670">
        <ele>49.0000000</ele>
        <time>2009-03-10T10:36:53Z</time>
      </trkpt>
      <trkpt lat="51.4633470" lon="6.8872540">
        <ele>48.0000000</ele>
        <time>2009-03-10T10:36:53Z</time>
      </trkpt>
      <trkpt lat="51.4632290" lon="6.8866410">
        <ele>48.0000000</ele>
        <time>2009-03-10T10:36:53Z</time>
      </trkpt>
      <trkpt lat="51.4631840" lon="6.8864150">
        <ele>48.0000000</ele>
        <time>2009-03-10T10:36:53Z</time>
      </trkpt>
      <trkpt lat="51.4631230" lon="6.8861810">
        <ele>48.0000000</ele>
        <time>2009-03-10T10:36:53Z</time>
      </trkpt>
      <trkpt lat="51.4629820" lon="6.8858030">
        <ele>48.0000000</ele>
        <time>2009-03-10T10:36:53Z</time>
      </trkpt>
      <trkpt lat="51.4628480" lon="6.8855590">
        <ele>48.0000000</ele>
        <time>2009-03-10T10:36:53Z</time>
      </trkpt>
      <trkpt lat="51.4626510" lon="6.8852260">
        <ele>48.0000000</ele>
        <time>2009-03-10T10:36:53Z</time>
      </trkpt>
      <trkpt lat="51.4625220" lon="6.8850360">
        <ele>48.0000000</ele>
        <time>2009-03-10T10:36:53Z</time>
      </trkpt>
      <trkpt lat="51.4623870" lon="6.8848650">
        <ele>48.0000000</ele>
        <time>2009-03-10T10:36:53Z</time>
      </trkpt>
      <trkpt lat="51.4621060" lon="6.8845320">
        <ele>49.0000000</ele>
        <time>2009-03-10T10:36:53Z</time>
      </trkpt>
      <trkpt lat="51.4622300" lon="6.8843240">
        <ele>49.0000000</ele>
        <time>2009-03-10T10:36:53Z</time>
      </trkpt>
      <trkpt lat="51.4626680" lon="6.8834140">
        <ele>47.0000000</ele>
        <time>2009-03-10T10:36:53Z</time>
      </trkpt>
      <trkpt lat="51.4631340" lon="6.8825580">
        <ele>46.0000000</ele>
        <time>2009-03-10T10:36:53Z</time>
      </trkpt>
      <trkpt lat="51.4631730" lon="6.8824950">
        <ele>46.0000000</ele>
        <time>2009-03-10T10:36:53Z</time>
      </trkpt>
      <trkpt lat="51.4637010" lon="6.8816380">
        <ele>46.0000000</ele>
        <time>2009-03-10T10:36:53Z</time>
      </trkpt>
      <trkpt lat="51.4638860" lon="6.8813860">
        <ele>47.0000000</ele>
        <time>2009-03-10T10:36:53Z</time>
      </trkpt>
      <trkpt lat="51.4637570" lon="6.8811340">
        <ele>47.0000000</ele>
        <time>2009-03-10T10:36:53Z</time>
      </trkpt>
      <trkpt lat="51.4636340" lon="6.8809980">
        <ele>47.0000000</ele>
        <time>2009-03-10T10:36:53Z</time>
      </trkpt>
      <trkpt lat="51.4635720" lon="6.8808990">
        <ele>47.0000000</ele>
        <time>2009-03-10T10:36:53Z</time>
      </trkpt>
      <trkpt lat="51.4633750" lon="6.8804580">
        <ele>46.0000000</ele>
        <time>2009-03-10T10:36:53Z</time>
      </trkpt>
      <trkpt lat="51.4631230" lon="6.8798360">
        <ele>47.0000000</ele>
        <time>2009-03-10T10:36:53Z</time>
      </trkpt>
      <trkpt lat="51.4630720" lon="6.8797280">
        <ele>46.0000000</ele>
        <time>2009-03-10T10:36:53Z</time>
      </trkpt>
      <trkpt lat="51.4630500" lon="6.8794390">
        <ele>46.0000000</ele>
        <time>2009-03-10T10:36:53Z</time>
      </trkpt>
      <trkpt lat="51.4629600" lon="6.8791150">
        <ele>46.0000000</ele>
        <time>2009-03-10T10:36:53Z</time>
      </trkpt>
      <trkpt lat="51.4628640" lon="6.8788620">
        <ele>46.0000000</ele>
        <time>2009-03-10T10:36:53Z</time>
      </trkpt>
      <trkpt lat="51.4627690" lon="6.8786280">
        <ele>47.0000000</ele>
        <time>2009-03-10T10:36:53Z</time>
      </trkpt>
      <trkpt lat="51.4625220" lon="6.8781590">
        <ele>46.0000000</ele>
        <time>2009-03-10T10:36:53Z</time>
      </trkpt>
      <trkpt lat="51.4623760" lon="6.8778440">
        <ele>46.0000000</ele>
        <time>2009-03-10T10:36:53Z</time>
      </trkpt>
      <trkpt lat="51.4620890" lon="6.8772490">
        <ele>46.0000000</ele>
        <time>2009-03-10T10:36:53Z</time>
      </trkpt>
      <trkpt lat="51.4620220" lon="6.8771140">
        <ele>45.0000000</ele>
        <time>2009-03-10T10:36:53Z</time>
      </trkpt>
      <trkpt lat="51.4617410" lon="6.8765100">
        <ele>45.0000000</ele>
        <time>2009-03-10T10:36:53Z</time>
      </trkpt>
      <trkpt lat="51.4615900" lon="6.8762390">
        <ele>44.0000000</ele>
        <time>2009-03-10T10:36:53Z</time>
      </trkpt>
      <trkpt lat="51.4614490" lon="6.8760230">
        <ele>44.0000000</ele>
        <time>2009-03-10T10:36:53Z</time>
      </trkpt>
      <trkpt lat="51.4613090" lon="6.8757890">
        <ele>44.0000000</ele>
        <time>2009-03-10T10:36:53Z</time>
      </trkpt>
      <trkpt lat="51.4611350" lon="6.8754640">
        <ele>43.0000000</ele>
        <time>2009-03-10T10:36:53Z</time>
      </trkpt>
      <trkpt lat="51.4608820" lon="6.8750950">
        <ele>42.0000000</ele>
        <time>2009-03-10T10:36:53Z</time>
      </trkpt>
      <trkpt lat="51.4607920" lon="6.8749590">
        <ele>43.0000000</ele>
        <time>2009-03-10T10:36:53Z</time>
      </trkpt>
      <trkpt lat="51.4606460" lon="6.8747970">
        <ele>43.0000000</ele>
        <time>2009-03-10T10:36:53Z</time>
      </trkpt>
      <trkpt lat="51.4603820" lon="6.8745360">
        <ele>43.0000000</ele>
        <time>2009-03-10T10:36:53Z</time>
      </trkpt>
      <trkpt lat="51.4603820" lon="6.8745360">
        <ele>43.0000000</ele>
        <time>2009-03-10T10:36:53Z</time>
      </trkpt>
      <trkpt lat="51.4610390" lon="6.8730850">
        <ele>41.0000000</ele>
        <time>2009-03-10T10:36:53Z</time>
      </trkpt>
      <trkpt lat="51.4607470" lon="6.8728230">
        <ele>41.0000000</ele>
        <time>2009-03-10T10:36:53Z</time>
      </trkpt>
      <trkpt lat="51.4605790" lon="6.8725710">
        <ele>41.0000000</ele>
        <time>2009-03-10T10:36:53Z</time>
      </trkpt>
      <trkpt lat="51.4604550" lon="6.8725620">
        <ele>41.0000000</ele>
        <time>2009-03-10T10:36:53Z</time>
      </trkpt>
      <trkpt lat="51.4601350" lon="6.8721830">
        <ele>40.0000000</ele>
        <time>2009-03-10T10:36:53Z</time>
      </trkpt>
      <trkpt lat="51.4598770" lon="6.8718320">
        <ele>40.0000000</ele>
        <time>2009-03-10T10:36:53Z</time>
      </trkpt>
      <trkpt lat="51.4597080" lon="6.8716060">
        <ele>40.0000000</ele>
        <time>2009-03-10T10:36:53Z</time>
      </trkpt>
      <trkpt lat="51.4595790" lon="6.8713450">
        <ele>40.0000000</ele>
        <time>2009-03-10T10:36:53Z</time>
      </trkpt>
      <trkpt lat="51.4594330" lon="6.8711110">
        <ele>39.0000000</ele>
        <time>2009-03-10T10:36:53Z</time>
      </trkpt>
      <trkpt lat="51.4593600" lon="6.8708130">
        <ele>40.0000000</ele>
        <time>2009-03-10T10:36:53Z</time>
      </trkpt>
      <trkpt lat="51.4593040" lon="6.8706600">
        <ele>40.0000000</ele>
        <time>2009-03-10T10:36:53Z</time>
      </trkpt>
      <trkpt lat="51.4592370" lon="6.8706060">
        <ele>40.0000000</ele>
        <time>2009-03-10T10:36:53Z</time>
      </trkpt>
      <trkpt lat="51.4591750" lon="6.8703270">
        <ele>40.0000000</ele>
        <time>2009-03-10T10:36:53Z</time>
      </trkpt>
      <trkpt lat="51.4591920" lon="6.8700200">
        <ele>40.0000000</ele>
        <time>2009-03-10T10:36:53Z</time>
      </trkpt>
      <trkpt lat="51.4591520" lon="6.8696240">
        <ele>40.0000000</ele>
        <time>2009-03-10T10:36:53Z</time>
      </trkpt>
      <trkpt lat="51.4591020" lon="6.8685780">
        <ele>39.0000000</ele>
        <time>2009-03-10T10:36:53Z</time>
      </trkpt>
      <trkpt lat="51.4590120" lon="6.8675410">
        <ele>40.0000000</ele>
        <time>2009-03-10T10:36:53Z</time>
      </trkpt>
      <trkpt lat="51.4590400" lon="6.8670550">
        <ele>39.0000000</ele>
        <time>2009-03-10T10:36:53Z</time>
      </trkpt>
      <trkpt lat="51.4590060" lon="6.8662440">
        <ele>38.0000000</ele>
        <time>2009-03-10T10:36:53Z</time>
      </trkpt>
      <trkpt lat="51.4587930" lon="6.8660720">
        <ele>38.0000000</ele>
        <time>2009-03-10T10:36:53Z</time>
      </trkpt>
      <trkpt lat="51.4587200" lon="6.8657570">
        <ele>38.0000000</ele>
        <time>2009-03-10T10:36:53Z</time>
      </trkpt>
      <trkpt lat="51.4587310" lon="6.8650900">
        <ele>38.0000000</ele>
        <time>2009-03-10T10:36:53Z</time>
      </trkpt>
      <trkpt lat="51.4587200" lon="6.8648730">
        <ele>38.0000000</ele>
        <time>2009-03-10T10:36:53Z</time>
      </trkpt>
      <trkpt lat="51.4586970" lon="6.8642970">
        <ele>38.0000000</ele>
        <time>2009-03-10T10:36:53Z</time>
      </trkpt>
      <trkpt lat="51.4586920" lon="6.8635760">
        <ele>37.0000000</ele>
        <time>2009-03-10T10:36:53Z</time>
      </trkpt>
      <trkpt lat="51.4586130" lon="6.8633320">
        <ele>37.0000000</ele>
        <time>2009-03-10T10:36:53Z</time>
      </trkpt>
      <trkpt lat="51.4584818" lon="6.8627529">
        <ele>36.0000000</ele>
        <time>2009-03-10T10:36:53Z</time>
      </trkpt>
      <trkpt lat="51.4584422" lon="6.8625883">
        <ele>29.0000000</ele>
        <time>2009-03-10T10:36:53Z</time>
      </trkpt>
      <trkpt lat="51.4583685" lon="6.8622821">
        <ele>28.0000000</ele>
        <time>2009-03-10T10:36:53Z</time>
      </trkpt>
      <trkpt lat="51.4584043" lon="6.8616418">
        <ele>37.0000000</ele>
        <time>2009-03-10T10:36:53Z</time>
      </trkpt>
      <trkpt lat="51.4584064" lon="6.8615507">
        <ele>27.0000000</ele>
        <time>2009-03-10T10:36:53Z</time>
      </trkpt>
      <trkpt lat="51.4582264" lon="6.8612352">
        <ele>27.0000000</ele>
        <time>2009-03-10T10:36:53Z</time>
      </trkpt>
      <trkpt lat="51.4583322" lon="6.8610279">
        <ele>28.0000000</ele>
        <time>2009-03-10T10:36:53Z</time>
      </trkpt>
      <trkpt lat="51.4586226" lon="6.8615362">
        <ele>28.0000000</ele>
        <time>2009-03-10T10:36:53Z</time>
      </trkpt>
      <trkpt lat="51.4586725" lon="6.8616508">
        <ele>28.0000000</ele>
        <time>2009-03-10T10:36:53Z</time>
      </trkpt>
      <trkpt lat="51.4587140" lon="6.8614750">
        <ele>37.0000000</ele>
        <time>2009-03-10T10:36:53Z</time>
      </trkpt>
      <trkpt lat="51.4587820" lon="6.8605920">
        <ele>36.0000000</ele>
        <time>2009-03-10T10:36:53Z</time>
      </trkpt>
      <trkpt lat="51.4588380" lon="6.8599790">
        <ele>35.0000000</ele>
        <time>2009-03-10T10:36:53Z</time>
      </trkpt>
      <trkpt lat="51.4589000" lon="6.8593750">
        <ele>35.0000000</ele>
        <time>2009-03-10T10:36:53Z</time>
      </trkpt>
      <trkpt lat="51.4589450" lon="6.8590960">
        <ele>36.0000000</ele>
        <time>2009-03-10T10:36:53Z</time>
      </trkpt>
      <trkpt lat="51.4590570" lon="6.8582670">
        <ele>35.0000000</ele>
        <time>2009-03-10T10:36:53Z</time>
      </trkpt>
      <trkpt lat="51.4590910" lon="6.8575910">
        <ele>35.0000000</ele>
        <time>2009-03-10T10:36:53Z</time>
      </trkpt>
      <trkpt lat="51.4590960" lon="6.8572570">
        <ele>35.0000000</ele>
        <time>2009-03-10T10:36:53Z</time>
      </trkpt>
      <trkpt lat="51.4590960" lon="6.8571040">
        <ele>35.0000000</ele>
        <time>2009-03-10T10:36:53Z</time>
      </trkpt>
      <trkpt lat="51.4591190" lon="6.8565900">
        <ele>35.0000000</ele>
        <time>2009-03-10T10:36:53Z</time>
      </trkpt>
      <trkpt lat="51.4591300" lon="6.8562930">
        <ele>35.0000000</ele>
        <time>2009-03-10T10:36:53Z</time>
      </trkpt>
      <trkpt lat="51.4591690" lon="6.8549320">
        <ele>35.0000000</ele>
        <time>2009-03-10T10:36:53Z</time>
      </trkpt>
      <trkpt lat="51.4592090" lon="6.8536970">
        <ele>35.0000000</ele>
        <time>2009-03-10T10:36:53Z</time>
      </trkpt>
      <trkpt lat="51.4592250" lon="6.8530390">
        <ele>35.0000000</ele>
        <time>2009-03-10T10:36:53Z</time>
      </trkpt>
      <trkpt lat="51.4589840" lon="6.8530120">
        <ele>35.0000000</ele>
        <time>2009-03-10T10:36:53Z</time>
      </trkpt>
      <trkpt lat="51.4587140" lon="6.8529670">
        <ele>34.0000000</ele>
        <time>2009-03-10T10:36:53Z</time>
      </trkpt>
      <trkpt lat="51.4587090" lon="6.8528860">
        <ele>33.0000000</ele>
        <time>2009-03-10T10:36:53Z</time>
      </trkpt>
      <trkpt lat="51.4586970" lon="6.8526870">
        <ele>34.0000000</ele>
        <time>2009-03-10T10:36:53Z</time>
      </trkpt>
      <trkpt lat="51.4586920" lon="6.8521380">
        <ele>34.0000000</ele>
        <time>2009-03-10T10:36:53Z</time>
      </trkpt>
      <trkpt lat="51.4586640" lon="6.8512810">
        <ele>34.0000000</ele>
        <time>2009-03-10T10:36:53Z</time>
      </trkpt>
      <trkpt lat="51.4585180" lon="6.8512450">
        <ele>34.0000000</ele>
        <time>2009-03-10T10:36:53Z</time>
      </trkpt>
    </trkseg>
  </trk>

  <trk>
    <name>Track 002</name>
    <extensions>
      <gpxx:TrackExtension xmlns:gpxx="http://www.garmin.com/xmlschemas/GpxExtensions/v3">
        <gpxx:DisplayColor>Red</gpxx:DisplayColor>
      </gpxx:TrackExtension>
    </extensions>
    <trkseg>
      <trkpt lat="51.5247124" lon="6.8798493">
        <ele>27.0000000</ele>
        <time>2009-03-10T10:36:53Z</time>
      </trkpt>
      <trkpt lat="51.5247132" lon="6.8797365">
        <ele>67.0000000</ele>
        <time>2009-03-10T10:36:53Z</time>
      </trkpt>
      <trkpt lat="51.5247114" lon="6.8790159">
        <ele>25.0000000</ele>
        <time>2009-03-10T10:36:53Z</time>
      </trkpt>
      <trkpt lat="51.5243983" lon="6.8783321">
        <ele>26.0000000</ele>
        <time>2009-03-10T10:36:53Z</time>
      </trkpt>
      <trkpt lat="51.5243733" lon="6.8783467">
        <ele>26.0000000</ele>
        <time>2009-03-10T10:36:53Z</time>
      </trkpt>
      <trkpt lat="51.5240592" lon="6.8785371">
        <ele>26.0000000</ele>
        <time>2009-03-10T10:36:53Z</time>
      </trkpt>
      <trkpt lat="51.5236740" lon="6.8777630">
        <ele>63.0000000</ele>
        <time>2009-03-10T10:36:53Z</time>
      </trkpt>
      <trkpt lat="51.5230740" lon="6.8767620">
        <ele>63.0000000</ele>
        <time>2009-03-10T10:36:53Z</time>
      </trkpt>
      <trkpt lat="51.5228890" lon="6.8765190">
        <ele>62.0000000</ele>
        <time>2009-03-10T10:36:53Z</time>
      </trkpt>
      <trkpt lat="51.5225970" lon="6.8753200">
        <ele>63.0000000</ele>
        <time>2009-03-10T10:36:53Z</time>
      </trkpt>
      <trkpt lat="51.5224010" lon="6.8747700">
        <ele>64.0000000</ele>
        <time>2009-03-10T10:36:53Z</time>
      </trkpt>
      <trkpt lat="51.5222440" lon="6.8743010">
        <ele>62.0000000</ele>
        <time>2009-03-10T10:36:53Z</time>
      </trkpt>
      <trkpt lat="51.5220403" lon="6.8739818">
        <ele>25.0000000</ele>
        <time>2009-03-10T10:36:53Z</time>
      </trkpt>
      <trkpt lat="51.5220171" lon="6.8739423">
        <ele>62.0000000</ele>
        <time>2009-03-10T10:36:53Z</time>
      </trkpt>
      <trkpt lat="51.5217892" lon="6.8739260">
        <ele>62.0000000</ele>
        <time>2009-03-10T10:36:53Z</time>
      </trkpt>
      <trkpt lat="51.5214286" lon="6.8738797">
        <ele>62.0000000</ele>
        <time>2009-03-10T10:36:53Z</time>
      </trkpt>
      <trkpt lat="51.5211610" lon="6.8738690">
        <ele>60.0000000</ele>
        <time>2009-03-10T10:36:53Z</time>
      </trkpt>
      <trkpt lat="51.5210150" lon="6.8741390">
        <ele>63.0000000</ele>
        <time>2009-03-10T10:36:53Z</time>
      </trkpt>
      <trkpt lat="51.5207240" lon="6.8741390">
        <ele>66.0000000</ele>
        <time>2009-03-10T10:36:53Z</time>
      </trkpt>
      <trkpt lat="51.5200790" lon="6.8732110">
        <ele>65.0000000</ele>
        <time>2009-03-10T10:36:53Z</time>
      </trkpt>
      <trkpt lat="51.5199500" lon="6.8732110">
        <ele>64.0000000</ele>
        <time>2009-03-10T10:36:53Z</time>
      </trkpt>
      <trkpt lat="51.5197140" lon="6.8729400">
        <ele>61.0000000</ele>
        <time>2009-03-10T10:36:53Z</time>
      </trkpt>
      <trkpt lat="51.5196130" lon="6.8728680">
        <ele>60.0000000</ele>
        <time>2009-03-10T10:36:53Z</time>
      </trkpt>
      <trkpt lat="51.5196580" lon="6.8725170">
        <ele>59.0000000</ele>
        <time>2009-03-10T10:36:53Z</time>
      </trkpt>
      <trkpt lat="51.5192820" lon="6.8719850">
        <ele>60.0000000</ele>
        <time>2009-03-10T10:36:53Z</time>
      </trkpt>
      <trkpt lat="51.5191870" lon="6.8717510">
        <ele>59.0000000</ele>
        <time>2009-03-10T10:36:53Z</time>
      </trkpt>
      <trkpt lat="51.5189120" lon="6.8709210">
        <ele>56.0000000</ele>
        <time>2009-03-10T10:36:53Z</time>
      </trkpt>
      <trkpt lat="51.5187440" lon="6.8706330">
        <ele>56.0000000</ele>
        <time>2009-03-10T10:36:53Z</time>
      </trkpt>
      <trkpt lat="51.5186880" lon="6.8704980">
        <ele>55.0000000</ele>
        <time>2009-03-10T10:36:53Z</time>
      </trkpt>
      <trkpt lat="51.5186210" lon="6.8702360">
        <ele>54.0000000</ele>
        <time>2009-03-10T10:36:53Z</time>
      </trkpt>
      <trkpt lat="51.5186770" lon="6.8696600">
        <ele>55.0000000</ele>
        <time>2009-03-10T10:36:53Z</time>
      </trkpt>
      <trkpt lat="51.5185530" lon="6.8691190">
        <ele>55.0000000</ele>
        <time>2009-03-10T10:36:53Z</time>
      </trkpt>
      <trkpt lat="51.5184300" lon="6.8685150">
        <ele>54.0000000</ele>
        <time>2009-03-10T10:36:53Z</time>
      </trkpt>
      <trkpt lat="51.5182730" lon="6.8677490">
        <ele>52.0000000</ele>
        <time>2009-03-10T10:36:53Z</time>
      </trkpt>
      <trkpt lat="51.5181050" lon="6.8671810">
        <ele>51.0000000</ele>
        <time>2009-03-10T10:36:53Z</time>
      </trkpt>
      <trkpt lat="51.5178580" lon="6.8671900">
        <ele>51.0000000</ele>
        <time>2009-03-10T10:36:53Z</time>
      </trkpt>
      <trkpt lat="51.5176450" lon="6.8665680">
        <ele>50.0000000</ele>
        <time>2009-03-10T10:36:53Z</time>
      </trkpt>
      <trkpt lat="51.5175380" lon="6.8662440">
        <ele>50.0000000</ele>
        <time>2009-03-10T10:36:53Z</time>
      </trkpt>
      <trkpt lat="51.5174880" lon="6.8659280">
        <ele>50.0000000</ele>
        <time>2009-03-10T10:36:53Z</time>
      </trkpt>
      <trkpt lat="51.5174930" lon="6.8649190">
        <ele>48.0000000</ele>
        <time>2009-03-10T10:36:53Z</time>
      </trkpt>
      <trkpt lat="51.5174650" lon="6.8642880">
        <ele>47.0000000</ele>
        <time>2009-03-10T10:36:53Z</time>
      </trkpt>
      <trkpt lat="51.5174947" lon="6.8638602">
        <ele>47.0000000</ele>
        <time>2009-03-10T10:36:53Z</time>
      </trkpt>
      <trkpt lat="51.5172531" lon="6.8629390">
        <ele>46.0000000</ele>
        <time>2009-03-10T10:36:53Z</time>
      </trkpt>
      <trkpt lat="51.5169891" lon="6.8624875">
        <ele>47.0000000</ele>
        <time>2009-03-10T10:36:53Z</time>
      </trkpt>
      <trkpt lat="51.5166534" lon="6.8624221">
        <ele>46.0000000</ele>
        <time>2009-03-10T10:36:53Z</time>
      </trkpt>
      <trkpt lat="51.5162021" lon="6.8623262">
        <ele>30.0000000</ele>
        <time>2009-03-10T10:36:53Z</time>
      </trkpt>
      <trkpt lat="51.5160970" lon="6.8618270">
        <ele>46.0000000</ele>
        <time>2009-03-10T10:36:53Z</time>
      </trkpt>
      <trkpt lat="51.5159620" lon="6.8612770">
        <ele>45.0000000</ele>
        <time>2009-03-10T10:36:53Z</time>
      </trkpt>
      <trkpt lat="51.5157210" lon="6.8604030">
        <ele>45.0000000</ele>
        <time>2009-03-10T10:36:53Z</time>
      </trkpt>
      <trkpt lat="51.5155750" lon="6.8597090">
        <ele>46.0000000</ele>
        <time>2009-03-10T10:36:53Z</time>
      </trkpt>
      <trkpt lat="51.5152660" lon="6.8594200">
        <ele>48.0000000</ele>
        <time>2009-03-10T10:36:53Z</time>
      </trkpt>
      <trkpt lat="51.5154230" lon="6.8588890">
        <ele>46.0000000</ele>
        <time>2009-03-10T10:36:53Z</time>
      </trkpt>
      <trkpt lat="51.5155970" lon="6.8584650">
        <ele>45.0000000</ele>
        <time>2009-03-10T10:36:53Z</time>
      </trkpt>
      <trkpt lat="51.5159900" lon="6.8574010">
        <ele>43.0000000</ele>
        <time>2009-03-10T10:36:53Z</time>
      </trkpt>
      <trkpt lat="51.5161190" lon="6.8570410">
        <ele>42.0000000</ele>
        <time>2009-03-10T10:36:53Z</time>
      </trkpt>
      <trkpt lat="51.5162760" lon="6.8562750">
        <ele>42.0000000</ele>
        <time>2009-03-10T10:36:53Z</time>
      </trkpt>
      <trkpt lat="51.5164280" lon="6.8558600">
        <ele>43.0000000</ele>
        <time>2009-03-10T10:36:53Z</time>
      </trkpt>
      <trkpt lat="51.5165900" lon="6.8554090">
        <ele>43.0000000</ele>
        <time>2009-03-10T10:36:53Z</time>
      </trkpt>
      <trkpt lat="51.5167860" lon="6.8547600">
        <ele>43.0000000</ele>
        <time>2009-03-10T10:36:53Z</time>
      </trkpt>
      <trkpt lat="51.5166070" lon="6.8541300">
        <ele>40.0000000</ele>
        <time>2009-03-10T10:36:53Z</time>
      </trkpt>
      <trkpt lat="51.5164440" lon="6.8534080">
        <ele>39.0000000</ele>
        <time>2009-03-10T10:36:53Z</time>
      </trkpt>
      <trkpt lat="51.5162030" lon="6.8523270">
        <ele>38.0000000</ele>
        <time>2009-03-10T10:36:53Z</time>
      </trkpt>
      <trkpt lat="51.5160010" lon="6.8517500">
        <ele>38.0000000</ele>
        <time>2009-03-10T10:36:53Z</time>
      </trkpt>
      <trkpt lat="51.5158670" lon="6.8512810">
        <ele>38.0000000</ele>
        <time>2009-03-10T10:36:53Z</time>
      </trkpt>
      <trkpt lat="51.5157320" lon="6.8506050">
        <ele>37.0000000</ele>
        <time>2009-03-10T10:36:53Z</time>
      </trkpt>
      <trkpt lat="51.5155530" lon="6.8499290">
        <ele>36.0000000</ele>
        <time>2009-03-10T10:36:53Z</time>
      </trkpt>
      <trkpt lat="51.5153170" lon="6.8493610">
        <ele>35.0000000</ele>
        <time>2009-03-10T10:36:53Z</time>
      </trkpt>
      <trkpt lat="51.5151430" lon="6.8487670">
        <ele>35.0000000</ele>
        <time>2009-03-10T10:36:53Z</time>
      </trkpt>
      <trkpt lat="51.5150250" lon="6.8484060">
        <ele>36.0000000</ele>
        <time>2009-03-10T10:36:53Z</time>
      </trkpt>
      <trkpt lat="51.5151430" lon="6.8483430">
        <ele>36.0000000</ele>
        <time>2009-03-10T10:36:53Z</time>
      </trkpt>
      <trkpt lat="51.5149470" lon="6.8474690">
        <ele>36.0000000</ele>
        <time>2009-03-10T10:36:53Z</time>
      </trkpt>
      <trkpt lat="51.5146490" lon="6.8461080">
        <ele>36.0000000</ele>
        <time>2009-03-10T10:36:53Z</time>
      </trkpt>
      <trkpt lat="51.5143800" lon="6.8456120">
        <ele>36.0000000</ele>
        <time>2009-03-10T10:36:53Z</time>
      </trkpt>
      <trkpt lat="51.5139090" lon="6.8450170">
        <ele>35.0000000</ele>
        <time>2009-03-10T10:36:53Z</time>
      </trkpt>
      <trkpt lat="51.5136680" lon="6.8447830">
        <ele>35.0000000</ele>
        <time>2009-03-10T10:36:53Z</time>
      </trkpt>
      <trkpt lat="51.5135780" lon="6.8445930">
        <ele>35.0000000</ele>
        <time>2009-03-10T10:36:53Z</time>
      </trkpt>
    </trkseg>
  </trk>

  <trk>
    <name>Track 003</name>
    <extensions>
      <gpxx:TrackExtension xmlns:gpxx="http://www.garmin.com/xmlschemas/GpxExtensions/v3">
        <gpxx:DisplayColor>Red</gpxx:DisplayColor>
      </gpxx:TrackExtension>
    </extensions>
    <trkseg>
      <trkpt lat="51.5015020" lon="6.8859380">
        <ele>39.0000000</ele>
        <time>2009-03-10T10:36:53Z</time>
      </trkpt>
      <trkpt lat="51.5014750" lon="6.8853540">
        <ele>38.0000000</ele>
        <time>2009-03-10T10:36:53Z</time>
      </trkpt>
      <trkpt lat="51.5014750" lon="6.8853540">
        <ele>38.0000000</ele>
        <time>2009-03-10T10:36:53Z</time>
      </trkpt>
      <trkpt lat="51.5009570" lon="6.8856870">
        <ele>38.0000000</ele>
        <time>2009-03-10T10:36:53Z</time>
      </trkpt>
      <trkpt lat="51.5006570" lon="6.8858240">
        <ele>38.0000000</ele>
        <time>2009-03-10T10:36:53Z</time>
      </trkpt>
    </trkseg>
  </trk>

</gpx>
